[[{"header":{"parameterUnit":"m.s-1","parameterCategory":1,"la1":31.0,"la2":29.5877,"lo1":-88.7671,"lo2":-86.6584,"dy":0.0162,"dx":0.0185,"nx":115,"ny":88,"refTime":"2023-08-27T12:00:00:Z","depth":0,"parameterNumber":2,"parameterNumberName":"U-component_of_WINDS"},"data":[0.0,0.0,0.0,0.0,0.0,0.0,0.0,0.0,0.0,0.0,0.0,0.0,0.0,0.0,0.0,0.0,0.0,0.0,0.0,0.0,0.0,0.0,0.0,0.0,0.0,0.0,0.0,0.0,0.0,0.0,0.0,0.0,0.0,0.0,0.0,0.0,0.0,0.0,0.0,0.0,0.0,0.0,0.0,0.0,0.0,0.0,0.0,0.0,0.0,0.0,0.0,0.0,0.0,0.0,0.0,0.0,0.0,0.0,0.0,0.0,0.0,0.0,0.0,0.0,0.0,0.0,0.0,0.0,0.0,0.0,0.0,0.0,0.0,0.0,0.0,0.0,0.0,0.0,0.0,0.0,0.0,0.0,0.0,0.0,0.0,0.0,0.0,0.0,0.0,0.0,0.0,0.0,0.0,0.0,0.0,0.0,0.0,0.0,0.0,0.0,0.0,0.0,0.0,0.0,0.0,0.0,0.0,0.0,0.0,0.0,0.0,0.0,0.0,0.0,0.0,0.0,0.0,0.0,0.0,0.0,0.0,0.0,0.0,0.0,0.0,0.0,0.0,0.0,0.0,0.0,0.0,0.0,0.0,0.0,0.0,0.0,0.0,0.0,0.0,0.0,0.0,0.0,0.0,0.0,0.0,0.0,0.0,0.0,0.0,0.0,0.0,0.0,0.0,0.0,0.0,0.0,0.0,0.0,0.0,0.0,0.0,0.0,0.0,0.0,0.0,0.0,0.0,0.0,0.0,0.0,0.0,0.0,0.0,0.0,0.0,0.0,0.0,0.0,0.0,0.0,0.0,0.0,0.0,0.0,0.0,0.0,0.0,0.0,0.0,0.0,0.0,0.0,0.0,0.0,0.0,0.0,0.0,0.0,0.0,0.0,0.0,0.0,0.0,0.0,0.0,0.0,0.0,0.0,0.0,0.0,0.0,0.0,0.0,0.0,0.0,0.0,0.0,0.0,0.0,0.0,0.0,0.0,0.0,0.0,0.0,0.0,0.0,0.0,0.0,0.0,0.0,0.0,0.0,0.0,0.0,0.0,0.0,0.0,0.0,0.0,0.0,0.0,0.0,0.0,0.0,0.0,0.0,0.0,0.0,0.0,0.0,0.0,0.0,0.0,0.0,0.0,0.0,0.0,0.0,0.0,0.0,0.0,0.0,0.0,0.0,0.0,0.0,0.0,0.0,0.0,0.0,0.0,0.0,0.0,0.0,0.0,0.0,0.0,0.0,0.0,0.0,0.0,0.0,0.0,0.0,0.0,0.0,0.0,0.0,0.0,0.0,0.0,0.0,0.0,0.0,0.0,0.0,0.0,0.0,0.0,0.0,0.0,0.0,0.0,0.0,0.0,0.0,0.0,0.0,0.0,0.0,0.0,0.0,0.0,0.0,0.0,0.0,0.0,0.0,0.0,0.0,0.0,0.0,0.0,0.0,0.0,0.0,0.0,0.0,0.0,0.0,0.0,0.0,0.0,0.0,0.0,0.0,0.0,0.0,0.0,0.0,0.0,0.0,0.0,0.0,0.0,0.0,0.0,0.0,0.0,0.0,0.0,0.0,0.0,0.0,0.0,0.0,0.0,0.0,0.0,0.0,0.0,0.0,0.0,0.0,0.0,0.0,0.0,0.0,0.0,0.0,0.0,0.0,0.0,0.0,0.0,0.0,0.0,0.0,0.0,0.0,0.0,0.0,0.0,0.0,0.0,0.0,0.0,0.0,0.0,0.0,0.0,0.0,0.0,0.0,0.0,0.0,0.0,0.0,0.0,0.0,0.0,0.0,0.0,0.0,0.0,0.0,0.0,0.0,0.0,0.0,0.0,0.0,0.0,0.0,0.0,0.0,0.0,0.0,0.0,0.0,0.0,0.0,0.0,0.0,0.0,0.0,0.0,0.0,0.0,0.0,0.0,0.0,0.0,0.0,0.0,0.0,0.0,0.0,0.0,0.0,0.0,0.0,0.0,0.0,0.0,0.0,0.0,0.0,0.0,0.0,0.0,0.0,0.0,0.0,0.0,0.0,0.0,0.0,0.0,0.0,0.0,0.0,0.0,0.0,0.0,0.0,0.0,0.0,0.0,0.0,0.0,0.0,0.0,0.0,0.0,0.0,0.0,0.0,0.0,0.0,0.0,0.0,0.0,0.0,0.0,0.0,0.0,0.0,0.0,0.0,0.0,0.0,0.0,0.0,0.0,0.0,0.0,0.0,0.0,0.0,0.0,0.0,0.0,0.0,0.0,0.0,0.0,0.0,0.0,0.0,0.0,0.0,0.0,0.0,0.0,0.0,0.0,0.0,0.0,0.0,0.0,0.0,0.0,0.0,0.0,0.0,0.0,0.0,0.0,0.0,0.0,0.0,0.0,0.0,0.0,0.0,0.0,0.0,0.0,0.0,0.0,0.0,0.0,0.0,0.0,0.0,0.0,0.0,0.0,0.0,0.0,0.0,0.0,0.0,0.0,0.0,0.0,0.0,0.0,0.0,0.0,0.0,0.0,0.0,0.0,0.0,0.0,0.0,0.0,0.0,0.0,0.0,0.0,0.0,0.0,0.0,0.0,0.0,0.0,0.0,0.0,0.0,0.0,0.0,0.0,0.0,0.0,0.0,0.0,0.0,0.0,0.0,0.0,0.0,0.0,0.0,0.0,0.0,0.0,0.0,0.0,0.0,0.0,0.0,0.0,0.0,0.0,0.0,0.0,0.0,0.0,0.0,0.0,0.0,0.0,0.0,0.0,0.0,0.0,0.0,0.0,0.0,0.0,0.0,0.0,0.0,0.0,0.0,0.0,0.0,0.0,0.0,0.0,0.0,0.0,0.0,0.0,0.0,0.0,0.0,0.0,0.0,0.0,0.0,0.0,0.0,0.0,0.0,0.0,0.0,0.0,0.0,0.0,0.0,0.0,0.0,0.0,0.0,0.0,0.0,0.0,0.0,0.0,0.0,0.0,0.0,0.0,0.0,0.0,0.0,0.0,0.0,0.0,0.0,0.0,0.0,0.0,0.0,0.0,0.0,0.0,0.0,0.0,0.0,0.0,0.0,0.0,0.0,0.0,0.0,0.0,0.0,0.0,0.0,0.0,0.0,0.0,0.0,0.0,0.0,0.0,0.0,0.0,0.0,0.0,0.0,0.0,0.0,0.0,0.0,0.0,0.0,0.0,0.0,0.0,0.0,0.0,0.0,0.0,0.0,0.0,0.0,0.0,0.0,0.0,0.0,0.0,0.0,0.0,0.0,0.0,0.0,0.0,0.0,0.0,0.0,0.0,0.0,0.0,0.0,0.0,0.0,0.0,0.0,0.0,0.0,0.0,0.0,0.0,0.0,0.0,0.0,0.0,0.0,0.0,0.0,0.0,0.0,0.0,0.0,0.0,0.0,0.0,0.0,0.0,0.0,0.0,0.0,0.0,0.0,0.0,0.0,0.0,0.0,0.0,0.0,0.0,0.0,0.0,0.0,0.0,0.0,0.0,0.0,0.0,0.0,0.0,0.0,0.0,0.0,0.0,0.0,0.0,0.0,0.0,0.0,0.0,0.0,0.0,0.0,0.0,0.0,0.0,0.0,0.0,0.0,0.0,0.0,0.0,0.0,0.0,0.0,0.0,0.0,0.0,0.0,0.0,0.0,0.0,0.0,0.0,0.0,0.0,0.0,0.0,0.0,0.0,0.0,0.0,0.0,0.0,0.0,0.0,0.0,0.0,0.0,0.0,0.0,0.0,0.0,0.0,0.0,0.0,0.0,0.0,0.0,0.0,0.0,0.0,0.0,0.0,0.0,0.0,0.0,0.0,0.0,0.0,0.0,0.0,0.0,0.0,0.0,0.0,0.0,0.0,0.0,0.0,0.0,0.0,0.0,0.0,0.0,0.0,0.0,0.0,0.0,0.0,0.0,0.0,0.0,0.0,0.0,0.0,0.0,0.0,0.0,0.0,0.0,0.0,0.0,0.0,0.0,0.0,0.0,0.0,0.0,0.0,0.0,0.0,0.0,0.0,0.0,0.0,0.0,0.0,0.0,0.0,0.0,0.0,0.0,0.0,0.0,0.0,0.0,0.0,0.0,0.0,0.0,0.0,0.0,0.0,0.0,0.0,0.0,0.0,0.0,0.0,0.0,0.0,0.0,0.0,0.0,0.0,0.0,0.0,0.0,0.0,0.0,0.0,0.0,0.0,0.0,0.0,0.0,0.0,0.0,0.0,0.0,0.0,0.0,0.0,0.0,0.0,0.0,0.0,0.0,0.0,0.0,0.0,0.0,0.0,6.0781,0.0,0.0,0.0,6.0781,0.0,0.0,0.0,0.0,0.0,0.0,0.0,0.0,0.0,0.0,0.0,0.0,0.0,0.0,0.0,0.0,0.0,0.0,0.0,0.0,0.0,0.0,0.0,0.0,0.0,0.0,0.0,0.0,0.0,0.0,0.0,0.0,0.0,0.0,0.0,0.0,0.0,0.0,0.0,0.0,0.0,0.0,0.0,0.0,0.0,0.0,0.0,0.0,0.0,0.0,0.0,0.0,0.0,0.0,0.0,0.0,0.0,0.0,0.0,0.0,0.0,0.0,0.0,0.0,0.0,0.0,0.0,0.0,0.0,0.0,0.0,0.0,0.0,0.0,0.0,0.0,0.0,0.0,0.0,0.0,0.0,0.0,0.0,0.0,0.0,0.0,0.0,0.0,0.0,0.0,0.0,0.0,0.0,0.0,0.0,0.0,0.0,0.0,0.0,0.0,0.0,0.0,0.0,0.0,0.0,0.0,0.0,0.0,0.0,0.0,6.0781,6.0781,6.0781,6.0781,6.0781,0.0,0.0,0.0,0.0,0.0,0.0,0.0,0.0,0.0,0.0,0.0,0.0,0.0,0.0,0.0,0.0,0.0,0.0,0.0,0.0,0.0,0.0,0.0,0.0,0.0,0.0,0.0,0.0,0.0,0.0,0.0,0.0,0.0,0.0,0.0,0.0,0.0,0.0,0.0,0.0,0.0,0.0,0.0,0.0,0.0,0.0,0.0,0.0,0.0,0.0,0.0,0.0,0.0,0.0,0.0,0.0,0.0,0.0,0.0,0.0,0.0,0.0,0.0,0.0,0.0,0.0,0.0,0.0,0.0,0.0,0.0,0.0,0.0,0.0,0.0,0.0,0.0,0.0,0.0,0.0,0.0,0.0,0.0,0.0,0.0,0.0,0.0,0.0,0.0,0.0,0.0,0.0,0.0,0.0,0.0,0.0,0.0,0.0,0.0,0.0,0.0,0.0,0.0,0.0,0.0,0.0,0.0,0.0,0.0,0.0,0.0,0.0,6.1666,6.1666,6.1627,0.0,0.0,0.0,0.0,0.0,0.0,0.0,0.0,0.0,0.0,0.0,0.0,0.0,0.0,0.0,0.0,0.0,0.0,0.0,0.0,0.0,0.0,0.0,0.0,0.0,0.0,0.0,0.0,0.0,0.0,0.0,0.0,0.0,0.0,0.0,0.0,0.0,0.0,0.0,0.0,0.0,0.0,0.0,0.0,0.0,0.0,0.0,0.0,0.0,0.0,0.0,0.0,0.0,0.0,0.0,0.0,0.0,0.0,0.0,0.0,0.0,0.0,0.0,0.0,0.0,0.0,0.0,0.0,0.0,0.0,0.0,0.0,0.0,0.0,0.0,0.0,0.0,0.0,0.0,0.0,0.0,0.0,0.0,0.0,0.0,0.0,0.0,0.0,0.0,0.0,0.0,0.0,0.0,0.0,0.0,0.0,0.0,0.0,0.0,0.0,0.0,0.0,0.0,0.0,0.0,0.0,0.0,0.0,0.0,0.0,6.1897,6.4166,6.4205,0.0,6.4128,0.0,0.0,0.0,0.0,0.0,0.0,0.0,0.0,0.0,0.0,0.0,0.0,0.0,0.0,0.0,0.0,0.0,0.0,0.0,0.0,0.0,0.0,0.0,0.0,0.0,0.0,0.0,0.0,0.0,0.0,0.0,0.0,0.0,0.0,0.0,0.0,0.0,0.0,0.0,0.0,0.0,0.0,0.0,0.0,0.0,0.0,0.0,0.0,0.0,0.0,0.0,0.0,0.0,0.0,0.0,0.0,0.0,0.0,0.0,0.0,0.0,0.0,0.0,0.0,0.0,0.0,0.0,0.0,0.0,0.0,0.0,0.0,0.0,0.0,0.0,0.0,0.0,0.0,0.0,0.0,0.0,0.0,0.0,0.0,0.0,0.0,0.0,0.0,0.0,0.0,0.0,0.0,0.0,0.0,0.0,0.0,0.0,0.0,0.0,0.0,0.0,0.0,0.0,0.0,0.0,0.0,0.0,0.0,0.0,0.0,6.1781,6.3782,6.382,6.3358,0.0,0.0,0.0,0.0,0.0,0.0,0.0,0.0,0.0,0.0,0.0,0.0,0.0,0.0,0.0,0.0,0.0,0.0,0.0,0.0,0.0,0.0,0.0,0.0,0.0,0.0,0.0,0.0,0.0,0.0,0.0,0.0,0.0,0.0,0.0,0.0,0.0,0.0,0.0,0.0,0.0,0.0,0.0,0.0,0.0,0.0,0.0,0.0,0.0,0.0,0.0,0.0,0.0,0.0,0.0,0.0,0.0,0.0,0.0,0.0,0.0,0.0,0.0,0.0,0.0,0.0,0.0,0.0,0.0,0.0,0.0,0.0,0.0,0.0,0.0,0.0,0.0,0.0,0.0,0.0,0.0,0.0,0.0,0.0,0.0,0.0,0.0,0.0,0.0,0.0,0.0,0.0,0.0,0.0,0.0,0.0,0.0,0.0,0.0,0.0,0.0,0.0,0.0,0.0,0.0,0.0,0.0,0.0,0.0,0.0,6.1627,6.205,6.3858,6.3089,6.2358,6.1858,0.0,0.0,0.0,0.0,0.0,0.0,0.0,0.0,0.0,0.0,0.0,0.0,0.0,0.0,0.0,0.0,0.0,0.0,0.0,0.0,0.0,0.0,0.0,0.0,0.0,0.0,0.0,0.0,0.0,0.0,0.0,0.0,0.0,0.0,0.0,0.0,0.0,0.0,0.0,0.0,0.0,0.0,0.0,0.0,0.0,0.0,0.0,0.0,0.0,0.0,0.0,0.0,0.0,0.0,0.0,0.0,0.0,0.0,0.0,0.0,0.0,0.0,0.0,0.0,0.0,0.0,0.0,0.0,0.0,0.0,0.0,0.0,0.0,0.0,0.0,0.0,0.0,0.0,0.0,0.0,0.0,0.0,0.0,0.0,0.0,0.0,0.0,0.0,0.0,0.0,0.0,0.0,0.0,0.0,0.0,0.0,0.0,0.0,0.0,0.0,0.0,0.0,0.0,0.0,0.0,0.0,0.0,0.0,6.6436,6.3666,6.3243,6.5474,6.2627,6.2012,0.0,0.0,0.0,0.0,0.0,0.0,0.0,0.0,0.0,0.0,0.0,0.0,0.0,0.0,0.0,0.0,0.0,0.0,0.0,0.0,0.0,0.0,0.0,0.0,0.0,0.0,0.0,0.0,0.0,0.0,0.0,0.0,0.0,0.0,0.0,0.0,0.0,0.0,0.0,0.0,0.0,0.0,0.0,0.0,0.0,0.0,0.0,0.0,0.0,0.0,0.0,0.0,0.0,0.0,0.0,0.0,0.0,0.0,0.0,0.0,0.0,0.0,0.0,0.0,0.0,0.0,0.0,0.0,0.0,0.0,0.0,0.0,0.0,0.0,0.0,0.0,0.0,0.0,0.0,0.0,0.0,0.0,0.0,0.0,0.0,0.0,0.0,0.0,0.0,0.0,0.0,0.0,0.0,0.0,0.0,0.0,0.0,0.0,0.0,0.0,0.0,0.0,0.0,0.0,0.0,0.0,0.0,0.0,0.0,6.2974,6.2897,6.2781,6.2627,6.2474,6.2358,0.0,0.0,0.0,0.0,0.0,0.0,0.0,0.0,0.0,0.0,0.0,0.0,0.0,0.0,0.0,0.0,0.0,0.0,0.0,0.0,0.0,0.0,0.0,0.0,0.0,0.0,0.0,0.0,0.0,0.0,0.0,0.0,0.0,0.0,0.0,0.0,0.0,0.0,0.0,0.0,0.0,0.0,0.0,0.0,0.0,0.0,0.0,0.0,0.0,0.0,0.0,0.0,0.0,0.0,0.0,0.0,0.0,0.0,0.0,0.0,0.0,0.0,0.0,0.0,0.0,0.0,0.0,0.0,0.0,0.0,0.0,0.0,0.0,0.0,0.0,0.0,0.0,0.0,0.0,0.0,0.0,0.0,0.0,0.0,0.0,0.0,0.0,0.0,0.0,0.0,0.0,0.0,0.0,0.0,0.0,0.0,0.0,0.0,0.0,0.0,0.0,0.0,0.0,0.0,0.0,0.0,0.0,0.0,0.0,6.1243,0.0,6.2627,6.132,6.205,6.1935,0.0,0.0,0.0,0.0,0.0,0.0,0.0,0.0,0.0,0.0,0.0,0.0,0.0,0.0,0.0,0.0,0.0,0.0,0.0,0.0,0.0,0.0,0.0,0.0,0.0,0.0,0.0,0.0,0.0,0.0,0.0,0.0,0.0,0.0,0.0,0.0,0.0,0.0,0.0,0.0,0.0,0.0,0.0,0.0,0.0,0.0,0.0,0.0,0.0,0.0,0.0,0.0,0.0,0.0,0.0,0.0,0.0,0.0,0.0,0.0,0.0,0.0,0.0,0.0,0.0,0.0,0.0,0.0,0.0,0.0,0.0,0.0,0.0,0.0,0.0,0.0,0.0,0.0,0.0,0.0,0.0,0.0,0.0,0.0,0.0,0.0,0.0,0.0,0.0,0.0,0.0,0.0,0.0,0.0,0.0,0.0,0.0,0.0,0.0,0.0,0.0,0.0,0.0,0.0,0.0,0.0,0.0,0.0,6.1204,6.2012,6.282,6.282,6.2127,6.1281,6.0819,0.0,0.0,0.0,0.0,0.0,0.0,0.0,0.0,0.0,0.0,0.0,0.0,0.0,0.0,0.0,0.0,0.0,0.0,0.0,0.0,0.0,0.0,0.0,0.0,0.0,0.0,0.0,0.0,0.0,0.0,0.0,0.0,0.0,0.0,0.0,0.0,0.0,0.0,0.0,0.0,0.0,0.0,0.0,0.0,0.0,0.0,0.0,0.0,0.0,0.0,0.0,0.0,0.0,0.0,0.0,0.0,0.0,0.0,0.0,0.0,0.0,0.0,0.0,0.0,0.0,0.0,0.0,0.0,0.0,0.0,0.0,0.0,0.0,0.0,0.0,0.0,0.0,0.0,0.0,0.0,0.0,0.0,0.0,0.0,0.0,0.0,0.0,0.0,0.0,0.0,0.0,0.0,0.0,0.0,0.0,0.0,0.0,0.0,0.0,0.0,0.0,0.0,0.0,0.0,0.0,0.0,0.0,0.0,0.0,6.1204,6.1435,6.2012,6.282,6.0973,6.0742,0.0,0.0,0.0,0.0,0.0,0.0,0.0,0.0,0.0,0.0,0.0,0.0,0.0,0.0,0.0,0.0,0.0,0.0,0.0,0.0,0.0,0.0,0.0,0.0,0.0,0.0,0.0,0.0,0.0,0.0,0.0,0.0,0.0,0.0,0.0,0.0,0.0,0.0,0.0,0.0,0.0,0.0,0.0,0.0,0.0,0.0,0.0,0.0,0.0,0.0,0.0,0.0,0.0,0.0,0.0,0.0,0.0,0.0,0.0,0.0,0.0,0.0,0.0,0.0,0.0,0.0,0.0,0.0,0.0,0.0,0.0,0.0,0.0,0.0,0.0,0.0,0.0,0.0,0.0,0.0,0.0,0.0,0.0,0.0,0.0,0.0,0.0,0.0,0.0,0.0,0.0,0.0,0.0,0.0,0.0,0.0,0.0,0.0,0.0,0.0,0.0,0.0,0.0,0.0,0.0,0.0,0.0,0.0,0.0,6.1281,6.1146,6.1403,6.2158,6.0597,6.0213,6.1134,0.0,0.0,0.0,0.0,0.0,0.0,0.0,0.0,0.0,0.0,0.0,0.0,0.0,0.0,0.0,0.0,0.0,0.0,0.0,0.0,0.0,0.0,0.0,0.0,0.0,0.0,0.0,0.0,0.0,0.0,0.0,0.0,0.0,0.0,0.0,0.0,0.0,0.0,0.0,0.0,0.0,0.0,0.0,0.0,0.0,0.0,0.0,0.0,0.0,0.0,0.0,0.0,0.0,0.0,0.0,0.0,0.0,0.0,0.0,0.0,0.0,0.0,0.0,0.0,0.0,0.0,0.0,0.0,0.0,0.0,0.0,0.0,0.0,0.0,0.0,0.0,0.0,0.0,0.0,0.0,0.0,0.0,0.0,0.0,0.0,0.0,0.0,0.0,0.0,0.0,0.0,0.0,0.0,0.0,0.0,0.0,0.0,0.0,0.0,0.0,0.0,0.0,0.0,0.0,0.0,0.0,0.0,0.0,6.2012,6.1732,6.1249,6.0617,6.0398,5.9529,0.0,0.0,0.0,0.0,0.0,0.0,0.0,0.0,0.0,0.0,0.0,0.0,0.0,0.0,0.0,0.0,0.0,0.0,0.0,0.0,0.0,0.0,0.0,0.0,0.0,0.0,0.0,0.0,0.0,0.0,0.0,0.0,0.0,0.0,0.0,0.0,0.0,0.0,0.0,0.0,0.0,0.0,0.0,0.0,0.0,0.0,0.0,0.0,0.0,0.0,0.0,0.0,0.0,0.0,0.0,0.0,0.0,0.0,0.0,0.0,0.0,0.0,0.0,0.0,0.0,0.0,0.0,0.0,0.0,0.0,0.0,0.0,0.0,0.0,0.0,0.0,0.0,0.0,0.0,0.0,0.0,0.0,0.0,0.0,0.0,0.0,0.0,0.0,0.0,0.0,0.0,0.0,0.0,0.0,0.0,0.0,0.0,0.0,0.0,0.0,0.0,0.0,0.0,0.0,0.0,0.0,0.0,0.0,0.0,6.1127,6.2,6.2662,6.3035,6.1505,6.0623,0.0,0.0,0.0,0.0,0.0,0.0,0.0,0.0,0.0,0.0,0.0,0.0,0.0,0.0,0.0,0.0,0.0,0.0,0.0,0.0,0.0,0.0,0.0,0.0,0.0,0.0,0.0,0.0,0.0,0.0,0.0,0.0,0.0,0.0,0.0,0.0,0.0,0.0,0.0,0.0,0.0,0.0,0.0,0.0,0.0,0.0,0.0,0.0,0.0,0.0,0.0,0.0,0.0,0.0,0.0,0.0,0.0,0.0,0.0,0.0,0.0,0.0,0.0,0.0,0.0,0.0,0.0,0.0,0.0,0.0,0.0,0.0,0.0,0.0,0.0,0.0,0.0,0.0,0.0,0.0,0.0,0.0,0.0,0.0,0.0,0.0,0.0,0.0,0.0,0.0,0.0,0.0,0.0,0.0,0.0,0.0,0.0,0.0,0.0,0.0,0.0,0.0,0.0,0.0,0.0,0.0,0.0,0.0,6.0281,6.0781,6.2247,6.294,6.2788,6.2251,6.1182,0.0,0.0,0.0,0.0,0.0,0.0,0.0,0.0,0.0,0.0,0.0,0.0,0.0,0.0,0.0,0.0,0.0,0.0,0.0,0.0,0.0,0.0,0.0,0.0,0.0,0.0,0.0,0.0,0.0,0.0,0.0,0.0,0.0,0.0,0.0,0.0,0.0,0.0,0.0,0.0,0.0,0.0,0.0,0.0,0.0,0.0,0.0,0.0,0.0,0.0,0.0,0.0,0.0,0.0,0.0,0.0,0.0,0.0,0.0,0.0,0.0,0.0,0.0,0.0,0.0,0.0,0.0,0.0,0.0,0.0,0.0,0.0,0.0,0.0,0.0,0.0,0.0,0.0,0.0,0.0,0.0,0.0,0.0,0.0,0.0,0.0,0.0,0.0,0.0,0.0,0.0,0.0,0.0,0.0,0.0,0.0,0.0,0.0,0.0,0.0,0.0,0.0,0.0,0.0,0.0,0.0,0.0,0.0,6.0589,6.0666,6.2257,6.2421,6.1126,6.2425,6.1292,0.0,0.0,0.0,0.0,0.0,0.0,0.0,0.0,0.0,0.0,0.0,0.0,0.0,0.0,0.0,0.0,0.0,0.0,0.0,0.0,0.0,0.0,0.0,0.0,0.0,0.0,0.0,0.0,0.0,0.0,0.0,0.0,0.0,0.0,0.0,0.0,0.0,0.0,0.0,0.0,0.0,0.0,0.0,0.0,0.0,0.0,0.0,0.0,0.0,0.0,0.0,0.0,0.0,0.0,0.0,0.0,0.0,0.0,0.0,0.0,0.0,0.0,0.0,0.0,0.0,0.0,0.0,0.0,0.0,0.0,0.0,0.0,0.0,0.0,0.0,0.0,0.0,0.0,0.0,0.0,0.0,0.0,0.0,0.0,0.0,0.0,0.0,0.0,0.0,0.0,0.0,0.0,0.0,0.0,0.0,0.0,0.0,0.0,0.0,0.0,0.0,0.0,0.0,0.0,0.0,0.0,0.0,0.0,5.9127,5.9796,6.1134,6.1582,6.1022,6.1583,6.0441,0.0,0.0,0.0,0.0,0.0,0.0,0.0,0.0,0.0,0.0,0.0,0.0,0.0,0.0,0.0,0.0,0.0,0.0,0.0,0.0,0.0,0.0,0.0,0.0,0.0,0.0,0.0,0.0,0.0,0.0,0.0,0.0,0.0,0.0,0.0,0.0,0.0,0.0,0.0,0.0,0.0,0.0,0.0,0.0,0.0,0.0,0.0,0.0,6.8203,0.0,0.0,0.0,0.0,0.0,0.0,0.0,0.0,0.0,0.0,0.0,0.0,0.0,0.0,0.0,0.0,0.0,0.0,0.0,0.0,0.0,0.0,0.0,0.0,0.0,0.0,0.0,0.0,0.0,0.0,0.0,0.0,0.0,0.0,0.0,0.0,0.0,0.0,0.0,0.0,0.0,0.0,0.0,0.0,0.0,0.0,0.0,0.0,0.0,0.0,0.0,0.0,0.0,0.0,0.0,0.0,0.0,0.0,0.0,5.7819,5.8142,5.9529,6.0099,5.9647,6.0122,5.9582,0.0,0.0,0.0,0.0,0.0,0.0,0.0,0.0,0.0,0.0,0.0,0.0,0.0,0.0,0.0,0.0,0.0,0.0,0.0,0.0,0.0,0.0,0.0,0.0,0.0,0.0,0.0,0.0,0.0,0.0,0.0,0.0,0.0,0.0,0.0,0.0,0.0,0.0,0.0,0.0,0.0,0.0,0.0,0.0,0.0,0.0,0.0,0.0,0.0,0.0,0.0,0.0,0.0,0.0,0.0,0.0,0.0,0.0,0.0,0.0,0.0,0.0,0.0,0.0,0.0,0.0,0.0,0.0,0.0,0.0,0.0,0.0,0.0,0.0,0.0,0.0,0.0,0.0,0.0,0.0,0.0,0.0,0.0,0.0,0.0,0.0,0.0,0.0,0.0,0.0,0.0,0.0,0.0,0.0,0.0,0.0,0.0,0.0,0.0,0.0,0.0,0.0,0.0,0.0,0.0,0.0,0.0,5.6165,5.6855,5.6573,5.7958,5.8456,5.7862,5.854,5.8648,5.8078,0.0,0.0,0.0,0.0,0.0,0.0,0.0,0.0,0.0,0.0,0.0,0.0,0.0,0.0,0.0,0.0,0.0,0.0,0.0,0.0,0.0,0.0,0.0,0.0,0.0,0.0,0.0,0.0,0.0,0.0,0.0,0.0,0.0,0.0,0.0,0.0,0.0,0.0,6.5936,6.7148,0.0,0.0,0.0,0.0,0.0,0.0,0.0,0.0,6.7184,0.0,0.0,0.0,0.0,0.0,0.0,0.0,0.0,0.0,0.0,0.0,0.0,0.0,0.0,0.0,0.0,0.0,0.0,0.0,0.0,0.0,0.0,0.0,0.0,0.0,0.0,0.0,0.0,0.0,0.0,0.0,0.0,0.0,0.0,0.0,0.0,0.0,0.0,0.0,0.0,0.0,0.0,0.0,0.0,0.0,0.0,0.0,0.0,0.0,0.0,0.0,0.0,0.0,0.0,0.0,0.0,5.4507,5.6165,5.6841,5.6527,5.718,5.7402,5.7035,5.7489,5.7342,5.6494,0.0,0.0,0.0,0.0,0.0,0.0,0.0,0.0,0.0,0.0,0.0,0.0,0.0,0.0,0.0,0.0,0.0,0.0,0.0,0.0,0.0,0.0,0.0,0.0,0.0,0.0,0.0,0.0,0.0,0.0,0.0,0.0,0.0,0.0,0.0,0.0,0.0,0.0,0.0,6.787,6.8784,0.0,0.0,0.0,0.0,0.0,0.0,0.0,0.0,6.764,0.0,0.0,0.0,0.0,0.0,0.0,0.0,0.0,0.0,0.0,0.0,0.0,0.0,0.0,0.0,0.0,0.0,0.0,0.0,0.0,0.0,0.0,0.0,0.0,0.0,0.0,0.0,0.0,0.0,0.0,0.0,0.0,0.0,0.0,0.0,0.0,0.0,0.0,0.0,0.0,0.0,0.0,0.0,0.0,0.0,0.0,0.0,0.0,0.0,0.0,0.0,0.0,0.0,0.0,0.0,5.3874,5.5324,5.5963,5.5662,5.6128,5.624,5.5884,5.655,5.6631,0.0,0.0,0.0,0.0,0.0,0.0,0.0,0.0,0.0,0.0,0.0,0.0,0.0,0.0,0.0,0.0,0.0,0.0,0.0,0.0,0.0,0.0,0.0,0.0,0.0,0.0,0.0,0.0,0.0,0.0,0.0,0.0,0.0,0.0,0.0,0.0,0.0,0.0,0.0,0.0,6.7943,6.8788,6.8,0.0,0.0,0.0,0.0,0.0,0.0,6.606,6.6431,0.0,0.0,0.0,0.0,0.0,0.0,0.0,0.0,0.0,0.0,0.0,0.0,0.0,0.0,0.0,0.0,0.0,0.0,0.0,0.0,0.0,0.0,0.0,0.0,0.0,0.0,0.0,0.0,0.0,0.0,0.0,0.0,0.0,0.0,0.0,0.0,0.0,0.0,0.0,0.0,0.0,0.0,0.0,0.0,0.0,0.0,0.0,0.0,0.0,0.0,0.0,0.0,0.0,0.0,0.0,5.3259,5.4594,5.514,5.4812,5.5112,5.5098,5.4797,5.5577,5.5921,0.0,0.0,0.0,0.0,0.0,0.0,0.0,0.0,0.0,0.0,0.0,0.0,0.0,0.0,0.0,0.0,0.0,0.0,0.0,0.0,0.0,0.0,0.0,0.0,0.0,0.0,0.0,0.0,0.0,0.0,0.0,0.0,0.0,0.0,0.0,0.0,0.0,0.0,0.0,0.0,0.0,6.9024,6.7714,6.8235,0.0,0.0,0.0,0.0,6.6239,6.606,0.0,0.0,0.0,0.0,0.0,0.0,0.0,0.0,0.0,0.0,0.0,0.0,0.0,0.0,0.0,0.0,0.0,0.0,0.0,0.0,0.0,0.0,0.0,0.0,0.0,0.0,0.0,0.0,0.0,0.0,0.0,0.0,0.0,0.0,0.0,0.0,0.0,0.0,0.0,0.0,0.0,0.0,0.0,0.0,0.0,0.0,0.0,0.0,0.0,0.0,0.0,0.0,0.0,0.0,0.0,0.0,5.322,5.4594,5.5131,5.4838,5.457,5.431,5.3943,5.4723,5.4951,0.0,0.0,0.0,0.0,0.0,0.0,0.0,0.0,0.0,0.0,0.0,0.0,0.0,0.0,0.0,0.0,0.0,0.0,0.0,0.0,0.0,0.0,0.0,0.0,0.0,0.0,0.0,0.0,0.0,0.0,0.0,0.0,0.0,0.0,0.0,0.0,0.0,0.0,0.0,0.0,0.0,7.0138,6.8562,6.9022,6.9211,0.0,0.0,6.7029,6.7131,6.8246,0.0,0.0,0.0,0.0,0.0,0.0,0.0,0.0,0.0,0.0,0.0,0.0,0.0,0.0,0.0,0.0,0.0,0.0,0.0,0.0,0.0,0.0,0.0,0.0,0.0,0.0,0.0,0.0,0.0,0.0,0.0,0.0,0.0,0.0,0.0,0.0,0.0,0.0,0.0,0.0,0.0,0.0,0.0,0.0,0.0,0.0,0.0,0.0,0.0,0.0,0.0,0.0,0.0,0.0,0.0,5.3203,5.3259,5.4384,5.4928,5.479,5.4276,5.3944,5.3794,5.4166,5.4317,0.0,0.0,0.0,0.0,0.0,0.0,0.0,0.0,0.0,0.0,0.0,0.0,0.0,0.0,0.0,0.0,0.0,0.0,0.0,0.0,0.0,0.0,0.0,0.0,0.0,0.0,0.0,0.0,0.0,0.0,0.0,0.0,0.0,0.0,0.0,0.0,0.0,0.0,0.0,0.0,0.0,0.0,6.8814,6.9582,0.0,0.0,0.0,6.6779,6.7205,0.0,0.0,0.0,0.0,0.0,0.0,0.0,0.0,0.0,0.0,0.0,0.0,0.0,0.0,0.0,0.0,0.0,0.0,0.0,0.0,0.0,0.0,0.0,0.0,0.0,0.0,0.0,0.0,0.0,0.0,0.0,0.0,0.0,0.0,0.0,0.0,0.0,0.0,0.0,0.0,0.0,0.0,0.0,0.0,0.0,0.0,0.0,0.0,0.0,0.0,0.0,0.0,0.0,0.0,0.0,0.0,0.0,5.322,5.4253,5.4829,5.4797,5.4166,5.3794,5.3794,5.3794,0.0,0.0,0.0,0.0,0.0,0.0,0.0,0.0,0.0,0.0,0.0,0.0,0.0,0.0,0.0,0.0,0.0,0.0,0.0,0.0,0.0,0.0,0.0,0.0,0.0,0.0,0.0,5.506,0.0,0.0,0.0,0.0,0.0,0.0,0.0,0.0,0.0,0.0,0.0,0.0,0.0,0.0,7.0634,6.8766,6.9868,7.0512,0.0,0.0,6.6844,6.7232,6.7147,6.6371,0.0,0.0,0.0,0.0,0.0,0.0,0.0,0.0,0.0,0.0,0.0,0.0,0.0,0.0,0.0,0.0,0.0,0.0,0.0,0.0,0.0,0.0,0.0,0.0,0.0,0.0,0.0,0.0,0.0,0.0,0.0,0.0,0.0,0.0,0.0,0.0,0.0,0.0,0.0,0.0,0.0,0.0,0.0,0.0,0.0,0.0,0.0,0.0,0.0,0.0,0.0,0.0,0.0,0.0,5.3203,5.3238,5.4253,5.4829,5.4797,5.4166,5.3794,5.3794,5.3794,5.3794,0.0,0.0,0.0,0.0,0.0,0.0,0.0,0.0,0.0,0.0,0.0,0.0,0.0,0.0,0.0,0.0,0.0,0.0,0.0,0.0,0.0,0.0,0.0,0.0,0.0,0.0,0.0,0.0,0.0,0.0,0.0,0.0,0.0,0.0,0.0,0.0,0.0,0.0,0.0,0.0,0.0,6.868,6.8507,6.9905,7.0883,0.0,6.9383,6.8091,6.7406,6.8506,6.7851,6.3297,0.0,0.0,0.0,0.0,0.0,0.0,0.0,0.0,0.0,0.0,0.0,0.0,0.0,0.0,0.0,0.0,0.0,0.0,0.0,0.0,0.0,0.0,0.0,0.0,0.0,0.0,0.0,0.0,0.0,0.0,0.0,0.0,0.0,0.0,0.0,0.0,0.0,0.0,0.0,0.0,0.0,0.0,0.0,0.0,0.0,0.0,0.0,0.0,0.0,0.0,0.0,0.0,0.0,5.3203,5.322,5.4253,5.4784,5.4799,5.4163,5.3794,5.3794,5.3794,5.3794,0.0,0.0,0.0,0.0,0.0,0.0,0.0,0.0,0.0,0.0,0.0,0.0,0.0,0.0,0.0,0.0,0.0,0.0,0.0,0.0,0.0,0.0,0.0,0.0,0.0,0.0,0.0,0.0,5.5466,5.5391,5.5057,0.0,0.0,0.0,0.0,0.0,0.0,0.0,0.0,0.0,0.0,6.8926,6.7937,6.9534,0.0,0.0,6.9197,6.824,6.7406,6.7402,6.6462,6.3578,6.2591,0.0,0.0,0.0,0.0,0.0,0.0,0.0,0.0,0.0,0.0,0.0,0.0,0.0,0.0,0.0,0.0,0.0,0.0,0.0,0.0,0.0,0.0,0.0,0.0,0.0,0.0,0.0,0.0,0.0,0.0,0.0,0.0,0.0,0.0,0.0,0.0,0.0,0.0,0.0,0.0,0.0,0.0,0.0,0.0,0.0,0.0,0.0,0.0,0.0,0.0,0.0,0.0,5.3203,5.3203,5.4253,5.4806,5.4806,5.4161,5.3794,5.3794,5.3794,5.3794,0.0,0.0,0.0,0.0,0.0,0.0,0.0,0.0,0.0,0.0,0.0,0.0,0.0,0.0,0.0,0.0,0.0,0.0,0.0,0.0,0.0,0.0,0.0,0.0,0.0,0.0,0.0,0.0,5.5129,5.4648,5.4648,0.0,0.0,0.0,0.0,0.0,0.0,0.0,0.0,0.0,0.0,6.7848,6.7688,6.8914,6.9732,6.9397,6.8442,6.7428,6.6383,6.5905,6.5068,6.3187,0.0,0.0,0.0,0.0,0.0,0.0,0.0,0.0,0.0,0.0,0.0,0.0,0.0,0.0,0.0,0.0,0.0,0.0,0.0,0.0,0.0,0.0,0.0,0.0,0.0,0.0,0.0,5.3794,0.0,0.0,5.2568,0.0,0.0,0.0,0.0,0.0,0.0,0.0,0.0,0.0,0.0,0.0,0.0,0.0,0.0,0.0,0.0,0.0,0.0,0.0,0.0,0.0,0.0,5.3203,5.3241,5.4253,5.4806,5.4776,5.4161,5.3794,5.3794,5.3794,5.3794,5.3794,0.0,0.0,0.0,0.0,0.0,0.0,0.0,0.0,0.0,0.0,0.0,0.0,0.0,0.0,0.0,0.0,0.0,0.0,0.0,0.0,0.0,0.0,0.0,0.0,0.0,0.0,5.5241,5.4314,5.3868,0.0,0.0,0.0,0.0,0.0,0.0,0.0,0.0,0.0,6.326,6.3676,6.4902,6.7911,6.7837,6.7688,6.8394,6.7172,6.5619,6.4021,6.4355,6.3996,0.0,0.0,0.0,0.0,0.0,0.0,0.0,0.0,0.0,0.0,0.0,0.0,0.0,0.0,0.0,0.0,0.0,0.0,0.0,0.0,0.0,0.0,0.0,0.0,0.0,0.0,0.0,5.4392,5.3014,0.0,0.0,0.0,0.0,0.0,0.0,0.0,0.0,0.0,0.0,0.0,5.4425,5.386,0.0,0.0,0.0,0.0,0.0,0.0,0.0,0.0,0.0,0.0,0.0,0.0,5.3203,5.3259,5.4253,5.4806,5.4776,5.4161,5.3794,5.3794,5.3794,5.3794,5.3794,0.0,0.0,0.0,0.0,0.0,0.0,0.0,0.0,0.0,0.0,0.0,0.0,0.0,0.0,0.0,0.0,0.0,0.0,0.0,0.0,0.0,0.0,0.0,0.0,0.0,5.765,0.0,0.0,0.0,0.0,0.0,0.0,0.0,0.0,0.0,0.0,6.1422,6.1044,6.1874,6.2903,6.3825,6.439,6.5645,6.6425,0.0,0.0,0.0,0.0,0.0,0.0,0.0,0.0,0.0,0.0,0.0,0.0,0.0,6.5093,6.4913,6.4756,6.5264,6.5836,6.6088,0.0,0.0,0.0,0.0,0.0,0.0,0.0,0.0,0.0,0.0,0.0,0.0,0.0,0.0,5.3312,5.253,5.1711,0.0,0.0,0.0,0.0,0.0,0.0,0.0,0.0,5.3014,5.3423,5.4088,5.3527,5.347,0.0,5.3242,5.2946,0.0,0.0,0.0,0.0,0.0,0.0,0.0,0.0,5.3123,5.3091,5.4161,5.4746,5.4623,5.4089,5.3794,5.3794,5.3794,5.3794,5.3794,5.3794,5.3794,0.0,0.0,0.0,0.0,0.0,0.0,0.0,0.0,0.0,0.0,0.0,0.0,0.0,0.0,0.0,0.0,0.0,0.0,0.0,0.0,0.0,0.0,0.0,5.7138,0.0,0.0,0.0,0.0,0.0,0.0,0.0,0.0,0.0,6.1666,6.1517,6.14,6.1991,6.2693,6.317,6.3238,0.0,0.0,0.0,0.0,0.0,0.0,0.0,6.3525,6.3267,6.3676,6.4336,6.5238,6.6208,6.6546,6.579,0.0,0.0,6.5125,6.5618,6.6167,6.6482,6.8652,7.0202,6.9077,7.0196,7.094,0.0,0.0,0.0,0.0,0.0,0.0,0.0,0.0,5.2197,5.1936,0.0,5.008,0.0,0.0,0.0,0.0,5.1231,5.1305,0.0,0.0,5.3645,5.3757,5.3757,5.3683,5.387,5.4183,5.3641,5.2996,5.2257,5.2005,0.0,0.0,0.0,0.0,0.0,0.0,5.3037,5.2766,5.4116,5.4654,5.4296,5.3944,5.3794,5.3794,5.3794,5.3794,5.3794,5.3794,5.3794,5.3794,5.3794,0.0,0.0,0.0,0.0,0.0,0.0,0.0,0.0,0.0,0.0,0.0,0.0,0.0,0.0,0.0,0.0,0.0,0.0,0.0,0.0,5.4984,0.0,0.0,0.0,0.0,0.0,0.0,0.0,0.0,0.0,5.9275,6.0953,6.1139,6.1731,6.3156,0.0,0.0,0.0,0.0,6.1744,6.3305,6.288,6.2427,6.2464,6.3111,6.3334,6.2658,0.0,0.0,6.6409,6.6873,6.6908,6.656,6.6048,6.5804,6.5732,6.61,6.6643,6.7402,6.8754,6.9805,6.9961,7.0089,7.0232,5.3736,0.0,0.0,0.0,0.0,5.2821,5.3163,5.3757,5.3311,5.2455,5.1339,5.0675,0.0,0.0,0.0,0.0,0.0,0.0,5.1082,5.2085,5.2085,5.2382,5.294,5.2345,5.2158,5.2229,5.2344,5.1939,5.1111,5.1434,5.1162,5.0358,0.0,0.0,0.0,0.0,5.3037,5.278,5.4078,5.4654,5.4296,5.3981,5.3794,5.3794,5.3794,5.3794,5.3794,5.3794,5.3794,5.3794,5.3794,0.0,0.0,0.0,0.0,0.0,0.0,0.0,0.0,0.0,0.0,0.0,0.0,0.0,0.0,0.0,0.0,0.0,0.0,0.0,5.495,5.4984,5.5094,0.0,0.0,0.0,0.0,0.0,0.0,0.0,0.0,0.0,6.005,6.029,6.024,0.0,0.0,6.0555,6.0481,6.0333,6.0667,6.1744,6.2138,0.0,6.3185,6.3453,6.3713,6.4056,6.519,6.6149,6.6464,6.6596,6.6503,6.6093,6.5931,6.5804,6.5804,6.5931,6.626,6.6998,6.7511,6.8027,6.8528,6.9204,6.9593,5.3719,5.3499,5.2306,5.2207,5.2819,5.2679,5.3051,5.3757,5.2974,5.2153,5.1295,5.0223,4.9294,4.8466,4.8138,0.0,0.0,0.0,5.038,5.1232,5.1343,5.1676,5.2085,5.1639,5.1379,5.1453,5.1728,5.1378,5.0422,5.1054,5.085,4.9948,0.0,5.0462,5.0374,5.1676,5.2335,5.2389,5.3543,5.4091,5.4088,5.3907,5.3794,5.3794,5.3794,5.3794,5.3794,5.3794,5.3794,5.3794,5.3794,5.3717,0.0,0.0,0.0,0.0,0.0,0.0,0.0,0.0,0.0,0.0,0.0,5.3794,5.3794,0.0,0.0,0.0,5.3794,5.4129,5.495,5.4724,0.0,0.0,0.0,0.0,0.0,0.0,0.0,5.8826,5.8614,5.8702,5.9334,5.943,5.9499,5.9632,6.0115,6.011,5.9292,0.0,6.0178,6.0818,6.1767,6.2591,6.326,6.3394,6.3676,6.4651,6.5331,6.6024,6.646,6.6495,6.636,6.5911,6.5804,6.5804,6.5804,6.5804,6.6025,6.6825,6.7252,6.7572,6.8026,6.8516,6.8908,5.4465,5.3683,5.2479,5.2223,5.2679,5.2568,5.2976,5.3533,5.1669,5.1256,5.1621,4.9172,4.8429,4.8972,4.8279,0.0,4.9086,4.9481,5.0078,5.0777,5.112,5.1268,5.1268,5.1231,5.1193,5.1193,5.154,5.1095,5.004,5.0621,5.0392,4.9384,4.9884,5.0038,4.9868,5.0665,5.1328,5.1785,5.2682,5.3337,5.3794,5.3794,5.3794,5.3794,5.3794,5.3794,5.3794,5.3756,5.3756,5.3831,5.3756,5.36,5.3318,0.0,0.0,0.0,0.0,0.0,0.0,0.0,0.0,0.0,0.0,0.0,0.0,0.0,0.0,5.3794,5.3868,0.0,5.4911,5.439,0.0,0.0,0.0,5.58,5.7323,5.8215,5.8442,5.7664,0.0,0.0,5.8809,5.8698,5.9223,6.0762,6.1027,6.0725,5.9924,5.9733,5.99,6.0481,6.1485,6.2369,6.2909,6.3053,6.345,6.4457,6.4737,6.526,6.6181,6.6431,6.626,6.5875,6.5804,6.5804,6.5804,6.5804,6.6046,6.6717,6.7349,6.7888,6.7962,6.8091,6.8385,5.398,5.3757,5.3461,5.3386,5.3422,5.2599,5.2336,5.237,5.1092,5.0107,4.9495,4.881,4.8164,4.7519,4.7601,4.7729,4.7946,4.8903,4.9431,4.9614,4.9929,5.0082,5.0082,4.9675,4.9485,4.9485,4.9589,4.9477,4.9222,4.9583,4.954,4.9061,4.9408,4.9637,4.9841,5.0665,5.1328,5.1785,5.2682,5.3337,5.3757,5.3794,5.3794,5.3794,5.3794,5.3794,5.3794,5.3561,5.3561,5.3756,5.3281,5.3109,5.3281,5.3281,0.0,0.0,0.0,0.0,0.0,0.0,0.0,0.0,0.0,5.3794,5.3794,0.0,5.3794,0.0,5.4348,5.4793,5.4979,5.5426,0.0,0.0,5.6803,5.7063,5.7472,5.8215,5.8624,5.8438,5.8772,5.8916,5.8735,5.8433,5.8471,5.9223,5.9297,5.9223,5.8995,5.8702,5.9132,6.0589,6.0834,6.1153,6.265,6.3272,6.3631,6.4137,6.4746,6.5347,6.5875,6.5946,6.5911,6.5804,6.5804,6.5804,6.5804,6.5804,6.5839,6.6082,6.6203,6.656,6.7088,6.7676,6.8135,5.3273,5.3236,5.3122,5.2823,5.249,5.2223,5.1805,5.1238,5.0101,4.9082,4.8114,4.7277,4.6693,4.6488,4.6641,4.6773,4.6809,4.791,4.826,4.7938,4.8378,4.8789,4.9084,4.8233,4.8187,4.889,4.8558,4.8558,4.889,4.9094,4.9094,4.889,4.9094,4.9252,4.9439,4.989,5.0434,5.1065,5.2258,5.3011,5.3237,5.3608,5.3645,5.3311,5.3608,5.3569,5.3082,5.3216,5.34,5.3561,5.3235,5.3023,5.3066,5.3066,5.2937,0.0,0.0,0.0,0.0,0.0,0.0,0.0,0.0,0.0,0.0,0.0,5.3943,5.4278,5.4758,5.5121,5.5566,5.6017,5.658,5.7286,5.7311,5.7481,5.8301,5.8238,5.8208,5.8206,5.8211,5.8211,5.8211,5.8021,5.7956,5.816,5.8201,5.828,5.8486,5.8954,5.9715,6.0283,6.0943,6.1491,6.2369,6.2618,6.2964,6.3633,6.4153,6.4721,6.5661,6.5804,6.5804,6.5804,6.5804,6.5804,6.5804,6.5804,6.5804,6.5804,6.5804,6.5982,6.641,6.676,6.7147,5.2381,5.2307,5.2038,5.144,5.0662,5.136,5.1087,5.0101,4.8887,4.7883,4.7017,4.5344,4.4991,4.5614,4.5633,4.5641,4.5677,4.6665,4.6765,4.6163,4.6722,4.739,4.8053,4.7013,4.7225,4.8556,4.7893,4.7967,4.8742,4.8742,4.8816,4.889,4.889,4.889,4.889,4.889,4.9336,5.019,5.1788,5.2605,5.2605,5.3385,5.346,5.2828,5.3423,5.3306,5.2324,5.2909,5.3235,5.3235,5.3151,5.2987,5.2725,5.2717,5.2581,0.0,5.2268,0.0,0.0,0.0,0.0,0.0,0.0,0.0,0.0,5.3719,5.4092,5.495,5.4981,5.538,5.6376,5.6422,5.6982,5.8392,5.7604,5.7491,5.8897,5.8213,5.7554,5.7587,5.7555,5.7592,5.7611,5.758,5.7528,5.7618,5.7571,5.7618,5.8015,5.9448,6.0231,5.9454,6.1339,6.2324,6.1774,6.1699,6.2057,6.2976,6.3351,6.3882,6.529,6.5575,6.564,6.5675,6.5611,6.564,6.5633,6.5668,6.564,6.5611,6.5604,6.5633,6.5839,6.6018,6.6161,5.108,5.0831,5.1032,5.0391,4.9119,4.9264,4.9227,4.888,4.7124,4.5873,4.5122,4.4749,4.4657,4.4827,4.4836,4.4856,4.4856,4.5043,4.5222,4.5328,4.5727,4.6066,4.6433,4.6496,4.6632,4.6958,4.678,4.7151,4.7924,4.7924,4.8259,4.889,4.889,4.889,4.889,0.0,0.0,0.0,5.1751,5.2605,5.2642,5.3385,5.372,5.3571,5.372,0.0,5.3097,5.295,5.2893,5.2893,5.2351,0.0,0.0,0.0,0.0,0.0,0.0,0.0,0.0,0.0,0.0,0.0,5.2937,5.298,5.3023,5.3259,5.3831,5.4874,5.4981,5.5643,5.7085,5.6953,5.7162,5.8083,5.7507,5.7291,5.785,5.7473,5.7279,5.758,5.7591,5.7619,5.7521,5.7329,5.7261,5.7478,5.7298,5.7165,5.7188,5.8151,5.9001,5.9765,6.1105,6.1715,6.1306,6.12,6.1474,6.2284,6.2826,6.3341,6.4277,6.4702,6.4911,6.4911,6.4911,6.4972,6.4941,6.4928,6.5014,6.4911,6.4959,6.507,6.5697,6.6296,6.6825,4.961,4.9834,4.9789,4.8883,0.0,4.732,4.7016,4.6621,4.6052,4.5134,4.4057,4.3636,4.3698,4.4078,4.4049,4.4071,4.4071,4.4464,4.4514,4.4324,4.4771,4.5259,4.5773,4.5426,4.57,4.6475,4.6067,4.6327,4.707,4.7107,4.7516,4.8296,4.8296,4.8519,4.889,4.889,4.9113,4.9522,5.0748,5.1565,5.2011,5.2791,5.32,5.3237,5.3417,0.0,0.0,0.0,0.0,0.0,0.0,0.0,0.0,5.217,0.0,5.1987,5.2138,5.2257,5.2257,5.2257,5.2257,5.2257,5.2257,5.2434,5.2772,5.3097,5.372,5.4651,5.5275,5.6034,5.7081,5.7279,5.7391,5.7569,5.7116,5.6861,5.7,5.6897,5.6793,5.6933,5.6984,5.7009,5.7011,5.6885,5.6759,5.6957,5.6885,5.6706,5.6814,5.7722,5.8885,6.0046,6.0684,6.1034,6.0927,6.0725,6.1058,6.2034,6.2175,6.274,6.4148,6.4215,6.4287,6.4568,6.4706,6.4669,6.47,6.4738,6.4741,6.4878,6.4835,6.4893,6.5409,6.5882,6.6268,4.7868,4.8356,4.8134,4.7277,4.6002,4.5702,4.5142,4.4464,4.5142,0.0,0.0,4.2602,4.2691,4.3274,4.3292,4.3286,4.3322,4.3929,4.3857,4.337,4.3785,4.4453,4.5187,4.4354,4.4692,4.5992,4.5388,4.5574,4.6475,4.6513,4.6995,4.785,4.7924,4.8259,4.8853,4.889,4.889,4.8927,4.9707,5.0525,5.1379,5.2197,5.2679,5.2828,5.3111,5.2821,5.1777,5.2045,5.2137,5.209,5.2149,5.2076,5.2123,5.2112,5.2006,5.1722,5.1708,5.1708,5.1708,5.1708,5.1708,5.1708,5.1708,5.1979,5.2676,5.2987,5.3561,5.4352,5.5225,5.5948,5.6645,5.6842,5.6988,5.6891,5.6492,5.6257,5.6311,5.6237,5.6182,5.6221,5.624,5.6276,5.6311,5.6347,5.6347,5.6383,5.6418,5.647,5.6684,5.7747,5.9078,6.0228,6.0554,6.0522,6.0468,6.0309,6.0651,6.1615,6.1539,6.2088,6.3483,6.3846,6.3892,6.4358,6.4498,6.4498,6.4462,6.4428,6.4603,6.4845,6.474,6.4601,6.4908,6.5004,6.5247,4.5436,4.5287,4.5498,4.5306,4.4828,4.4785,4.4357,4.3679,4.3786,4.3322,4.2465,4.2358,4.2364,4.2471,4.243,4.2465,4.2465,4.2573,4.2701,4.2832,4.2912,4.325,4.3858,4.3717,4.3881,4.4321,4.4246,4.4989,4.6364,4.6513,4.7256,4.8556,4.8742,4.8779,4.889,4.889,4.889,4.8927,4.9745,5.0599,5.1379,5.2197,5.294,5.3608,5.3407,5.3078,5.2623,5.2335,5.2078,5.1772,5.1772,5.1772,5.1772,5.1736,5.1772,5.1672,5.1708,5.1708,5.1708,5.1708,5.1708,5.1708,5.1708,5.1865,5.2265,5.2628,5.3208,5.3973,5.3756,5.4122,5.5641,5.5023,5.4937,5.5971,5.5636,5.5319,5.5613,5.5437,5.5391,5.5664,5.5632,5.5738,5.5933,5.5988,5.6078,5.6311,5.6344,5.6553,5.7035,5.7753,5.8875,6.0118,6.032,6.0235,6.0192,6.0133,6.0233,6.0375,6.115,6.1639,6.2364,6.2979,6.3535,6.3747,6.3785,6.382,6.3781,6.3747,6.3892,6.393,6.3903,6.3939,6.4253,6.4357,6.446,4.4402,4.4605,4.4749,4.4485,4.4,4.3536,4.3179,4.2858,4.2858,4.2644,4.2323,4.2287,4.2287,4.2287,4.2287,4.2287,4.2287,4.2287,4.2369,4.2494,4.2652,4.2846,4.3105,4.3309,4.3545,4.3795,4.4247,4.4905,4.5844,4.6252,4.707,4.8221,4.8704,4.8667,4.8296,4.8704,4.8887,4.8922,4.978,5.049,5.1043,5.1894,5.2629,5.324,5.29,5.2599,5.2499,5.2126,5.1871,5.1672,5.1708,5.1708,5.1708,5.1708,5.1708,5.1708,5.1708,5.1708,5.1708,5.1708,5.1708,5.1708,5.1708,5.1744,5.1937,5.2273,5.257,5.281,5.299,5.3671,5.4794,5.4418,5.4535,5.561,5.5259,5.5053,5.5234,5.5294,5.5308,5.5482,5.5504,5.5588,5.5683,5.5688,5.5735,5.5922,5.6219,5.6752,5.7377,5.7911,5.8597,5.9487,5.9726,5.9839,5.9844,5.9627,5.9665,6.007,6.022,6.0836,6.1734,6.2488,6.2729,6.3388,6.36,6.36,6.36,6.36,6.3673,6.3823,6.3684,6.3759,6.4004,6.3962,6.427,4.3549,4.4078,4.4085,4.375,4.3179,4.2573,4.2287,4.2287,4.2287,4.2287,4.2287,4.2287,4.2287,4.2287,4.2287,4.2287,4.2287,4.2287,4.2287,4.2328,4.2534,4.2652,4.2732,4.3032,4.3351,4.3634,4.4297,4.4912,4.5551,4.6215,4.6921,4.7701,4.8519,4.8519,4.7738,4.8667,4.9148,4.9142,5.008,5.0786,5.1103,5.161,5.2139,5.2607,5.2232,5.1994,5.1994,5.1687,5.1521,5.1607,5.1607,5.1622,5.1708,5.1708,5.1708,5.1708,5.1708,5.1708,5.1708,5.1708,5.1708,5.1708,5.1708,5.1708,5.1708,5.1937,5.1992,5.1896,5.258,5.3207,5.3549,5.3809,5.4279,5.4909,5.4948,5.4869,5.493,5.5113,5.5294,5.5294,5.5294,5.5288,5.5348,5.5354,5.553,5.5859,5.6255,5.6886,5.7751,5.8258,5.8532,5.891,5.9289,5.9439,5.945,5.9251,5.9288,5.9874,5.9806,6.0531,6.1734,6.186,6.2272,6.3353,6.36,6.36,6.36,6.36,6.3673,6.3858,6.375,6.3712,6.3895,6.3993,6.426,4.2471,4.2507,4.2614,4.2465,4.243,4.2323,4.2287,4.2287,4.2287,4.2287,4.2287,4.2287,4.2287,4.2287,4.2287,4.2287,4.2287,4.2287,4.2287,4.2287,4.2328,4.2454,4.2729,4.3032,4.3356,4.3597,4.3943,4.4893,4.6257,4.6475,4.6921,4.7701,4.8519,4.8481,4.7924,4.9224,4.9854,4.9591,5.1118,5.1956,5.1944,5.1486,5.1547,5.2309,5.1764,5.15,5.15,5.1123,5.1052,5.1298,5.135,5.1454,5.1658,5.1708,5.1708,5.1708,5.1708,5.1708,5.1708,5.1708,5.1708,5.1708,5.1708,5.1708,5.1708,5.1708,5.1758,5.1758,5.1899,5.2072,5.2218,5.2614,5.3182,5.3775,5.4275,5.4557,5.4557,5.4557,5.4557,5.4557,5.4683,5.4661,5.4966,5.5085,5.5425,5.6071,5.6396,5.6955,5.7901,5.838,5.8553,5.8905,5.9012,5.908,5.9081,5.9012,5.9081,5.9288,6.0254,6.0947,6.153,6.2492,6.3496,6.3353,6.36,6.36,6.36,6.36,6.36,6.3673,6.3673,6.36,6.3742,6.4157,6.4675,4.2287,4.2287,4.2287,4.2287,4.2287,4.2287,4.2287,4.2287,4.2287,4.2287,4.2287,4.2287,4.2287,4.2287,4.2287,4.2287,4.2287,4.2287,4.2287,4.2287,4.2287,4.2369,4.2454,4.2573,4.2806,4.3142,4.3725,4.4745,4.6091,4.6891,4.7144,4.707,4.7776,4.7673,4.6942,4.8933,4.9819,4.9373,5.0765,5.1665,5.1886,5.167,5.149,5.1378,5.1192,5.107,5.1035,5.091,5.0946,5.1298,5.1298,5.1454,5.1708,5.1708,5.1708,5.1708,5.1708,5.1708,5.1708,5.1708,5.1708,5.1708,5.1708,5.1708,5.1708,5.1708,5.1637,5.1479,5.1276,5.1369,5.1687,5.2136,5.2701,5.3506,5.4143,5.4494,5.4494,5.4494,5.4494,5.4494,5.4494,5.4529,5.4632,5.473,5.4868,5.5479,5.6021,5.6967,5.75,5.8219,5.8803,5.8909,5.9012,5.9012,5.9012,5.9012,5.9012,5.915,5.9909,6.067,6.1387,6.2105,6.3004,6.3531,6.36,6.36,6.36,6.36,6.36,6.36,6.36,6.36,6.36,6.4186,6.4594,4.2287,4.2287,4.2287,4.2287,4.2287,4.2287,4.2287,4.2287,4.2287,4.2287,4.2287,4.2287,4.2287,4.2287,4.2287,4.2287,4.2287,4.2287,4.2287,4.2287,4.2287,4.2394,4.2608,4.2731,4.2817,4.3087,4.3749,4.4562,4.5589,4.6613,4.6718,4.6163,4.694,4.6909,4.6287,4.8716,4.9861,4.9489,5.0617,5.1392,5.1492,5.1475,5.1192,5.0749,5.0585,5.0564,5.053,5.0564,5.0784,5.1105,5.1158,5.135,5.1708,5.1708,5.1708,5.1708,5.1708,5.1708,5.1708,5.1708,5.1708,5.1708,5.1708,5.1708,5.1672,5.1637,5.1444,5.118,5.0854,5.0894,5.1211,5.1913,5.2681,5.3324,5.397,5.4494,5.4494,5.4494,5.4494,5.4494,5.4494,5.4494,5.4529,5.4529,5.473,5.5312,5.6146,5.7049,5.7398,5.8359,5.8978,5.9012,5.9012,5.9012,5.9012,5.9012,5.9012,5.9288,5.9806,6.0808,6.1307,6.2101,6.2867,6.3565,6.36,6.36,6.36,6.36,6.36,6.36,6.36,6.36,6.36,6.4358,6.4966,4.2287,4.2287,4.2287,4.2287,4.2287,4.2287,4.2287,4.2287,4.2287,4.2287,4.2287,4.2287,4.2287,4.2287,4.2287,4.2287,4.2287,4.2287,4.2287,4.2287,4.2323,4.2715,4.3429,4.3724,4.3772,4.3592,4.3899,4.4234,4.4528,4.5296,4.5296,4.4638,4.6064,4.6428,4.617,4.8766,5.0138,4.9858,5.1004,5.1438,5.0898,5.0641,5.0509,5.0397,5.0149,5.0034,5.0068,5.0068,5.032,5.0803,5.0803,5.1105,5.1622,5.1708,5.1708,5.1708,5.1708,5.1708,5.1708,5.1708,5.1708,5.1708,5.1708,5.1708,5.1622,5.1479,5.1215,5.0845,5.0624,5.0506,5.0702,5.179,5.2473,5.2502,5.3639,5.4425,5.4494,5.4494,5.4494,5.4494,5.4494,5.4494,5.4494,5.4494,5.5104,5.5992,5.669,5.7118,5.822,5.8772,5.9012,5.9012,5.9012,5.9012,5.9012,5.9012,5.9012,5.9392,6.0255,6.1294,6.1769,6.2341,6.3073,6.3565,6.36,6.36,6.36,6.36,6.36,6.36,6.36,6.36,6.3846,6.4945,6.5585,4.2287,4.2287,4.2287,4.2287,4.2287,4.2287,4.2287,4.2287,4.2287,4.2287,4.2287,4.2287,4.2287,4.2287,4.2287,4.2287,4.2287,4.2287,4.2287,4.2358,4.2822,4.2965,4.2828,4.334,4.3345,4.2956,4.2965,4.3087,4.3427,4.4343,4.4418,4.4017,4.522,4.5763,4.5932,4.8675,5.0022,4.9458,5.0748,5.1229,5.0622,5.0264,5.0149,5.0149,5.0034,5.0011,5.0011,5.0011,5.0149,5.0564,5.0694,5.0982,5.1393,5.1637,5.1708,5.1708,5.1708,5.1708,5.1708,5.1708,5.1708,5.1708,5.1708,5.1607,5.147,5.1343,5.1114,5.0647,5.0488,5.0506,5.098,5.18,5.2373,5.2454,5.3547,5.4494,5.4494,5.4494,5.4494,5.4494,5.4494,5.4494,5.4494,5.4494,5.473,5.5277,5.618,5.7015,5.7603,5.8359,5.9012,5.9012,5.9012,5.9012,5.9012,5.9012,5.915,5.9806,6.0635,6.143,6.2113,6.2798,6.3531,6.36,6.36,6.36,6.36,6.36,6.36,6.36,6.36,6.395,6.4231,6.5296,6.6006,4.2287,4.2287,4.2287,4.2287,4.2287,4.2287,4.2287,4.2287,4.2287,4.2287,4.2287,4.2287,4.2287,4.2287,4.2287,4.2287,4.2287,4.2287,4.2287,4.2323,4.2858,4.2965,4.2822,4.3251,4.3215,4.2715,4.2394,4.2409,4.2609,4.3348,4.3389,4.3027,4.4729,4.5369,4.5606,4.8504,4.9826,4.9337,5.0326,5.0854,5.0426,5.0114,5.0011,5.0011,5.0011,5.0011,5.0011,5.0011,5.0092,5.0341,5.0564,5.0875,5.1241,5.1551,5.1708,5.1708,5.1708,5.1708,5.1708,5.1708,5.1708,5.1672,5.1607,5.1505,5.135,5.1138,5.084,5.0484,5.0285,5.0506,5.106,5.177,5.2317,5.2638,5.3719,5.4494,5.4494,5.4494,5.4494,5.4494,5.4494,5.4494,5.4494,5.4494,5.4799,5.5104,5.6245,5.6842,5.7535,5.8222,5.9012,5.9012,5.9012,5.9012,5.9012,5.9012,5.9323,6.0013,6.0703,6.1562,6.2393,6.3117,6.3565,6.36,6.36,6.36,6.36,6.36,6.36,6.36,6.3915,6.4265,6.4853,6.5579,6.629,4.2287,4.2246,4.2287,4.2287,4.2287,4.2287,4.2287,4.2287,4.2287,4.2287,4.2287,4.2287,4.2287,4.2287,4.2287,4.2287,4.2287,4.2287,4.2287,4.2323,4.243,4.2787,4.3286,4.3429,4.3429,4.3215,4.2644,4.2287,4.2328,4.244,4.2481,4.2792,4.4621,4.5336,4.4678,4.814,4.967,4.9257,4.9975,5.0446,5.0368,5.0114,5.0011,5.0011,5.0011,5.0011,5.0011,5.0011,5.0092,5.0285,5.0397,5.0675,5.1263,5.1521,5.1708,5.1708,5.1708,5.1708,5.1708,5.1708,5.1708,5.1658,5.1454,5.135,5.1211,5.0788,5.0433,5.0375,5.0215,5.031,5.1094,5.1795,5.2472,5.3312,5.4023,5.4494,5.4494,5.4494,5.4494,5.4494,5.4494,5.4494,5.4494,5.4494,5.4903,5.5992,5.6685,5.7251,5.8255,5.8772,5.8978,5.9012,5.9012,5.9012,5.9012,5.9047,5.9495,6.0048,6.0765,6.1581,6.2385,6.3039,6.3531,6.36,6.36,6.36,6.388,6.388,6.3811,6.388,6.4231,6.4645,6.5221,6.5911,6.6635,4.1718,4.1796,4.2163,4.2287,4.2287,4.2287,4.2287,4.2287,4.2287,4.2287,4.2287,4.2287,4.2287,4.2287,4.2287,4.2287,4.2287,4.2287,4.2287,4.2358,4.2858,4.2894,4.2822,4.3251,4.3215,4.2715,4.243,4.2287,4.2287,4.2287,4.2537,4.3286,4.4357,4.5142,4.5526,4.7926,4.9043,4.8837,4.9791,5.0298,5.0138,5.0045,5.0011,5.0011,5.0011,5.0011,5.0011,5.0011,5.0034,5.0149,5.032,5.0675,5.1211,5.1414,5.1479,5.1672,5.1708,5.1708,5.1708,5.1708,5.1708,5.1658,5.1454,5.1193,5.0964,5.0627,5.032,5.0181,5.0092,5.0472,5.1592,5.2001,5.254,5.3347,5.4023,5.4494,5.4494,5.4494,5.4494,5.4494,5.4494,5.4494,5.4494,5.4494,5.4903,5.5859,5.6457,5.7256,5.8049,5.8772,5.8978,5.9012,5.9012,5.9012,5.9012,5.9047,5.9357,5.9979,6.0664,6.1581,6.238,6.3004,6.3462,6.36,6.36,6.3669,6.395,6.3984,6.388,6.4161,6.4546,6.4985,6.5482,6.6239,6.704,4.122,4.1265,4.1578,4.1874,4.2002,4.2002,4.2086,4.2287,4.2287,4.2287,4.2287,4.2287,4.2287,4.2287,4.2287,4.2287,4.2287,4.2287,4.2287,4.2358,4.2787,4.2751,4.2358,4.2787,4.2822,4.2394,4.2287,4.2287,4.2287,4.2323,4.2715,4.35,4.4535,4.5419,4.6209,4.8098,4.9047,4.899,4.9729,5.0149,5.0068,5.0011,5.0011,5.0011,5.0011,5.0011,5.0011,5.0011,5.0011,5.0011,5.0275,5.0614,5.1052,5.1241,5.1408,5.1637,5.1708,5.1708,5.1708,5.1708,5.1658,5.1521,5.1263,5.0999,5.0694,5.0425,5.0181,5.0034,5.0276,5.0921,5.1968,5.2516,5.3009,5.3719,5.4224,5.4494,5.4494,5.4494,5.4494,5.4494,5.4494,5.4494,5.4494,5.4529,5.4948,5.5809,5.6469,5.7259,5.8015,5.8703,5.8875,5.9012,5.9012,5.9012,5.9012,5.9081,5.9185,5.984,6.06,6.149,6.2385,6.3078,6.36,6.36,6.36,6.36,6.3846,6.3811,6.3669,6.4231,6.4789,6.5331,6.5937,6.6833,6.7601,4.0747,4.0741,4.0802,4.1128,4.1534,4.1578,4.1874,4.2246,4.2287,4.2287,4.2287,4.2287,4.2287,4.2287,4.2287,4.2287,4.2287,4.2287,4.2287,4.2287,4.2394,4.2323,4.2323,4.2394,4.2394,4.2287,4.2287,4.2323,4.2501,4.2501,4.2858,4.4036,4.5285,4.6184,4.705,4.8729,4.945,4.9229,4.9734,4.9976,5.0011,5.0011,5.0011,5.0011,5.0011,5.0011,5.0011,5.0011,5.0011,5.0045,5.0241,5.0493,5.0838,5.1102,5.1343,5.1622,5.1708,5.1708,5.1708,5.1708,5.1622,5.1402,5.1052,5.0694,5.0509,5.0228,5.0034,5.0045,5.061,5.1321,5.2118,5.2843,5.3616,5.4293,5.4494,5.4494,5.4494,5.4494,5.4494,5.4494,5.4494,5.4494,5.4494,5.4494,5.5262,5.6301,5.6748,5.7432,5.8428,5.8944,5.8978,5.9012,5.9012,5.9012,5.9012,5.9426,5.9598,5.9944,6.067,6.1601,6.2282,6.3009,6.36,6.36,6.36,6.36,6.3669,6.3703,6.395,6.4512,6.5026,6.5642,6.6393,6.729,6.7673,4.0202,4.0269,4.0659,4.1082,4.149,4.1534,4.1796,4.2287,4.2287,4.2287,4.2287,4.2287,4.2287,4.2287,4.2287,4.2287,4.2287,4.2287,4.2287,4.2287,4.2287,4.2287,4.2287,4.2287,4.2287,4.2287,4.2358,4.2608,4.3144,4.3179,4.4143,4.6034,4.6355,4.7215,4.8311,4.9222,4.9485,4.9298,4.9711,5.0011,5.0011,5.0011,5.0011,5.0011,5.0011,5.0011,5.0011,5.0011,5.0011,5.0011,5.0276,5.0528,5.0784,5.0893,5.1209,5.1571,5.1556,5.1505,5.1658,5.1708,5.1658,5.1556,5.1105,5.0784,5.0729,5.0263,5.0068,5.0114,5.0645,5.145,5.2158,5.2946,5.3719,5.4328,5.4494,5.4494,5.4494,5.4494,5.4494,5.4494,5.4494,5.4494,5.4494,5.4598,5.509,5.6336,5.6919,5.7295,5.8497,5.9012,5.9012,5.9012,5.9012,5.9012,5.9116,5.9633,5.9978,6.0289,6.0982,6.1847,6.2358,6.2798,6.3285,6.36,6.36,6.36,6.388,6.4019,6.4369,6.4616,6.5273,6.5931,6.6704,6.7443,6.7557,3.9687,3.9747,4.0054,4.0563,4.1174,4.122,4.1622,4.2205,4.2287,4.2287,4.2287,4.2287,4.2287,4.2287,4.2287,4.2287,4.2287,4.2287,4.2287,4.2287,4.2287,4.2287,4.2287,4.2287,4.2287,4.2358,4.2644,4.3072,4.35,4.3786,4.5106,4.6534,4.6998,4.7773,4.9113,4.9486,4.9622,4.9604,4.9861,5.0011,5.0011,5.0011,5.0011,5.0011,5.0011,5.0011,5.0011,5.0011,5.0011,5.0045,5.0172,5.0367,5.0749,5.0841,5.1102,5.1637,5.1521,5.1556,5.1658,5.1708,5.1658,5.147,5.1017,5.0749,5.0564,5.0263,5.0011,5.0045,5.091,5.1666,5.2289,5.3181,5.3989,5.446,5.4494,5.4494,5.4494,5.4494,5.4494,5.4494,5.4494,5.4494,5.4494,5.4494,5.5327,5.6299,5.6816,5.7638,5.8668,5.8806,5.9012,5.9012,5.9012,5.9012,5.9253,5.9702,6.0358,6.0669,6.143,6.226,6.2637,6.2935,6.325,6.36,6.36,6.3634,6.388,6.4053,6.4265,6.465,6.5417,6.6208,6.6945,6.7616,6.757,3.9288,3.9342,3.9362,3.9952,4.0754,4.0896,4.149,4.2205,4.2287,4.2287,4.2287,4.2287,4.2287,4.2287,4.2287,4.2287,4.2287,4.2287,4.2287,4.2287,4.2287,4.2358,4.2573,4.2573,4.2573,4.2644,4.3251,4.3679,4.4107,4.4607,4.5749,4.7176,4.7451,4.8232,4.9538,4.9837,4.9861,4.9919,4.9942,5.0011,5.0011,5.0011,5.0011,5.0011,5.0011,5.0011,5.0011,5.0011,5.0011,5.0011,5.0045,5.0354,5.0749,5.0803,5.1094,5.1551,5.1622,5.1607,5.1708,5.1708,5.1571,5.1402,5.1052,5.0694,5.0509,5.0206,5.008,5.0276,5.1408,5.2131,5.2763,5.3754,5.4293,5.4494,5.4494,5.4494,5.4494,5.4494,5.4494,5.4494,5.4494,5.4494,5.4494,5.4632,5.5081,5.6466,5.6917,5.7604,5.8428,5.8875,5.9012,5.9012,5.9012,5.9012,5.9357,5.9771,6.0494,6.1109,6.2079,6.2841,6.3155,6.3353,6.3496,6.36,6.36,6.36,6.3634,6.388,6.4019,6.4749,6.5659,6.6298,6.703,6.768,6.793,3.9288,3.9309,3.9696,4.022,4.0802,4.1185,4.1709,4.2287,4.2287,4.2287,4.2287,4.2287,4.2287,4.2287,4.2287,4.2287,4.2287,4.2287,4.2287,4.2287,4.2287,4.2715,4.3108,4.3251,4.3251,4.3429,4.4036,4.4678,4.5285,4.6034,4.7247,4.852,4.9017,4.9745,5.033,5.027,5.0167,5.0034,5.0011,5.0011,5.0011,5.0011,5.0011,5.0011,5.0011,5.0011,5.0011,5.0011,5.0011,5.0045,5.0172,5.0402,5.0714,5.0786,5.1043,5.1465,5.1505,5.1505,5.1658,5.1708,5.1672,5.1556,5.1105,5.0749,5.0694,5.0263,5.0334,5.0807,5.1709,5.2666,5.3708,5.4224,5.4494,5.4494,5.4494,5.4494,5.4494,5.4494,5.4494,5.4494,5.4494,5.4494,5.4494,5.4494,5.5219,5.6429,5.712,5.7569,5.8187,5.8944,5.9012,5.9012,5.9012,5.9047,5.9323,5.9979,6.108,6.1762,6.2626,6.3181,6.3496,6.36,6.36,6.36,6.36,6.36,6.36,6.3669,6.3915,6.4853,6.5862,6.6574,6.7192,6.7789,6.792,3.9415,3.9644,3.9919,4.0431,4.1128,4.1401,4.1796,4.2246,4.2287,4.2287,4.2287,4.2287,4.2287,4.2287,4.2287,4.2287,4.2287,4.2287,4.2287,4.2394,4.2644,4.3108,4.3643,4.4178,4.4464,4.425,4.4821,4.5427,4.5998,4.6998,4.8104,4.9233,4.9841,4.9941,5.0311,5.0355,4.9985,4.962,4.9838,5.0011,5.0011,5.0011,5.0011,5.0011,5.0011,5.0011,5.0011,5.0011,5.0011,5.0045,5.0172,5.0345,5.0564,5.0611,5.0858,5.1192,5.1315,5.135,5.1505,5.1571,5.1622,5.1505,5.1052,5.0838,5.0564,5.0206,5.0403,5.099,5.182,5.2777,5.4287,5.4494,5.4494,5.4494,5.4494,5.4494,5.4494,5.4494,5.4494,5.4494,5.4494,5.4494,5.4494,5.4494,5.5288,5.6495,5.6814,5.7295,5.8428,5.9012,5.9012,5.9012,5.9012,5.9116,5.9357,6.0254,6.1734,6.2454,6.3181,6.3388,6.3565,6.36,6.36,6.36,6.36,6.36,6.36,6.3669,6.4042,6.5214,6.6144,6.6764,6.7387,6.7928,6.7814,3.954,4.002,4.012,4.0672,4.1445,4.1622,4.1881,4.2246,4.2287,4.2287,4.2287,4.2287,4.2287,4.2287,4.2287,4.2287,4.2287,4.2287,4.2287,4.2358,4.3072,4.35,4.4,4.4856,4.5463,4.5071,4.5677,4.6034,4.6462,4.7497,4.8592,4.9328,5.0019,5.0206,5.0047,5.0006,4.9743,4.9136,4.9229,4.9539,4.9677,4.9711,4.978,5.0011,5.0011,5.0011,5.0011,5.0011,5.0011,5.0011,5.0011,5.0092,5.0285,5.0384,5.055,5.0803,5.1052,5.1158,5.1211,5.1367,5.1418,5.1246,5.0946,5.0675,5.0397,5.0436,5.0703,5.1346,5.2218,5.3238,5.4328,5.4494,5.4494,5.4494,5.4494,5.4494,5.4494,5.4494,5.4494,5.4494,5.4494,5.4494,5.4494,5.4563,5.5495,5.6357,5.6677,5.7227,5.8393,5.9012,5.9012,5.9012,5.9012,5.9667,5.9979,6.0318,6.1865,6.2871,6.36,6.36,6.36,6.36,6.36,6.36,6.36,6.36,6.36,6.3634,6.4318,6.5465,6.6298,6.6911,6.7547,6.8065,6.7645,3.9592,4.007,4.0514,4.1001,4.1534,4.1959,4.2169,4.2287,4.2287,4.2287,4.2287,4.2287,4.2287,4.2287,4.2287,4.2287,4.2287,4.2287,4.2323,4.2501,4.3215,4.3822,4.4607,4.5427,4.6034,4.6534,4.6748,4.6783,4.714,4.8282,4.9007,4.9309,5.0342,5.077,5.013,4.9806,4.9326,4.8665,4.8483,4.8552,4.8919,4.9103,4.9447,4.9907,5.0011,5.0011,5.0011,5.0011,5.0011,5.0011,5.0011,5.0011,5.0092,5.0272,5.0495,5.0694,5.0838,5.0892,5.0946,5.091,5.091,5.0838,5.0675,5.0544,5.048,5.0714,5.1176,5.2112,5.3107,5.419,5.446,5.4494,5.4494,5.4494,5.4494,5.4494,5.4494,5.4494,5.4494,5.4494,5.4494,5.4494,5.4494,5.4667,5.5455,5.6219,5.6677,5.7501,5.8668,5.9012,5.9012,5.9012,5.9012,5.9943,6.0773,6.1114,6.1855,6.3009,6.36,6.36,6.36,6.36,6.36,6.36,6.36,6.36,6.36,6.3634,6.4318,6.5336,6.6178,6.7031,6.733,6.7658,6.7368,3.9747,4.0417,4.0707,4.122,4.1881,4.2205,4.2287,4.2287,4.2287,4.2287,4.2287,4.2287,4.2287,4.2287,4.2287,4.2287,4.2287,4.2287,4.2501,4.2965,4.3714,4.45,4.5213,4.6034,4.6534,4.7033,4.7354,4.7568,4.7711,4.871,4.935,4.9827,5.0767,5.0823,5.0041,4.9493,4.8875,4.8377,4.7898,4.7864,4.823,4.8552,4.9229,4.9746,5.0011,5.0011,5.0011,5.0011,5.0011,5.0011,5.0011,5.0011,5.0034,5.0149,5.025,5.0397,5.0509,5.062,5.0585,5.0694,5.0784,5.062,5.0488,5.0528,5.0749,5.1072,5.1696,5.2753,5.3652,5.4494,5.4494,5.4494,5.4494,5.4494,5.4494,5.4494,5.4494,5.4494,5.4494,5.4494,5.4494,5.4494,5.4494,5.4805,5.5352,5.5981,5.6642,5.7672,5.8841,5.9012,5.9012,5.9047,5.915,6.0013,6.0982,6.1387,6.1993,6.3039,6.36,6.36,6.36,6.36,6.36,6.36,6.36,6.36,6.3772,6.3876,6.4559,6.5283,6.6194,6.6954,6.7021,6.6981,6.6856,3.9986,4.0802,4.0896,4.1445,4.2246,4.2287,4.2287,4.2287,4.2287,4.2287,4.2287,4.2287,4.2287,4.2287,4.2287,4.2287,4.2287,4.243,4.2929,4.3536,4.4428,4.5213,4.582,4.6534,4.7069,4.7426,4.7783,4.8175,4.8282,4.9174,4.967,4.9877,5.059,5.0506,4.9497,4.8974,4.8355,4.7928,4.7279,4.7313,4.7817,4.8402,4.9183,4.9907,5.0011,5.0011,5.0011,5.0011,5.0011,5.0011,5.0011,5.0011,5.0011,5.0011,5.0011,5.0011,5.0206,5.032,5.0376,5.0453,5.0453,5.0285,5.0459,5.076,5.1094,5.1543,5.22,5.3369,5.4058,5.4494,5.4494,5.4494,5.4494,5.4494,5.4494,5.4494,5.4494,5.4494,5.4494,5.4494,5.4494,5.4529,5.4563,5.5041,5.5559,5.6329,5.7021,5.774,5.8772,5.8978,5.9047,5.9116,5.9426,6.0185,6.0908,6.1521,6.2238,6.3285,6.36,6.36,6.36,6.36,6.36,6.3634,6.36,6.3634,6.3876,6.422,6.48,6.5489,6.645,6.6945,6.7065,6.6963,6.6751,4.0268,4.0849,4.1265,4.1753,4.2246,4.2287,4.2287,4.2287,4.2287,4.2287,4.2287,4.2287,4.2287,4.2287,4.2287,4.2287,4.2501,4.2965,4.3429,4.3964,4.4963,4.5641,4.5927,4.6605,4.7354,4.7783,4.8068,4.8175,4.8639,4.9745,4.9884,4.9649,5.0246,5.015,4.9269,4.8522,4.7684,4.741,4.637,4.635,4.7589,4.8402,4.9148,4.9769,5.0011,5.0011,5.0011,5.0011,5.0011,5.0011,5.0011,5.0011,5.0011,5.0011,5.0011,5.0011,5.0068,5.0068,5.0126,5.0149,5.0206,5.023,5.0552,5.0942,5.1553,5.2442,5.3341,5.4218,5.4494,5.4494,5.4494,5.4494,5.4494,5.4494,5.4494,5.4494,5.4494,5.4494,5.4494,5.4598,5.4632,5.4632,5.4632,5.5213,5.58,5.6572,5.7364,5.8084,5.8668,5.8841,5.9012,5.9081,5.953,6.022,6.1045,6.162,6.2449,6.3496,6.3565,6.36,6.36,6.36,6.3669,6.3669,6.3703,6.3915,6.4265,6.464,6.5076,6.5731,6.6574,6.6941,6.7078,6.6953,6.6483,4.0971,4.122,4.1445,4.1796,4.2287,4.2287,4.2287,4.2287,4.2287,4.2287,4.2287,4.2287,4.2287,4.2323,4.2287,4.2573,4.2965,4.3393,4.4071,4.4678,4.5499,4.6034,4.6462,4.6855,4.739,4.8068,4.8318,4.8889,4.9424,5.0066,5.0275,5.0409,5.0688,5.0555,4.9253,4.8487,4.7736,4.6999,4.6129,4.6212,4.7382,4.8092,4.8769,4.9942,4.9976,5.0011,5.0011,5.0011,5.0011,5.0011,5.0011,5.0011,5.0011,5.0011,5.0011,5.0011,5.0011,5.0011,5.0011,5.0011,5.0011,5.0183,5.0735,5.1484,5.2339,5.3307,5.4039,5.446,5.4494,5.4494,5.4494,5.4494,5.4494,5.4494,5.4494,5.4494,5.4494,5.4494,5.4529,5.4632,5.4834,5.4874,5.5046,5.5593,5.615,5.678,5.7501,5.8187,5.8668,5.8944,5.9012,5.9012,5.9599,6.022,6.1045,6.1796,6.2591,6.3319,6.3565,6.36,6.36,6.3634,6.3703,6.3979,6.422,6.4433,6.4719,6.5124,6.5627,6.6178,6.673,6.677,6.6625,6.5969,6.5461,4.1888,4.2027,4.178,4.1959,4.2287,4.2287,4.2287,4.2287,4.2287,4.2287,4.2287,4.2287,4.2394,4.2567,4.2715,4.3072,4.3786,4.4,4.4714,4.5534,4.607,4.6427,4.6748,4.7033,4.7533,4.8461,4.8556,4.934,5.0352,5.0852,5.0966,5.1083,5.0616,5.022,4.9205,4.8068,4.7143,4.6305,4.5734,4.6232,4.7417,4.7713,4.8665,4.9528,5.0011,5.0011,5.0011,5.0011,5.0011,5.0011,5.0011,5.0011,5.0011,5.0011,5.0011,5.0011,5.0011,5.0011,5.0011,5.0011,5.0011,5.0287,5.1011,5.2046,5.3445,5.4247,5.4494,5.4494,5.4494,5.4494,5.4494,5.4494,5.4494,5.4494,5.4494,5.4494,5.4494,5.4494,5.4529,5.4632,5.4874,5.5391,5.5632,5.6042,5.6532,5.7055,5.7638,5.8359,5.8703,5.8978,5.9047,5.9047,5.9288,6.0082,6.1116,6.1903,6.2699,6.3285,6.3531,6.36,6.36,6.3634,6.3703,6.4083,6.4496,6.4916,6.5095,6.5676,6.6178,6.6626,6.6814,6.6336,6.5918,6.5222,6.4663,4.2931,4.3309,4.2567,4.2282,4.2323,4.2287,4.2287,4.2287,4.2287,4.2287,4.2287,4.2358,4.2816,4.323,4.3458,4.3822,4.4571,4.532,4.5641,4.6034,4.6498,4.6819,4.6998,4.7176,4.7747,4.8877,4.8829,4.9684,5.1066,5.0887,5.0887,5.0624,5.0225,4.9286,4.8223,4.7195,4.6308,4.5665,4.5492,4.6217,4.7231,4.7838,4.8493,4.9631,5.0011,5.0011,5.0011,5.0011,5.0011,5.0011,5.0011,5.0011,5.0011,5.0011,5.0011,5.0011,5.0011,5.0011,5.0011,5.0011,5.0045,5.0424,5.1287,5.2632,5.4074,5.4322,5.4494,5.4494,5.4494,5.4494,5.4494,5.4494,5.4494,5.4494,5.4494,5.4494,5.4494,5.4494,5.4563,5.4632,5.5144,5.5736,5.6432,5.6946,5.7049,5.7569,5.8084,5.8737,5.8772,5.9012,5.9081,5.9116,5.9116,5.984,6.1116,6.1907,6.2557,6.3181,6.3565,6.36,6.36,6.3669,6.3703,6.3945,6.4324,6.4951,6.5538,6.6117,6.6592,6.6858,6.6748,6.6194,6.5511,6.4852,6.4435,4.2583,4.2746,4.2952,4.3036,4.3001,4.2501,4.2287,4.2287,4.2287,4.2287,4.2323,4.2822,4.3202,4.3586,4.4057,4.4607,4.532,4.5606,4.607,4.6462,4.6855,4.6962,4.6998,4.7212,4.7783,4.8806,4.8626,4.9421,5.1387,5.0637,5.0744,5.0481,5.0033,4.9321,4.824,4.6673,4.5667,4.5476,4.5561,4.6182,4.7341,4.7769,4.8459,4.9838,5.0011,5.0011,5.0011,5.0011,5.0011,5.0011,5.0011,5.0011,5.0011,5.0011,5.0011,5.0011,5.0011,5.0011,5.0011,5.008,5.0355,5.1321,5.1977,5.2873,5.4287,5.4494,5.4494,5.4494,5.4494,5.4494,5.4494,5.4494,5.4494,5.4494,5.4494,5.4494,5.4563,5.4598,5.4903,5.5173,5.5859,5.6586,5.7288,5.7947,5.7947,5.805,5.8531,5.9012,5.9012,5.9081,5.9185,5.9461,5.9495,6.0254,6.1565,6.2041,6.2449,6.297,6.36,6.36,6.36,6.36,6.3669,6.391,6.4289,6.5054,6.578,6.6531,6.6996,6.6997,6.6582,6.588,6.518,6.4393,6.4179,4.2917,4.3358,4.37,4.3714,4.3429,4.2894,4.2644,4.2608,4.2394,4.2471,4.2726,4.3429,4.3985,4.4262,4.4662,4.5427,4.5998,4.6248,4.6534,4.6783,4.6962,4.6998,4.6998,4.7212,4.7747,4.8651,4.8649,4.9323,5.153,4.9745,5.0066,5.0539,5.0216,4.9184,4.8294,4.6604,4.5458,4.5423,4.5561,4.6201,4.7464,4.7755,4.8459,4.9735,5.0011,5.0011,5.0011,5.0011,5.0011,5.0011,5.0011,5.0011,5.0011,5.0011,5.0011,5.0011,5.0011,5.0011,5.0011,5.0114,5.07,5.177,5.2114,5.3046,5.4011,5.4494,5.4494,5.4494,5.4494,5.4494,5.4494,5.4494,5.4494,5.4494,5.4494,5.4529,5.4736,5.4839,5.5346,5.5819,5.6478,5.6936,5.7633,5.8222,5.8462,5.8428,5.8703,5.9012,5.9012,5.915,5.9392,5.9702,6.0047,6.1047,6.2151,6.2316,6.2586,6.3181,6.36,6.36,6.36,6.36,6.3634,6.3807,6.4324,6.5193,6.5662,6.6058,6.6541,6.7015,6.6271,6.5426,6.4784,6.4179,6.4118,4.4328,4.5559,4.4864,4.4214,4.3679,4.35,4.3465,4.3393,4.2787,4.2869,4.3519,4.4257,4.4947,4.5472,4.5668,4.6177,4.6641,4.6819,4.6926,4.6962,4.6998,4.6998,4.6998,4.7176,4.7783,4.8936,4.9017,4.9621,5.1672,5.0388,5.0388,5.0097,4.9442,4.8486,4.8329,4.65,4.5458,4.5423,4.5458,4.6443,4.7341,4.7824,4.8734,4.9631,5.0011,5.0011,5.0011,5.0011,5.0011,5.0011,5.0011,5.0011,5.0011,5.0011,5.0011,5.0011,5.0011,5.0011,5.0011,5.0011,5.0838,5.2011,5.2321,5.3115,5.4149,5.4494,5.4494,5.4494,5.4494,5.4494,5.4494,5.4494,5.4494,5.4494,5.4494,5.4701,5.4908,5.5115,5.5588,5.6466,5.6794,5.7116,5.7842,5.8462,5.8772,5.8944,5.8978,5.9047,5.9082,5.9392,5.9702,6.0427,6.0909,6.1565,6.2461,6.2522,6.2832,6.3319,6.36,6.36,6.36,6.36,6.3634,6.3738,6.4048,6.4565,6.4992,6.5412,6.5895,6.6235,6.5548,6.4778,6.4333,6.4024,6.4024,4.4528,4.5007,4.5285,4.5249,4.4963,4.4464,4.425,4.4214,4.3964,4.3964,4.4364,4.5071,4.5481,4.5863,4.6381,4.6712,4.6926,4.6998,4.6998,4.6998,4.6998,4.6998,4.6998,4.7176,4.7854,4.877,4.9066,4.9813,5.1672,5.0566,5.0245,4.9955,4.8847,4.7648,4.7073,4.5994,4.5423,4.5527,4.5941,4.67,4.7651,4.8183,4.8941,5.0011,5.0045,5.008,5.008,5.008,5.0011,5.0011,5.0011,5.0011,5.0011,5.0011,5.0011,5.0011,5.0011,5.0011,5.0149,5.0424,5.1183,5.2011,5.2735,5.3356,5.4356,5.4494,5.4494,5.4494,5.4494,5.4494,5.4494,5.4494,5.4494,5.4494,5.4598,5.4943,5.5184,5.5357,5.5796,5.6953,5.7612,5.7904,5.8461,5.8634,5.8875,5.9012,5.9012,5.9461,5.9632,5.9908,6.0289,6.136,6.205,6.2465,6.2806,6.294,6.3004,6.3462,6.36,6.36,6.36,6.36,6.36,6.3669,6.3732,6.3864,6.4503,6.5,6.516,6.5226,6.4778,6.4485,6.4179,6.4024,6.4024,4.4955,4.5463,4.5677,4.5963,4.607,4.5356,4.4892,4.4714,4.4892,4.4999,4.5186,4.5864,4.6239,4.6372,4.6702,4.6998,4.6998,4.6998,4.6998,4.6998,4.6998,4.6998,4.6998,4.714,4.7925,4.8782,4.9126,4.9733,5.1565,5.0388,4.9991,4.972,4.8655,4.805,4.7296,4.6631,4.5872,4.6132,4.6581,4.7141,4.7898,4.8621,4.9597,5.0218,5.0424,5.0424,5.0355,5.0183,5.0011,5.0011,5.0011,5.0011,5.0011,5.0011,5.0011,5.0011,5.0011,5.0011,5.0149,5.0666,5.1356,5.2114,5.2942,5.3701,5.4322,5.4494,5.4494,5.4494,5.4494,5.4494,5.4494,5.4494,5.4529,5.4529,5.4667,5.5012,5.577,5.5943,5.6357,5.7513,5.8029,5.8455,5.8806,5.8875,5.9012,5.9012,5.9012,5.9563,6.0112,6.0356,6.084,6.1912,6.2568,6.2776,6.3121,6.3393,6.3496,6.36,6.36,6.36,6.36,6.36,6.36,6.36,6.3664,6.381,6.4275,6.4656,6.4839,6.4704,6.4387,6.4146,6.4024,6.4024,6.4024,4.557,4.6748,4.6177,4.6284,4.6748,4.6141,4.5427,4.4821,4.5534,4.5829,4.5881,4.6614,4.6855,4.6926,4.6998,4.6998,4.6998,4.6998,4.6998,4.6998,4.6998,4.6998,4.7033,4.7176,4.8104,4.8877,4.9483,5.0125,5.1494,5.0744,5.014,4.9731,4.8889,4.8537,4.8142,4.7562,4.6892,4.7084,4.7617,4.8139,4.8689,4.9492,5.0435,5.0976,5.1149,5.1045,5.0838,5.0528,5.0183,5.0045,5.0011,5.0011,5.0011,5.0011,5.0011,5.0045,5.0114,5.0011,5.0287,5.0873,5.1425,5.2183,5.2942,5.3701,5.4253,5.4494,5.4494,5.4494,5.4494,5.4494,5.4494,5.4529,5.4563,5.4632,5.4701,5.5391,5.6391,5.6874,5.7253,5.7801,5.8109,5.8492,5.884,5.9012,5.915,5.9392,5.9564,6.0082,6.0494,6.0494,6.1151,6.2324,6.2845,6.2986,6.3259,6.3531,6.36,6.36,6.36,6.36,6.36,6.36,6.36,6.3634,6.3595,6.364,6.3851,6.4067,6.4458,6.4295,6.4114,6.4053,6.4024,6.4024,6.4024,4.6569,4.6962,4.6748,4.6783,4.6926,4.6748,4.6498,4.6391,4.6605,4.665,4.665,4.69,4.6998,4.6998,4.6998,4.6998,4.6998,4.6998,4.6998,4.6998,4.6998,4.6998,4.7176,4.7533,4.8389,4.9174,4.9875,5.0552,5.1315,5.0887,5.0622,5.0348,4.9293,4.9199,4.9076,4.8665,4.8363,4.8418,4.8964,4.9286,4.9923,5.0867,5.1537,5.1839,5.1908,5.1701,5.1183,5.0907,5.0562,5.008,5.0011,5.0011,5.0011,5.0045,5.0114,5.0666,5.0459,5.0218,5.07,5.0976,5.1356,5.208,5.2873,5.3701,5.4253,5.4494,5.4494,5.4494,5.4494,5.4494,5.4494,5.4529,5.4741,5.5017,5.5154,5.5839,5.6771,5.7391,5.7771,5.8254,5.8528,5.8597,5.8978,5.9151,5.9323,5.9668,6.0082,6.0669,6.0978,6.1047,6.1496,6.2703,6.3117,6.3259,6.3363,6.36,6.36,6.36,6.36,6.36,6.36,6.36,6.36,6.3405,6.3085,6.3054,6.306,6.3472,6.3812,6.4142,6.3991,6.4024,6.4024,6.4024,6.4024,4.6034,4.6105,4.6391,4.6712,4.6962,4.6998,4.6998,4.6998,4.6998,4.6998,4.6998,4.6998,4.6998,4.6998,4.6998,4.6998,4.6998,4.6998,4.6998,4.6998,4.6998,4.6998,4.7247,4.7818,4.8568,4.9353,5.0138,5.0852,5.1351,5.1301,5.1063,5.0681,4.9714,4.9931,5.0011,4.97,4.9711,4.9976,5.0403,5.0557,5.1089,5.2001,5.2502,5.2666,5.2701,5.2252,5.1632,5.139,5.0735,5.0149,5.0011,5.0011,5.0011,5.0011,5.0355,5.0769,5.0459,5.0493,5.0838,5.07,5.1149,5.177,5.2528,5.3218,5.3873,5.4253,5.4391,5.4494,5.4494,5.4494,5.4494,5.4598,5.5051,5.5503,5.5912,5.6288,5.7012,5.7736,5.8288,5.8806,5.8944,5.8944,5.9116,5.9288,5.953,5.9944,6.0531,6.122,6.1634,6.1841,6.2289,6.3151,6.3393,6.3496,6.36,6.36,6.36,6.36,6.36,6.36,6.356,6.3254,6.3051,6.2798,6.2488,6.2598,6.276,6.2917,6.3242,6.3603,6.4024,6.4024,6.4024,6.4024,6.4024,4.4856,4.4928,4.557,4.6391,4.6926,4.6998,4.6998,4.6998,4.6998,4.6998,4.6998,4.6998,4.6998,4.6998,4.6998,4.6998,4.6998,4.6998,4.6998,4.6998,4.6998,4.6998,4.7247,4.789,4.8746,4.9424,5.0245,5.1137,5.153,5.1515,5.1241,5.0838,5.0697,5.0614,5.0448,5.0114,5.0195,5.0737,5.0897,5.0944,5.1247,5.2227,5.346,5.3494,5.3391,5.3115,5.2356,5.1632,5.0838,5.039,5.0011,5.0011,5.0183,5.0194,5.0607,5.0804,5.0631,5.0666,5.0735,5.0528,5.0631,5.1149,5.1804,5.2701,5.346,5.4184,5.446,5.4494,5.4494,5.4494,5.4494,5.4844,5.5296,5.5881,5.6395,5.7047,5.7805,5.8288,5.853,5.8909,5.9012,5.9012,5.9082,5.9357,6.0009,6.0427,6.105,6.1806,6.2217,6.2565,6.291,6.3496,6.3531,6.36,6.36,6.36,6.36,6.36,6.36,6.3604,6.3606,6.3069,6.2455,6.2197,6.1966,6.2326,6.2563,6.2613,6.2955,6.3732,6.4024,6.4024,6.4024,6.4024,6.4024,4.6453,4.6442,4.6624,4.6819,4.6998,4.6998,4.6998,4.6998,4.6998,4.6998,4.6998,4.6998,4.6998,4.6998,4.6998,4.6998,4.6998,4.6998,4.6998,4.6998,4.6998,4.6998,4.7319,4.8282,4.8996,4.971,5.053,5.1422,5.1637,5.1622,5.1418,5.0892,5.0838,5.0718,5.0483,5.0114,5.0345,5.0921,5.1001,5.1546,5.2358,5.2763,5.3563,5.3977,5.4115,5.377,5.3046,5.2356,5.1632,5.0976,5.0287,5.0355,5.0804,5.0789,5.1202,5.1606,5.1114,5.0907,5.0804,5.0493,5.0424,5.1011,5.177,5.2563,5.3356,5.408,5.4494,5.4494,5.4529,5.4563,5.4701,5.5154,5.5675,5.6326,5.6877,5.7771,5.8599,5.8702,5.8806,5.8875,5.8978,5.9081,5.9151,5.9666,6.0387,6.104,6.1806,6.2461,6.291,6.322,6.3151,6.3565,6.3565,6.36,6.36,6.36,6.36,6.36,6.36,6.3657,6.362,6.3093,6.2448,6.1832,6.1593,6.1972,6.2231,6.2165,6.2663,6.3635,6.4024,6.4024,6.4024,6.4024,6.4024,4.5927,4.5971,4.632,4.6676,4.6962,4.6998,4.6998,4.6998,4.6998,4.6998,4.6998,4.6998,4.6998,4.6998,4.6998,4.6998,4.6998,4.6998,4.6998,4.6998,4.6998,4.6998,4.764,4.8532,4.9032,4.971,5.0923,5.1672,5.1708,5.1658,5.1418,5.0946,5.0784,5.0704,5.0403,5.0252,5.0159,5.0513,5.0641,5.1503,5.2791,5.3225,5.3736,5.4287,5.4391,5.408,5.3563,5.2873,5.2149,5.1252,5.039,5.0183,5.0435,5.0463,5.0909,5.1227,5.1045,5.0769,5.0769,5.0597,5.0252,5.0838,5.177,5.2563,5.2873,5.3598,5.446,5.4563,5.5035,5.5104,5.5317,5.5667,5.6432,5.7155,5.7463,5.8012,5.8599,5.8875,5.8909,5.8944,5.9012,5.9012,5.9392,6.0254,6.0871,6.1273,6.2071,6.2875,6.3358,6.36,6.36,6.36,6.36,6.36,6.36,6.36,6.36,6.36,6.36,6.3429,6.3366,6.3033,6.2481,6.1871,6.1502,6.1751,6.1938,6.2145,6.2793,6.3764,6.3991,6.4024,6.4024,6.4024,6.3929,4.4903,4.4971,4.5695,4.6355,4.6926,4.6998,4.6998,4.6998,4.6998,4.6998,4.6998,4.6998,4.6998,4.6998,4.6998,4.6998,4.6998,4.6998,4.6998,4.6998,4.6998,4.6998,4.7568,4.8496,4.9281,5.0102,5.1137,5.153,5.1708,5.1622,5.1418,5.091,5.0834,5.0879,5.0737,5.0493,5.0252,5.0469,5.0641,5.0952,5.1942,5.2908,5.3632,5.4149,5.446,5.4149,5.3736,5.3218,5.2563,5.1735,5.0804,5.0459,5.039,5.0488,5.072,5.0952,5.0838,5.07,5.07,5.0528,5.0321,5.0597,5.1666,5.239,5.2735,5.3391,5.4253,5.4765,5.5208,5.5623,5.5835,5.6491,5.7189,5.7706,5.8014,5.8254,5.8668,5.9012,5.9012,5.9012,5.9012,5.9012,5.9702,6.0565,6.1252,6.1654,6.2307,6.3039,6.36,6.36,6.36,6.36,6.36,6.36,6.36,6.36,6.36,6.3388,6.3302,6.3232,6.3067,6.2881,6.2474,6.1849,6.1653,6.1912,6.2269,6.2599,6.3311,6.3894,6.3959,6.4024,6.4024,6.3929,6.3867,4.5954,4.656,4.6712,4.6855,4.6998,4.6998,4.6998,4.6998,4.6998,4.6998,4.6998,4.6998,4.6998,4.6998,4.6998,4.6998,4.6998,4.6998,4.6998,4.6998,4.6998,4.6998,4.7461,4.8603,4.9959,5.0852,5.1458,5.1601,5.1708,5.1672,5.1418,5.0892,5.1105,5.0889,5.0287,5.0161,5.0253,5.0345,5.0435,5.071,5.1718,5.264,5.3287,5.3908,5.4494,5.4425,5.4184,5.3701,5.3322,5.2632,5.1647,5.0932,5.0631,5.0631,5.0769,5.0745,5.0631,5.0493,5.0424,5.0528,5.0459,5.0873,5.1942,5.2908,5.3322,5.3804,5.4425,5.4598,5.5144,5.5606,5.6088,5.712,5.7947,5.8152,5.829,5.8565,5.8944,5.9012,5.9012,5.9047,5.9081,5.9392,5.9978,6.0808,6.1636,6.2148,6.2832,6.3496,6.36,6.36,6.36,6.36,6.36,6.36,6.36,6.36,6.3565,6.3319,6.3171,6.3233,6.3138,6.2955,6.2543,6.2086,6.2113,6.2307,6.2696,6.2987,6.3376,6.3862,6.3959,6.4024,6.4024,6.3867,6.3709]},{"header":{"parameterUnit":"m.s-1","parameterCategory":1,"la1":31.0,"la2":29.5877,"lo1":-88.7671,"lo2":-86.6584,"dy":0.0162,"dx":0.0185,"nx":115,"ny":88,"refTime":"2023-08-27T12:00:00:Z","depth":0,"parameterNumber":3,"parameterNumberName":"V-component_of_WINDS"},"data":[0.0,0.0,0.0,0.0,0.0,0.0,0.0,0.0,0.0,0.0,0.0,0.0,0.0,0.0,0.0,0.0,0.0,0.0,0.0,0.0,0.0,0.0,0.0,0.0,0.0,0.0,0.0,0.0,0.0,0.0,0.0,0.0,0.0,0.0,0.0,0.0,0.0,0.0,0.0,0.0,0.0,0.0,0.0,0.0,0.0,0.0,0.0,0.0,0.0,0.0,0.0,0.0,0.0,0.0,0.0,0.0,0.0,0.0,0.0,0.0,0.0,0.0,0.0,0.0,0.0,0.0,0.0,0.0,0.0,0.0,0.0,0.0,0.0,0.0,0.0,0.0,0.0,0.0,0.0,0.0,0.0,0.0,0.0,0.0,0.0,0.0,0.0,0.0,0.0,0.0,0.0,0.0,0.0,0.0,0.0,0.0,0.0,0.0,0.0,0.0,0.0,0.0,0.0,0.0,0.0,0.0,0.0,0.0,0.0,0.0,0.0,0.0,0.0,0.0,0.0,0.0,0.0,0.0,0.0,0.0,0.0,0.0,0.0,0.0,0.0,0.0,0.0,0.0,0.0,0.0,0.0,0.0,0.0,0.0,0.0,0.0,0.0,0.0,0.0,0.0,0.0,0.0,0.0,0.0,0.0,0.0,0.0,0.0,0.0,0.0,0.0,0.0,0.0,0.0,0.0,0.0,0.0,0.0,0.0,0.0,0.0,0.0,0.0,0.0,0.0,0.0,0.0,0.0,0.0,0.0,0.0,0.0,0.0,0.0,0.0,0.0,0.0,0.0,0.0,0.0,0.0,0.0,0.0,0.0,0.0,0.0,0.0,0.0,0.0,0.0,0.0,0.0,0.0,0.0,0.0,0.0,0.0,0.0,0.0,0.0,0.0,0.0,0.0,0.0,0.0,0.0,0.0,0.0,0.0,0.0,0.0,0.0,0.0,0.0,0.0,0.0,0.0,0.0,0.0,0.0,0.0,0.0,0.0,0.0,0.0,0.0,0.0,0.0,0.0,0.0,0.0,0.0,0.0,0.0,0.0,0.0,0.0,0.0,0.0,0.0,0.0,0.0,0.0,0.0,0.0,0.0,0.0,0.0,0.0,0.0,0.0,0.0,0.0,0.0,0.0,0.0,0.0,0.0,0.0,0.0,0.0,0.0,0.0,0.0,0.0,0.0,0.0,0.0,0.0,0.0,0.0,0.0,0.0,0.0,0.0,0.0,0.0,0.0,0.0,0.0,0.0,0.0,0.0,0.0,0.0,0.0,0.0,0.0,0.0,0.0,0.0,0.0,0.0,0.0,0.0,0.0,0.0,0.0,0.0,0.0,0.0,0.0,0.0,0.0,0.0,0.0,0.0,0.0,0.0,0.0,0.0,0.0,0.0,0.0,0.0,0.0,0.0,0.0,0.0,0.0,0.0,0.0,0.0,0.0,0.0,0.0,0.0,0.0,0.0,0.0,0.0,0.0,0.0,0.0,0.0,0.0,0.0,0.0,0.0,0.0,0.0,0.0,0.0,0.0,0.0,0.0,0.0,0.0,0.0,0.0,0.0,0.0,0.0,0.0,0.0,0.0,0.0,0.0,0.0,0.0,0.0,0.0,0.0,0.0,0.0,0.0,0.0,0.0,0.0,0.0,0.0,0.0,0.0,0.0,0.0,0.0,0.0,0.0,0.0,0.0,0.0,0.0,0.0,0.0,0.0,0.0,0.0,0.0,0.0,0.0,0.0,0.0,0.0,0.0,0.0,0.0,0.0,0.0,0.0,0.0,0.0,0.0,0.0,0.0,0.0,0.0,0.0,0.0,0.0,0.0,0.0,0.0,0.0,0.0,0.0,0.0,0.0,0.0,0.0,0.0,0.0,0.0,0.0,0.0,0.0,0.0,0.0,0.0,0.0,0.0,0.0,0.0,0.0,0.0,0.0,0.0,0.0,0.0,0.0,0.0,0.0,0.0,0.0,0.0,0.0,0.0,0.0,0.0,0.0,0.0,0.0,0.0,0.0,0.0,0.0,0.0,0.0,0.0,0.0,0.0,0.0,0.0,0.0,0.0,0.0,0.0,0.0,0.0,0.0,0.0,0.0,0.0,0.0,0.0,0.0,0.0,0.0,0.0,0.0,0.0,0.0,0.0,0.0,0.0,0.0,0.0,0.0,0.0,0.0,0.0,0.0,0.0,0.0,0.0,0.0,0.0,0.0,0.0,0.0,0.0,0.0,0.0,0.0,0.0,0.0,0.0,0.0,0.0,0.0,0.0,0.0,0.0,0.0,0.0,0.0,0.0,0.0,0.0,0.0,0.0,0.0,0.0,0.0,0.0,0.0,0.0,0.0,0.0,0.0,0.0,0.0,0.0,0.0,0.0,0.0,0.0,0.0,0.0,0.0,0.0,0.0,0.0,0.0,0.0,0.0,0.0,0.0,0.0,0.0,0.0,0.0,0.0,0.0,0.0,0.0,0.0,0.0,0.0,0.0,0.0,0.0,0.0,0.0,0.0,0.0,0.0,0.0,0.0,0.0,0.0,0.0,0.0,0.0,0.0,0.0,0.0,0.0,0.0,0.0,0.0,0.0,0.0,0.0,0.0,0.0,0.0,0.0,0.0,0.0,0.0,0.0,0.0,0.0,0.0,0.0,0.0,0.0,0.0,0.0,0.0,0.0,0.0,0.0,0.0,0.0,0.0,0.0,0.0,0.0,0.0,0.0,0.0,0.0,0.0,0.0,0.0,0.0,0.0,0.0,0.0,0.0,0.0,0.0,0.0,0.0,0.0,0.0,0.0,0.0,0.0,0.0,0.0,0.0,0.0,0.0,0.0,0.0,0.0,0.0,0.0,0.0,0.0,0.0,0.0,0.0,0.0,0.0,0.0,0.0,0.0,0.0,0.0,0.0,0.0,0.0,0.0,0.0,0.0,0.0,0.0,0.0,0.0,0.0,0.0,0.0,0.0,0.0,0.0,0.0,0.0,0.0,0.0,0.0,0.0,0.0,0.0,0.0,0.0,0.0,0.0,0.0,0.0,0.0,0.0,0.0,0.0,0.0,0.0,0.0,0.0,0.0,0.0,0.0,0.0,0.0,0.0,0.0,0.0,0.0,0.0,0.0,0.0,0.0,0.0,0.0,0.0,0.0,0.0,0.0,0.0,0.0,0.0,0.0,0.0,0.0,0.0,0.0,0.0,0.0,0.0,0.0,0.0,0.0,0.0,0.0,0.0,0.0,0.0,0.0,0.0,0.0,0.0,0.0,0.0,0.0,0.0,0.0,0.0,0.0,0.0,0.0,0.0,0.0,0.0,0.0,0.0,0.0,0.0,0.0,0.0,0.0,0.0,0.0,0.0,0.0,0.0,0.0,0.0,0.0,0.0,0.0,0.0,0.0,0.0,0.0,0.0,0.0,0.0,0.0,0.0,0.0,0.0,0.0,0.0,0.0,0.0,0.0,0.0,0.0,0.0,0.0,0.0,0.0,0.0,0.0,0.0,0.0,0.0,0.0,0.0,0.0,0.0,0.0,0.0,0.0,0.0,0.0,0.0,0.0,0.0,0.0,0.0,0.0,0.0,0.0,0.0,0.0,0.0,0.0,0.0,0.0,0.0,0.0,0.0,0.0,0.0,0.0,0.0,0.0,0.0,0.0,0.0,0.0,0.0,0.0,0.0,0.0,0.0,0.0,0.0,0.0,0.0,0.0,0.0,0.0,0.0,0.0,0.0,0.0,0.0,0.0,0.0,0.0,0.0,0.0,0.0,0.0,0.0,0.0,0.0,0.0,0.0,0.0,0.0,0.0,0.0,0.0,0.0,0.0,0.0,0.0,0.0,0.0,0.0,0.0,0.0,0.0,0.0,0.0,0.0,0.0,0.0,0.0,0.0,0.0,0.0,0.0,0.0,0.0,0.0,0.0,0.0,0.0,0.0,0.0,0.0,0.0,0.0,0.0,0.0,0.0,0.0,0.0,0.0,0.0,0.0,0.0,0.0,0.0,0.0,0.0,0.0,0.0,0.0,0.0,0.0,0.0,0.0,0.0,0.0,0.0,0.0,0.0,0.0,0.0,0.0,0.0,0.0,0.0,0.0,0.0,0.0,0.0,0.0,0.0,0.0,0.0,0.0,0.0,0.0,0.0,0.0,0.0,0.0,0.0,0.0,0.0,0.0,0.0,0.0,0.0,0.0,0.0,0.0,0.0,0.0,0.0,0.0,0.0,0.0,0.0,0.0,0.0,0.0,0.0,0.0,0.0,0.0,0.0,0.0,0.0,0.0,-1.0717,0.0,0.0,0.0,-1.0717,0.0,0.0,0.0,0.0,0.0,0.0,0.0,0.0,0.0,0.0,0.0,0.0,0.0,0.0,0.0,0.0,0.0,0.0,0.0,0.0,0.0,0.0,0.0,0.0,0.0,0.0,0.0,0.0,0.0,0.0,0.0,0.0,0.0,0.0,0.0,0.0,0.0,0.0,0.0,0.0,0.0,0.0,0.0,0.0,0.0,0.0,0.0,0.0,0.0,0.0,0.0,0.0,0.0,0.0,0.0,0.0,0.0,0.0,0.0,0.0,0.0,0.0,0.0,0.0,0.0,0.0,0.0,0.0,0.0,0.0,0.0,0.0,0.0,0.0,0.0,0.0,0.0,0.0,0.0,0.0,0.0,0.0,0.0,0.0,0.0,0.0,0.0,0.0,0.0,0.0,0.0,0.0,0.0,0.0,0.0,0.0,0.0,0.0,0.0,0.0,0.0,0.0,0.0,0.0,0.0,0.0,0.0,0.0,0.0,0.0,-1.0717,-1.0717,-1.0717,-1.0717,-1.0717,0.0,0.0,0.0,0.0,0.0,0.0,0.0,0.0,0.0,0.0,0.0,0.0,0.0,0.0,0.0,0.0,0.0,0.0,0.0,0.0,0.0,0.0,0.0,0.0,0.0,0.0,0.0,0.0,0.0,0.0,0.0,0.0,0.0,0.0,0.0,0.0,0.0,0.0,0.0,0.0,0.0,0.0,0.0,0.0,0.0,0.0,0.0,0.0,0.0,0.0,0.0,0.0,0.0,0.0,0.0,0.0,0.0,0.0,0.0,0.0,0.0,0.0,0.0,0.0,0.0,0.0,0.0,0.0,0.0,0.0,0.0,0.0,0.0,0.0,0.0,0.0,0.0,0.0,0.0,0.0,0.0,0.0,0.0,0.0,0.0,0.0,0.0,0.0,0.0,0.0,0.0,0.0,0.0,0.0,0.0,0.0,0.0,0.0,0.0,0.0,0.0,0.0,0.0,0.0,0.0,0.0,0.0,0.0,0.0,0.0,0.0,0.0,-1.0873,-1.0873,-1.0867,0.0,0.0,0.0,0.0,0.0,0.0,0.0,0.0,0.0,0.0,0.0,0.0,0.0,0.0,0.0,0.0,0.0,0.0,0.0,0.0,0.0,0.0,0.0,0.0,0.0,0.0,0.0,0.0,0.0,0.0,0.0,0.0,0.0,0.0,0.0,0.0,0.0,0.0,0.0,0.0,0.0,0.0,0.0,0.0,0.0,0.0,0.0,0.0,0.0,0.0,0.0,0.0,0.0,0.0,0.0,0.0,0.0,0.0,0.0,0.0,0.0,0.0,0.0,0.0,0.0,0.0,0.0,0.0,0.0,0.0,0.0,0.0,0.0,0.0,0.0,0.0,0.0,0.0,0.0,0.0,0.0,0.0,0.0,0.0,0.0,0.0,0.0,0.0,0.0,0.0,0.0,0.0,0.0,0.0,0.0,0.0,0.0,0.0,0.0,0.0,0.0,0.0,0.0,0.0,0.0,0.0,0.0,0.0,0.0,0.0,-1.0914,-1.1314,-1.1321,0.0,-1.1307,0.0,0.0,0.0,0.0,0.0,0.0,0.0,0.0,0.0,0.0,0.0,0.0,0.0,0.0,0.0,0.0,0.0,0.0,0.0,0.0,0.0,0.0,0.0,0.0,0.0,0.0,0.0,0.0,0.0,0.0,0.0,0.0,0.0,0.0,0.0,0.0,0.0,0.0,0.0,0.0,0.0,0.0,0.0,0.0,0.0,0.0,0.0,0.0,0.0,0.0,0.0,0.0,0.0,0.0,0.0,0.0,0.0,0.0,0.0,0.0,0.0,0.0,0.0,0.0,0.0,0.0,0.0,0.0,0.0,0.0,0.0,0.0,0.0,0.0,0.0,0.0,0.0,0.0,0.0,0.0,0.0,0.0,0.0,0.0,0.0,0.0,0.0,0.0,0.0,0.0,0.0,0.0,0.0,0.0,0.0,0.0,0.0,0.0,0.0,0.0,0.0,0.0,0.0,0.0,0.0,0.0,0.0,0.0,0.0,0.0,-1.0894,-1.1246,-1.1253,-1.1172,0.0,0.0,0.0,0.0,0.0,0.0,0.0,0.0,0.0,0.0,0.0,0.0,0.0,0.0,0.0,0.0,0.0,0.0,0.0,0.0,0.0,0.0,0.0,0.0,0.0,0.0,0.0,0.0,0.0,0.0,0.0,0.0,0.0,0.0,0.0,0.0,0.0,0.0,0.0,0.0,0.0,0.0,0.0,0.0,0.0,0.0,0.0,0.0,0.0,0.0,0.0,0.0,0.0,0.0,0.0,0.0,0.0,0.0,0.0,0.0,0.0,0.0,0.0,0.0,0.0,0.0,0.0,0.0,0.0,0.0,0.0,0.0,0.0,0.0,0.0,0.0,0.0,0.0,0.0,0.0,0.0,0.0,0.0,0.0,0.0,0.0,0.0,0.0,0.0,0.0,0.0,0.0,0.0,0.0,0.0,0.0,0.0,0.0,0.0,0.0,0.0,0.0,0.0,0.0,0.0,0.0,0.0,0.0,0.0,0.0,-1.0867,-1.0941,-1.126,-1.1124,-1.0995,-1.0907,0.0,0.0,0.0,0.0,0.0,0.0,0.0,0.0,0.0,0.0,0.0,0.0,0.0,0.0,0.0,0.0,0.0,0.0,0.0,0.0,0.0,0.0,0.0,0.0,0.0,0.0,0.0,0.0,0.0,0.0,0.0,0.0,0.0,0.0,0.0,0.0,0.0,0.0,0.0,0.0,0.0,0.0,0.0,0.0,0.0,0.0,0.0,0.0,0.0,0.0,0.0,0.0,0.0,0.0,0.0,0.0,0.0,0.0,0.0,0.0,0.0,0.0,0.0,0.0,0.0,0.0,0.0,0.0,0.0,0.0,0.0,0.0,0.0,0.0,0.0,0.0,0.0,0.0,0.0,0.0,0.0,0.0,0.0,0.0,0.0,0.0,0.0,0.0,0.0,0.0,0.0,0.0,0.0,0.0,0.0,0.0,0.0,0.0,0.0,0.0,0.0,0.0,0.0,0.0,0.0,0.0,0.0,0.0,-1.1714,-1.1226,-1.1151,-1.1545,-1.1043,-1.0934,0.0,0.0,0.0,0.0,0.0,0.0,0.0,0.0,0.0,0.0,0.0,0.0,0.0,0.0,0.0,0.0,0.0,0.0,0.0,0.0,0.0,0.0,0.0,0.0,0.0,0.0,0.0,0.0,0.0,0.0,0.0,0.0,0.0,0.0,0.0,0.0,0.0,0.0,0.0,0.0,0.0,0.0,0.0,0.0,0.0,0.0,0.0,0.0,0.0,0.0,0.0,0.0,0.0,0.0,0.0,0.0,0.0,0.0,0.0,0.0,0.0,0.0,0.0,0.0,0.0,0.0,0.0,0.0,0.0,0.0,0.0,0.0,0.0,0.0,0.0,0.0,0.0,0.0,0.0,0.0,0.0,0.0,0.0,0.0,0.0,0.0,0.0,0.0,0.0,0.0,0.0,0.0,0.0,0.0,0.0,0.0,0.0,0.0,0.0,0.0,0.0,0.0,0.0,0.0,0.0,0.0,0.0,0.0,0.0,-1.1104,-1.109,-1.107,-1.1043,-1.1016,-1.0995,0.0,0.0,0.0,0.0,0.0,0.0,0.0,0.0,0.0,0.0,0.0,0.0,0.0,0.0,0.0,0.0,0.0,0.0,0.0,0.0,0.0,0.0,0.0,0.0,0.0,0.0,0.0,0.0,0.0,0.0,0.0,0.0,0.0,0.0,0.0,0.0,0.0,0.0,0.0,0.0,0.0,0.0,0.0,0.0,0.0,0.0,0.0,0.0,0.0,0.0,0.0,0.0,0.0,0.0,0.0,0.0,0.0,0.0,0.0,0.0,0.0,0.0,0.0,0.0,0.0,0.0,0.0,0.0,0.0,0.0,0.0,0.0,0.0,0.0,0.0,0.0,0.0,0.0,0.0,0.0,0.0,0.0,0.0,0.0,0.0,0.0,0.0,0.0,0.0,0.0,0.0,0.0,0.0,0.0,0.0,0.0,0.0,0.0,0.0,0.0,0.0,0.0,0.0,0.0,0.0,0.0,0.0,0.0,0.0,-1.0799,0.0,-1.1043,-1.0812,-1.0941,-1.0921,0.0,0.0,0.0,0.0,0.0,0.0,0.0,0.0,0.0,0.0,0.0,0.0,0.0,0.0,0.0,0.0,0.0,0.0,0.0,0.0,0.0,0.0,0.0,0.0,0.0,0.0,0.0,0.0,0.0,0.0,0.0,0.0,0.0,0.0,0.0,0.0,0.0,0.0,0.0,0.0,0.0,0.0,0.0,0.0,0.0,0.0,0.0,0.0,0.0,0.0,0.0,0.0,0.0,0.0,0.0,0.0,0.0,0.0,0.0,0.0,0.0,0.0,0.0,0.0,0.0,0.0,0.0,0.0,0.0,0.0,0.0,0.0,0.0,0.0,0.0,0.0,0.0,0.0,0.0,0.0,0.0,0.0,0.0,0.0,0.0,0.0,0.0,0.0,0.0,0.0,0.0,0.0,0.0,0.0,0.0,0.0,0.0,0.0,0.0,0.0,0.0,0.0,0.0,0.0,0.0,0.0,0.0,0.0,-1.0792,-1.0934,-1.1077,-1.1077,-1.0955,-1.0806,-1.0724,0.0,0.0,0.0,0.0,0.0,0.0,0.0,0.0,0.0,0.0,0.0,0.0,0.0,0.0,0.0,0.0,0.0,0.0,0.0,0.0,0.0,0.0,0.0,0.0,0.0,0.0,0.0,0.0,0.0,0.0,0.0,0.0,0.0,0.0,0.0,0.0,0.0,0.0,0.0,0.0,0.0,0.0,0.0,0.0,0.0,0.0,0.0,0.0,0.0,0.0,0.0,0.0,0.0,0.0,0.0,0.0,0.0,0.0,0.0,0.0,0.0,0.0,0.0,0.0,0.0,0.0,0.0,0.0,0.0,0.0,0.0,0.0,0.0,0.0,0.0,0.0,0.0,0.0,0.0,0.0,0.0,0.0,0.0,0.0,0.0,0.0,0.0,0.0,0.0,0.0,0.0,0.0,0.0,0.0,0.0,0.0,0.0,0.0,0.0,0.0,0.0,0.0,0.0,0.0,0.0,0.0,0.0,0.0,0.0,-1.0792,-1.0833,-1.0934,-1.1077,-1.0751,-1.0711,0.0,0.0,0.0,0.0,0.0,0.0,0.0,0.0,0.0,0.0,0.0,0.0,0.0,0.0,0.0,0.0,0.0,0.0,0.0,0.0,0.0,0.0,0.0,0.0,0.0,0.0,0.0,0.0,0.0,0.0,0.0,0.0,0.0,0.0,0.0,0.0,0.0,0.0,0.0,0.0,0.0,0.0,0.0,0.0,0.0,0.0,0.0,0.0,0.0,0.0,0.0,0.0,0.0,0.0,0.0,0.0,0.0,0.0,0.0,0.0,0.0,0.0,0.0,0.0,0.0,0.0,0.0,0.0,0.0,0.0,0.0,0.0,0.0,0.0,0.0,0.0,0.0,0.0,0.0,0.0,0.0,0.0,0.0,0.0,0.0,0.0,0.0,0.0,0.0,0.0,0.0,0.0,0.0,0.0,0.0,0.0,0.0,0.0,0.0,0.0,0.0,0.0,0.0,0.0,0.0,0.0,0.0,0.0,0.0,-1.0806,-1.1333,-1.1658,-1.1661,-1.1505,-1.1432,-1.1607,0.0,0.0,0.0,0.0,0.0,0.0,0.0,0.0,0.0,0.0,0.0,0.0,0.0,0.0,0.0,0.0,0.0,0.0,0.0,0.0,0.0,0.0,0.0,0.0,0.0,0.0,0.0,0.0,0.0,0.0,0.0,0.0,0.0,0.0,0.0,0.0,0.0,0.0,0.0,0.0,0.0,0.0,0.0,0.0,0.0,0.0,0.0,0.0,0.0,0.0,0.0,0.0,0.0,0.0,0.0,0.0,0.0,0.0,0.0,0.0,0.0,0.0,0.0,0.0,0.0,0.0,0.0,0.0,0.0,0.0,0.0,0.0,0.0,0.0,0.0,0.0,0.0,0.0,0.0,0.0,0.0,0.0,0.0,0.0,0.0,0.0,0.0,0.0,0.0,0.0,0.0,0.0,0.0,0.0,0.0,0.0,0.0,0.0,0.0,0.0,0.0,0.0,0.0,0.0,0.0,0.0,0.0,0.0,-1.0934,-1.2419,-1.3019,-1.2608,-1.27,-1.2653,0.0,0.0,0.0,0.0,0.0,0.0,0.0,0.0,0.0,0.0,0.0,0.0,0.0,0.0,0.0,0.0,0.0,0.0,0.0,0.0,0.0,0.0,0.0,0.0,0.0,0.0,0.0,0.0,0.0,0.0,0.0,0.0,0.0,0.0,0.0,0.0,0.0,0.0,0.0,0.0,0.0,0.0,0.0,0.0,0.0,0.0,0.0,0.0,0.0,0.0,0.0,0.0,0.0,0.0,0.0,0.0,0.0,0.0,0.0,0.0,0.0,0.0,0.0,0.0,0.0,0.0,0.0,0.0,0.0,0.0,0.0,0.0,0.0,0.0,0.0,0.0,0.0,0.0,0.0,0.0,0.0,0.0,0.0,0.0,0.0,0.0,0.0,0.0,0.0,0.0,0.0,0.0,0.0,0.0,0.0,0.0,0.0,0.0,0.0,0.0,0.0,0.0,0.0,0.0,0.0,0.0,0.0,0.0,0.0,-1.0778,-1.2473,-1.3319,-1.3255,-1.1955,-1.1784,0.0,0.0,0.0,0.0,0.0,0.0,0.0,0.0,0.0,0.0,0.0,0.0,0.0,0.0,0.0,0.0,0.0,0.0,0.0,0.0,0.0,0.0,0.0,0.0,0.0,0.0,0.0,0.0,0.0,0.0,0.0,0.0,0.0,0.0,0.0,0.0,0.0,0.0,0.0,0.0,0.0,0.0,0.0,0.0,0.0,0.0,0.0,0.0,0.0,0.0,0.0,0.0,0.0,0.0,0.0,0.0,0.0,0.0,0.0,0.0,0.0,0.0,0.0,0.0,0.0,0.0,0.0,0.0,0.0,0.0,0.0,0.0,0.0,0.0,0.0,0.0,0.0,0.0,0.0,0.0,0.0,0.0,0.0,0.0,0.0,0.0,0.0,0.0,0.0,0.0,0.0,0.0,0.0,0.0,0.0,0.0,0.0,0.0,0.0,0.0,0.0,0.0,0.0,0.0,0.0,0.0,0.0,0.0,-1.0629,-1.0717,-1.1818,-1.2948,-1.4207,-1.3374,-1.3144,0.0,0.0,0.0,0.0,0.0,0.0,0.0,0.0,0.0,0.0,0.0,0.0,0.0,0.0,0.0,0.0,0.0,0.0,0.0,0.0,0.0,0.0,0.0,0.0,0.0,0.0,0.0,0.0,0.0,0.0,0.0,0.0,0.0,0.0,0.0,0.0,0.0,0.0,0.0,0.0,0.0,0.0,0.0,0.0,0.0,0.0,0.0,0.0,0.0,0.0,0.0,0.0,0.0,0.0,0.0,0.0,0.0,0.0,0.0,0.0,0.0,0.0,0.0,0.0,0.0,0.0,0.0,0.0,0.0,0.0,0.0,0.0,0.0,0.0,0.0,0.0,0.0,0.0,0.0,0.0,0.0,0.0,0.0,0.0,0.0,0.0,0.0,0.0,0.0,0.0,0.0,0.0,0.0,0.0,0.0,0.0,0.0,0.0,0.0,0.0,0.0,0.0,0.0,0.0,0.0,0.0,0.0,0.0,-1.0683,-1.0697,-1.1118,-1.2558,-1.4957,-1.5564,-1.5424,0.0,0.0,0.0,0.0,0.0,0.0,0.0,0.0,0.0,0.0,0.0,0.0,0.0,0.0,0.0,0.0,0.0,0.0,0.0,0.0,0.0,0.0,0.0,0.0,0.0,0.0,0.0,0.0,0.0,0.0,0.0,0.0,0.0,0.0,0.0,0.0,0.0,0.0,0.0,0.0,0.0,0.0,0.0,0.0,0.0,0.0,0.0,0.0,0.0,0.0,0.0,0.0,0.0,0.0,0.0,0.0,0.0,0.0,0.0,0.0,0.0,0.0,0.0,0.0,0.0,0.0,0.0,0.0,0.0,0.0,0.0,0.0,0.0,0.0,0.0,0.0,0.0,0.0,0.0,0.0,0.0,0.0,0.0,0.0,0.0,0.0,0.0,0.0,0.0,0.0,0.0,0.0,0.0,0.0,0.0,0.0,0.0,0.0,0.0,0.0,0.0,0.0,0.0,0.0,0.0,0.0,0.0,0.0,-1.0426,-1.0678,-1.2022,-1.3511,-1.5215,-1.4218,-1.3954,0.0,0.0,0.0,0.0,0.0,0.0,0.0,0.0,0.0,0.0,0.0,0.0,0.0,0.0,0.0,0.0,0.0,0.0,0.0,0.0,0.0,0.0,0.0,0.0,0.0,0.0,0.0,0.0,0.0,0.0,0.0,0.0,0.0,0.0,0.0,0.0,0.0,0.0,0.0,0.0,0.0,0.0,0.0,0.0,0.0,0.0,0.0,0.0,-2.1668,0.0,0.0,0.0,0.0,0.0,0.0,0.0,0.0,0.0,0.0,0.0,0.0,0.0,0.0,0.0,0.0,0.0,0.0,0.0,0.0,0.0,0.0,0.0,0.0,0.0,0.0,0.0,0.0,0.0,0.0,0.0,0.0,0.0,0.0,0.0,0.0,0.0,0.0,0.0,0.0,0.0,0.0,0.0,0.0,0.0,0.0,0.0,0.0,0.0,0.0,0.0,0.0,0.0,0.0,0.0,0.0,0.0,0.0,0.0,-1.0847,-1.2226,-1.2653,-1.3875,-1.5704,-1.5269,-1.4855,0.0,0.0,0.0,0.0,0.0,0.0,0.0,0.0,0.0,0.0,0.0,0.0,0.0,0.0,0.0,0.0,0.0,0.0,0.0,0.0,0.0,0.0,0.0,0.0,0.0,0.0,0.0,0.0,0.0,0.0,0.0,0.0,0.0,0.0,0.0,0.0,0.0,0.0,0.0,0.0,0.0,0.0,0.0,0.0,0.0,0.0,0.0,0.0,0.0,0.0,0.0,0.0,0.0,0.0,0.0,0.0,0.0,0.0,0.0,0.0,0.0,0.0,0.0,0.0,0.0,0.0,0.0,0.0,0.0,0.0,0.0,0.0,0.0,0.0,0.0,0.0,0.0,0.0,0.0,0.0,0.0,0.0,0.0,0.0,0.0,0.0,0.0,0.0,0.0,0.0,0.0,0.0,0.0,0.0,0.0,0.0,0.0,0.0,0.0,0.0,0.0,0.0,0.0,0.0,0.0,0.0,0.0,-0.9903,-1.1309,-1.3843,-1.3248,-1.4034,-1.6455,-1.7063,-1.6402,-1.475,0.0,0.0,0.0,0.0,0.0,0.0,0.0,0.0,0.0,0.0,0.0,0.0,0.0,0.0,0.0,0.0,0.0,0.0,0.0,0.0,0.0,0.0,0.0,0.0,0.0,0.0,0.0,0.0,0.0,0.0,0.0,0.0,0.0,0.0,0.0,0.0,0.0,0.0,-1.1626,-1.3814,0.0,0.0,0.0,0.0,0.0,0.0,0.0,0.0,-2.2154,0.0,0.0,0.0,0.0,0.0,0.0,0.0,0.0,0.0,0.0,0.0,0.0,0.0,0.0,0.0,0.0,0.0,0.0,0.0,0.0,0.0,0.0,0.0,0.0,0.0,0.0,0.0,0.0,0.0,0.0,0.0,0.0,0.0,0.0,0.0,0.0,0.0,0.0,0.0,0.0,0.0,0.0,0.0,0.0,0.0,0.0,0.0,0.0,0.0,0.0,0.0,0.0,0.0,0.0,0.0,0.0,-0.9856,-0.9903,-1.1178,-1.3701,-1.3992,-1.4712,-1.622,-1.7713,-1.7122,-1.4479,0.0,0.0,0.0,0.0,0.0,0.0,0.0,0.0,0.0,0.0,0.0,0.0,0.0,0.0,0.0,0.0,0.0,0.0,0.0,0.0,0.0,0.0,0.0,0.0,0.0,0.0,0.0,0.0,0.0,0.0,0.0,0.0,0.0,0.0,0.0,0.0,0.0,0.0,0.0,-1.5981,-1.9886,0.0,0.0,0.0,0.0,0.0,0.0,0.0,0.0,-2.2141,0.0,0.0,0.0,0.0,0.0,0.0,0.0,0.0,0.0,0.0,0.0,0.0,0.0,0.0,0.0,0.0,0.0,0.0,0.0,0.0,0.0,0.0,0.0,0.0,0.0,0.0,0.0,0.0,0.0,0.0,0.0,0.0,0.0,0.0,0.0,0.0,0.0,0.0,0.0,0.0,0.0,0.0,0.0,0.0,0.0,0.0,0.0,0.0,0.0,0.0,0.0,0.0,0.0,0.0,0.0,-0.9621,-1.0379,-1.1768,-1.362,-1.4646,-1.5729,-1.7085,-1.7966,-1.7044,0.0,0.0,0.0,0.0,0.0,0.0,0.0,0.0,0.0,0.0,0.0,0.0,0.0,0.0,0.0,0.0,0.0,0.0,0.0,0.0,0.0,0.0,0.0,0.0,0.0,0.0,0.0,0.0,0.0,0.0,0.0,0.0,0.0,0.0,0.0,0.0,0.0,0.0,0.0,0.0,-1.8842,-2.0703,-2.2423,0.0,0.0,0.0,0.0,0.0,0.0,-2.1943,-2.2066,0.0,0.0,0.0,0.0,0.0,0.0,0.0,0.0,0.0,0.0,0.0,0.0,0.0,0.0,0.0,0.0,0.0,0.0,0.0,0.0,0.0,0.0,0.0,0.0,0.0,0.0,0.0,0.0,0.0,0.0,0.0,0.0,0.0,0.0,0.0,0.0,0.0,0.0,0.0,0.0,0.0,0.0,0.0,0.0,0.0,0.0,0.0,0.0,0.0,0.0,0.0,0.0,0.0,0.0,0.0,-0.9511,-1.0859,-1.2603,-1.4431,-1.5413,-1.6583,-1.7805,-1.8058,-1.6963,0.0,0.0,0.0,0.0,0.0,0.0,0.0,0.0,0.0,0.0,0.0,0.0,0.0,0.0,0.0,0.0,0.0,0.0,0.0,0.0,0.0,0.0,0.0,0.0,0.0,0.0,0.0,0.0,0.0,0.0,0.0,0.0,0.0,0.0,0.0,0.0,0.0,0.0,0.0,0.0,0.0,-2.1268,-2.3151,-2.2831,0.0,0.0,0.0,0.0,-2.1523,-2.1943,0.0,0.0,0.0,0.0,0.0,0.0,0.0,0.0,0.0,0.0,0.0,0.0,0.0,0.0,0.0,0.0,0.0,0.0,0.0,0.0,0.0,0.0,0.0,0.0,0.0,0.0,0.0,0.0,0.0,0.0,0.0,0.0,0.0,0.0,0.0,0.0,0.0,0.0,0.0,0.0,0.0,0.0,0.0,0.0,0.0,0.0,0.0,0.0,0.0,0.0,0.0,0.0,0.0,0.0,0.0,0.0,-0.9504,-1.0859,-1.349,-1.6766,-1.6164,-1.6216,-1.7527,-1.7781,-1.7194,0.0,0.0,0.0,0.0,0.0,0.0,0.0,0.0,0.0,0.0,0.0,0.0,0.0,0.0,0.0,0.0,0.0,0.0,0.0,0.0,0.0,0.0,0.0,0.0,0.0,0.0,0.0,0.0,0.0,0.0,0.0,0.0,0.0,0.0,0.0,0.0,0.0,0.0,0.0,0.0,0.0,-2.3298,-2.4279,-2.343,-2.2488,0.0,0.0,-2.0974,-2.1812,-2.2174,0.0,0.0,0.0,0.0,0.0,0.0,0.0,0.0,0.0,0.0,0.0,0.0,0.0,0.0,0.0,0.0,0.0,0.0,0.0,0.0,0.0,0.0,0.0,0.0,0.0,0.0,0.0,0.0,0.0,0.0,0.0,0.0,0.0,0.0,0.0,0.0,0.0,0.0,0.0,0.0,0.0,0.0,0.0,0.0,0.0,0.0,0.0,0.0,0.0,0.0,0.0,0.0,0.0,0.0,0.0,-0.9381,-0.9511,-1.1684,-1.3822,-1.597,-1.6465,-1.6879,-1.7479,-1.7599,-1.6996,0.0,0.0,0.0,0.0,0.0,0.0,0.0,0.0,0.0,0.0,0.0,0.0,0.0,0.0,0.0,0.0,0.0,0.0,0.0,0.0,0.0,0.0,0.0,0.0,0.0,0.0,0.0,0.0,0.0,0.0,0.0,0.0,0.0,0.0,0.0,0.0,0.0,0.0,0.0,0.0,0.0,0.0,-2.3192,-2.3113,0.0,0.0,0.0,-2.1376,-2.1836,0.0,0.0,0.0,0.0,0.0,0.0,0.0,0.0,0.0,0.0,0.0,0.0,0.0,0.0,0.0,0.0,0.0,0.0,0.0,0.0,0.0,0.0,0.0,0.0,0.0,0.0,0.0,0.0,0.0,0.0,0.0,0.0,0.0,0.0,0.0,0.0,0.0,0.0,0.0,0.0,0.0,0.0,0.0,0.0,0.0,0.0,0.0,0.0,0.0,0.0,0.0,0.0,0.0,0.0,0.0,0.0,0.0,-0.9504,-1.2276,-1.4052,-1.4939,-1.656,-1.7479,-1.7479,-1.7479,0.0,0.0,0.0,0.0,0.0,0.0,0.0,0.0,0.0,0.0,0.0,0.0,0.0,0.0,0.0,0.0,0.0,0.0,0.0,0.0,0.0,0.0,0.0,0.0,0.0,0.0,0.0,-1.7625,0.0,0.0,0.0,0.0,0.0,0.0,0.0,0.0,0.0,0.0,0.0,0.0,0.0,0.0,-2.2271,-2.2343,-2.287,-2.2911,0.0,0.0,-2.1558,-2.2007,-2.2142,-2.2369,0.0,0.0,0.0,0.0,0.0,0.0,0.0,0.0,0.0,0.0,0.0,0.0,0.0,0.0,0.0,0.0,0.0,0.0,0.0,0.0,0.0,0.0,0.0,0.0,0.0,0.0,0.0,0.0,0.0,0.0,0.0,0.0,0.0,0.0,0.0,0.0,0.0,0.0,0.0,0.0,0.0,0.0,0.0,0.0,0.0,0.0,0.0,0.0,0.0,0.0,0.0,0.0,0.0,0.0,-0.9381,-0.9627,-1.2276,-1.4052,-1.4939,-1.656,-1.7479,-1.7479,-1.7479,-1.7479,0.0,0.0,0.0,0.0,0.0,0.0,0.0,0.0,0.0,0.0,0.0,0.0,0.0,0.0,0.0,0.0,0.0,0.0,0.0,0.0,0.0,0.0,0.0,0.0,0.0,0.0,0.0,0.0,0.0,0.0,0.0,0.0,0.0,0.0,0.0,0.0,0.0,0.0,0.0,0.0,0.0,-2.2481,-2.2756,-2.2882,-2.3031,0.0,-2.221,-2.1633,-2.2227,-2.2259,-2.2374,-2.2415,0.0,0.0,0.0,0.0,0.0,0.0,0.0,0.0,0.0,0.0,0.0,0.0,0.0,0.0,0.0,0.0,0.0,0.0,0.0,0.0,0.0,0.0,0.0,0.0,0.0,0.0,0.0,0.0,0.0,0.0,0.0,0.0,0.0,0.0,0.0,0.0,0.0,0.0,0.0,0.0,0.0,0.0,0.0,0.0,0.0,0.0,0.0,0.0,0.0,0.0,0.0,0.0,0.0,-0.9381,-0.9504,-1.2276,-1.3913,-1.4172,-1.6301,-1.7479,-1.7479,-1.7479,-1.7479,0.0,0.0,0.0,0.0,0.0,0.0,0.0,0.0,0.0,0.0,0.0,0.0,0.0,0.0,0.0,0.0,0.0,0.0,0.0,0.0,0.0,0.0,0.0,0.0,0.0,0.0,0.0,0.0,-1.8022,-1.7998,-1.7889,0.0,0.0,0.0,0.0,0.0,0.0,0.0,0.0,0.0,0.0,-2.2229,-2.2238,-2.2761,0.0,0.0,-2.215,-2.168,-2.2227,-2.1738,-2.1595,-2.2203,-2.0488,0.0,0.0,0.0,0.0,0.0,0.0,0.0,0.0,0.0,0.0,0.0,0.0,0.0,0.0,0.0,0.0,0.0,0.0,0.0,0.0,0.0,0.0,0.0,0.0,0.0,0.0,0.0,0.0,0.0,0.0,0.0,0.0,0.0,0.0,0.0,0.0,0.0,0.0,0.0,0.0,0.0,0.0,0.0,0.0,0.0,0.0,0.0,0.0,0.0,0.0,0.0,0.0,-0.9381,-0.9381,-1.2276,-1.3665,-1.3665,-1.6172,-1.7479,-1.7479,-1.7479,-1.7479,0.0,0.0,0.0,0.0,0.0,0.0,0.0,0.0,0.0,0.0,0.0,0.0,0.0,0.0,0.0,0.0,0.0,0.0,0.0,0.0,0.0,0.0,0.0,0.0,0.0,0.0,0.0,0.0,-1.8046,-1.7756,-1.7756,0.0,0.0,0.0,0.0,0.0,0.0,0.0,0.0,0.0,0.0,-2.1882,-2.1993,-2.2392,-2.2657,-2.2549,-2.2073,-2.1909,-2.2211,-2.1414,-2.0828,-2.1296,0.0,0.0,0.0,0.0,0.0,0.0,0.0,0.0,0.0,0.0,0.0,0.0,0.0,0.0,0.0,0.0,0.0,0.0,0.0,0.0,0.0,0.0,0.0,0.0,0.0,0.0,0.0,-1.7479,0.0,0.0,-1.6954,0.0,0.0,0.0,0.0,0.0,0.0,0.0,0.0,0.0,0.0,0.0,0.0,0.0,0.0,0.0,0.0,0.0,0.0,0.0,0.0,0.0,0.0,-0.9381,-0.9388,-1.2276,-1.3665,-1.3784,-1.6172,-1.7479,-1.7479,-1.7479,-1.7479,-1.7479,0.0,0.0,0.0,0.0,0.0,0.0,0.0,0.0,0.0,0.0,0.0,0.0,0.0,0.0,0.0,0.0,0.0,0.0,0.0,0.0,0.0,0.0,0.0,0.0,0.0,0.0,-1.8082,-1.7648,-1.7503,0.0,0.0,0.0,0.0,0.0,0.0,0.0,0.0,0.0,-2.0707,-2.069,-2.1088,-2.2066,-2.2042,-2.1993,-2.2223,-2.2313,-2.2275,-2.2357,-2.1377,-2.0332,0.0,0.0,0.0,0.0,0.0,0.0,0.0,0.0,0.0,0.0,0.0,0.0,0.0,0.0,0.0,0.0,0.0,0.0,0.0,0.0,0.0,0.0,0.0,0.0,0.0,0.0,0.0,-1.7019,-1.6842,0.0,0.0,0.0,0.0,0.0,0.0,0.0,0.0,0.0,0.0,0.0,-1.4966,-1.481,0.0,0.0,0.0,0.0,0.0,0.0,0.0,0.0,0.0,0.0,0.0,0.0,-0.9381,-0.9511,-1.2276,-1.3665,-1.3784,-1.6172,-1.7479,-1.7479,-1.7479,-1.7479,-1.7479,0.0,0.0,0.0,0.0,0.0,0.0,0.0,0.0,0.0,0.0,0.0,0.0,0.0,0.0,0.0,0.0,0.0,0.0,0.0,0.0,0.0,0.0,0.0,0.0,0.0,-1.901,0.0,0.0,0.0,0.0,0.0,0.0,0.0,0.0,0.0,0.0,-1.9661,-1.9687,-1.9657,-2.0287,-2.0738,-2.0766,-2.1329,-2.1583,0.0,0.0,0.0,0.0,0.0,0.0,0.0,0.0,0.0,0.0,0.0,0.0,0.0,-2.5641,-2.4918,-2.309,-2.3754,-2.4125,-2.2595,0.0,0.0,0.0,0.0,0.0,0.0,0.0,0.0,0.0,0.0,0.0,0.0,0.0,0.0,-1.7193,-1.6689,-1.6428,0.0,0.0,0.0,0.0,0.0,0.0,0.0,0.0,-1.7225,-1.6844,-1.6279,-1.611,-1.5332,0.0,-1.266,-1.1496,0.0,0.0,0.0,0.0,0.0,0.0,0.0,0.0,-0.9606,-1.02,-1.2504,-1.3904,-1.4381,-1.6408,-1.7479,-1.7479,-1.7479,-1.7479,-1.7479,-1.7479,-1.7479,0.0,0.0,0.0,0.0,0.0,0.0,0.0,0.0,0.0,0.0,0.0,0.0,0.0,0.0,0.0,0.0,0.0,0.0,0.0,0.0,0.0,0.0,0.0,-1.8565,0.0,0.0,0.0,0.0,0.0,0.0,0.0,0.0,0.0,-1.9148,-1.9101,-1.9212,-1.9546,-1.9918,-2.0221,-2.0395,0.0,0.0,0.0,0.0,0.0,0.0,0.0,-1.9877,-2.0557,-2.069,-2.1059,-2.2304,-2.4919,-2.7055,-2.7251,0.0,0.0,-2.5982,-2.6013,-2.5897,-2.4856,-2.4142,-2.5032,-3.0395,-3.1437,-3.1399,0.0,0.0,0.0,0.0,0.0,0.0,0.0,0.0,-1.696,-1.6875,0.0,-1.6393,0.0,0.0,0.0,0.0,-1.6646,-1.667,0.0,0.0,-1.743,-1.7467,-1.7467,-1.7443,-1.6856,-1.5537,-1.4122,-1.3336,-1.2908,-1.0462,0.0,0.0,0.0,0.0,0.0,0.0,-1.0069,-1.1216,-1.2867,-1.4262,-1.5569,-1.6879,-1.7479,-1.7479,-1.7479,-1.7479,-1.7479,-1.7479,-1.7479,-1.7479,-1.7479,0.0,0.0,0.0,0.0,0.0,0.0,0.0,0.0,0.0,0.0,0.0,0.0,0.0,0.0,0.0,0.0,0.0,0.0,0.0,0.0,-1.7733,0.0,0.0,0.0,0.0,0.0,0.0,0.0,0.0,0.0,-1.8547,-1.9072,-1.9131,-1.9464,-2.0521,0.0,0.0,0.0,0.0,-2.0062,-2.0569,-2.0735,-2.0737,-2.0749,-2.0658,-2.0731,-2.0661,0.0,0.0,-2.516,-2.77,-2.8919,-2.774,-2.8547,-2.9298,-2.9266,-2.8228,-2.7946,-2.8958,-2.743,-2.7321,-3.042,-3.1389,-3.1453,-1.4524,0.0,0.0,0.0,0.0,-1.6149,-1.689,-1.7467,-1.7322,-1.7424,-1.7677,-1.7202,0.0,0.0,0.0,0.0,0.0,0.0,-1.6598,-1.6923,-1.6923,-1.702,-1.7201,-1.7008,-1.6696,-1.6343,-1.5009,-1.4282,-1.4054,-1.1638,-1.0293,-1.0131,0.0,0.0,0.0,0.0,-1.0069,-1.1339,-1.2858,-1.4262,-1.5569,-1.6891,-1.7479,-1.7479,-1.7479,-1.7479,-1.7479,-1.7479,-1.7479,-1.7479,-1.7479,0.0,0.0,0.0,0.0,0.0,0.0,0.0,0.0,0.0,0.0,0.0,0.0,0.0,0.0,0.0,0.0,0.0,0.0,0.0,-1.7457,-1.7733,-1.7901,0.0,0.0,0.0,0.0,0.0,0.0,0.0,0.0,0.0,-1.9078,-1.9735,-2.001,0.0,0.0,-1.9676,-1.9652,-1.9603,-1.9712,-2.0062,-2.049,0.0,-2.0683,-2.0617,-2.0702,-2.0659,-2.1339,-2.2777,-2.5347,-2.7755,-2.9262,-2.8738,-2.901,-2.9298,-2.9298,-2.901,-2.9328,-3.0356,-2.9881,-2.9579,-3.105,-3.1356,-3.1349,-1.6552,-1.5088,-1.4999,-1.5341,-1.6022,-1.6736,-1.7237,-1.7467,-1.7596,-1.7831,-1.8039,-1.7908,-1.8064,-1.8604,-1.8478,0.0,0.0,0.0,-1.6979,-1.7142,-1.6806,-1.6791,-1.6923,-1.6779,-1.6694,-1.6594,-1.5445,-1.4975,-1.5175,-1.2729,-1.174,-1.1991,0.0,-0.9809,-1.0249,-1.0514,-1.1363,-1.2698,-1.3723,-1.5001,-1.6279,-1.7126,-1.7479,-1.7479,-1.7479,-1.7479,-1.7479,-1.7479,-1.7479,-1.7479,-1.7479,-1.7713,0.0,0.0,0.0,0.0,0.0,0.0,0.0,0.0,0.0,0.0,0.0,-1.7479,-1.7479,0.0,0.0,0.0,-1.7479,-1.7457,-1.7457,-1.7649,0.0,0.0,0.0,0.0,0.0,0.0,0.0,-1.9683,-1.9328,-1.8932,-1.9136,-1.9597,-1.9764,-1.9232,-1.9388,-1.9531,-1.9265,0.0,-1.9698,-2.0497,-2.0368,-2.0488,-2.0707,-2.2138,-2.2862,-2.1475,-2.3456,-2.551,-2.6852,-2.8397,-2.9199,-2.9345,-2.9298,-2.9298,-2.9298,-2.9298,-2.9569,-3.0454,-3.0648,-3.0794,-3.0643,-3.0505,-3.068,-1.7434,-1.7313,-1.5794,-1.5966,-1.7117,-1.7207,-1.7341,-1.7523,-1.7917,-1.8151,-1.8407,-1.8507,-1.859,-1.8921,-1.8654,0.0,-1.8842,-1.8009,-1.7733,-1.7981,-1.7105,-1.6782,-1.6782,-1.6646,-1.6634,-1.6634,-1.5389,-1.5378,-1.6138,-1.392,-1.3267,-1.4277,-1.2091,-1.1437,-1.2318,-1.2515,-1.3394,-1.4972,-1.5106,-1.5926,-1.7479,-1.7479,-1.7479,-1.7479,-1.7479,-1.7479,-1.7479,-1.7596,-1.7596,-1.7491,-1.7596,-1.8064,-1.8881,0.0,0.0,0.0,0.0,0.0,0.0,0.0,0.0,0.0,0.0,0.0,0.0,0.0,0.0,-1.7479,-1.7503,0.0,-1.7577,-1.7541,0.0,0.0,0.0,-1.8131,-1.8625,-1.8915,-1.8848,-1.8459,0.0,0.0,-1.9108,-1.9072,-1.91,-1.9158,-1.9096,-1.9146,-1.947,-1.9553,-2.0042,-2.1121,-2.0722,-2.0415,-2.0897,-2.4204,-2.5958,-2.346,-2.632,-2.8885,-2.912,-2.9231,-2.9328,-2.9329,-2.9298,-2.9298,-2.9298,-2.9298,-2.9233,-2.9356,-3.0339,-3.0759,-2.9727,-2.9431,-2.9735,-1.7539,-1.7467,-1.7113,-1.7089,-1.7487,-1.7855,-1.8021,-1.816,-1.8722,-1.9234,-1.9621,-1.9227,-1.9582,-2.0416,-1.9717,-1.9405,-1.9493,-1.8772,-1.8482,-1.855,-1.7803,-1.7367,-1.7367,-1.6501,-1.6079,-1.6079,-1.5754,-1.5719,-1.5875,-1.457,-1.444,-1.5351,-1.4051,-1.3068,-1.2427,-1.2515,-1.3394,-1.4972,-1.5106,-1.5926,-1.7467,-1.7479,-1.7479,-1.7479,-1.7479,-1.7479,-1.7479,-1.8181,-1.8181,-1.7596,-1.8868,-1.9461,-1.8868,-1.8868,0.0,0.0,0.0,0.0,0.0,0.0,0.0,0.0,0.0,-1.7479,-1.7479,0.0,-1.7479,0.0,-1.7921,-1.8068,-1.8129,-1.8143,0.0,0.0,-1.8456,-1.8541,-1.8674,-1.8915,-1.9048,-1.8988,-1.9096,-1.9285,-1.9084,-1.9127,-1.9139,-1.91,-1.9124,-1.91,-1.9169,-1.9927,-2.0361,-2.0567,-2.1992,-2.2712,-2.1419,-2.4288,-2.6846,-2.6239,-2.7817,-2.9266,-2.9329,-2.9361,-2.9345,-2.9298,-2.9298,-2.9298,-2.9298,-2.9298,-2.9314,-2.9249,-2.9649,-2.9808,-2.987,-2.9602,-2.9626,-1.7438,-1.7426,-1.7646,-1.7802,-1.769,-1.8109,-1.8472,-1.8776,-1.9358,-1.9706,-1.9807,-1.9583,-2.0061,-2.082,-2.028,-1.9974,-1.999,-1.9479,-1.9132,-1.8883,-1.7728,-1.7277,-1.7381,-1.6256,-1.5773,-1.5885,-1.5895,-1.5895,-1.5885,-1.5244,-1.5244,-1.5885,-1.5244,-1.4589,-1.3943,-1.407,-1.4581,-1.5612,-1.5852,-1.646,-1.7298,-1.7418,-1.743,-1.7322,-1.7418,-1.7664,-1.789,-1.8584,-1.8648,-1.8181,-1.9113,-1.9693,-1.9577,-1.9577,-1.9924,0.0,0.0,0.0,0.0,0.0,0.0,0.0,0.0,0.0,0.0,0.0,-1.7527,-1.7505,-1.7924,-1.8443,-1.8592,-1.8472,-1.8384,-1.8613,-1.9037,-1.9512,-1.9649,-2.0195,-2.0043,-1.9193,-1.9054,-1.9054,-1.9054,-1.9132,-1.9815,-2.1457,-2.0182,-1.9218,-1.9711,-2.0156,-2.0707,-2.1793,-2.2937,-2.3912,-2.3474,-2.5618,-2.7214,-2.7339,-2.8395,-2.9325,-2.9234,-2.9298,-2.9298,-2.9298,-2.9298,-2.9298,-2.9298,-2.9298,-2.9298,-2.9298,-2.9298,-2.9377,-2.9568,-2.9549,-2.9545,-1.7399,-1.7375,-1.8045,-1.8216,-1.8189,-1.844,-1.8847,-1.9358,-1.9876,-1.9956,-1.9596,-1.9834,-2.0149,-2.0668,-2.0436,-2.0321,-2.0337,-1.9928,-1.949,-1.9004,-1.7585,-1.7015,-1.7016,-1.5959,-1.5573,-1.5777,-1.5793,-1.5817,-1.5837,-1.5837,-1.5861,-1.5885,-1.5885,-1.5885,-1.5885,-1.5885,-1.603,-1.6308,-1.6827,-1.7092,-1.7092,-1.7346,-1.737,-1.7165,-1.7358,-1.7836,-1.8529,-1.8866,-1.9113,-1.9113,-1.9345,-1.9679,-2.0371,-2.05,-2.0845,0.0,-2.1517,0.0,0.0,0.0,0.0,0.0,0.0,0.0,0.0,-1.7584,-1.7445,-1.7457,-1.7997,-1.853,-1.9,-1.8742,-1.879,-1.9255,-2.0116,-2.0783,-2.1146,-2.1765,-2.1519,-1.9688,-1.9537,-1.955,-1.9978,-1.9827,-2.1366,-2.4014,-2.2244,-2.0545,-2.0829,-2.076,-2.1477,-2.4172,-2.3546,-2.3924,-2.6222,-2.6988,-2.7144,-2.7383,-2.8371,-2.9281,-2.9583,-2.9712,-2.9568,-2.9585,-2.9728,-2.9568,-2.9393,-2.9409,-2.9568,-2.9728,-2.9552,-2.9393,-2.9314,-2.9393,-2.9457,-1.7588,-1.8752,-1.8197,-1.859,-1.9721,-1.9779,-1.9764,-1.9997,-2.0246,-2.0184,-1.9854,-1.9924,-1.965,-1.9259,-1.9728,-1.9971,-1.9971,-1.9937,-1.9429,-1.8775,-1.7782,-1.7109,-1.6557,-1.5783,-1.5377,-1.5258,-1.5426,-1.5548,-1.5572,-1.5572,-1.568,-1.5885,-1.5885,-1.5885,-1.5885,0.0,0.0,0.0,-1.6815,-1.7092,-1.7105,-1.7346,-1.7455,-1.7406,-1.7455,0.0,-1.8803,-1.9666,-2.004,-2.004,-2.1417,0.0,0.0,0.0,0.0,0.0,0.0,0.0,0.0,0.0,0.0,0.0,-1.9924,-1.9809,-1.9693,-1.8339,-1.7491,-1.7565,-1.7997,-1.8483,-1.91,-1.961,-1.9962,-2.0284,-2.1644,-2.2423,-2.2062,-2.2495,-2.2563,-2.1672,-2.1532,-2.2118,-2.3532,-2.3893,-2.4158,-2.4843,-2.4469,-2.3678,-2.3106,-2.2906,-2.3093,-2.3392,-2.3609,-2.4622,-2.6816,-2.7248,-2.7209,-2.7406,-2.8301,-2.9705,-3.0831,-3.1209,-3.1135,-3.1135,-3.1135,-3.0643,-2.9595,-3.0277,-3.101,-3.1135,-3.0118,-2.9312,-2.925,-2.9344,-2.9404,-1.8672,-1.8632,-1.8863,-1.9256,0.0,-2.0086,-2.02,-2.003,-2.0263,-2.0213,-1.9846,-1.9542,-1.9114,-1.8824,-1.9382,-1.9622,-1.9622,-1.9797,-1.9587,-1.9043,-1.7862,-1.7147,-1.6887,-1.5531,-1.4959,-1.5101,-1.4968,-1.5052,-1.5294,-1.5306,-1.5439,-1.5692,-1.5692,-1.5765,-1.5885,-1.5885,-1.5958,-1.6091,-1.6489,-1.6754,-1.6899,-1.7153,-1.7286,-1.7298,-1.7873,0.0,0.0,0.0,0.0,0.0,0.0,0.0,0.0,-2.1343,0.0,-2.2875,-2.2131,-2.1645,-2.1645,-2.1645,-2.1645,-2.1645,-2.1645,-2.1318,-2.0787,-1.8803,-1.7455,-1.7494,-1.8227,-1.9157,-2.0073,-2.0565,-2.1173,-2.1811,-2.3076,-2.3698,-2.3464,-2.3713,-2.3961,-2.3728,-2.3604,-2.4052,-2.4937,-2.503,-2.5122,-2.5061,-2.503,-2.4951,-2.4409,-2.3762,-2.3493,-2.3956,-2.4981,-2.6065,-2.7286,-2.7354,-2.7185,-2.7295,-2.7845,-2.9423,-3.2158,-3.2719,-3.2403,-3.1841,-3.1559,-3.1367,-3.1034,-3.1226,-3.1576,-3.1294,-3.0751,-3.026,-2.9981,-2.9505,-2.9504,-1.9583,-1.8562,-1.9447,-1.9583,-1.929,-1.999,-2.0098,-1.9797,-2.0098,0.0,0.0,-1.9079,-1.8784,-1.8816,-1.9162,-1.9272,-1.9288,-1.9558,-1.9526,-1.9083,-1.7802,-1.7175,-1.7007,-1.5164,-1.4521,-1.4944,-1.4529,-1.4588,-1.5101,-1.5113,-1.527,-1.5547,-1.5572,-1.568,-1.5873,-1.5885,-1.5885,-1.5897,-1.6151,-1.6416,-1.6694,-1.696,-1.7117,-1.7165,-1.8288,-1.9225,-2.0005,-2.1028,-2.1729,-2.1843,-2.1601,-2.1571,-2.1457,-2.1586,-2.1941,-2.2893,-2.3022,-2.3022,-2.3022,-2.3022,-2.3022,-2.3022,-2.3022,-2.2601,-2.155,-1.9679,-1.8181,-1.7529,-1.8746,-2.0225,-2.1602,-2.1962,-2.2448,-2.342,-2.4564,-2.5194,-2.5071,-2.5333,-2.5456,-2.5178,-2.504,-2.5056,-2.5071,-2.5087,-2.5087,-2.5103,-2.5119,-2.529,-2.5386,-2.481,-2.4471,-2.5565,-2.6487,-2.7422,-2.8196,-2.8443,-2.78,-2.7756,-2.8207,-2.9614,-3.2521,-3.3769,-3.326,-3.2263,-3.1982,-3.2158,-3.2491,-3.2298,-3.1859,-3.1452,-3.1401,-3.1508,-3.096,-3.0484,-3.0425,-1.882,-1.9574,-1.9079,-1.9231,-1.9842,-1.994,-1.9749,-1.9447,-1.9495,-1.9288,-1.8907,-1.8859,-1.8751,-1.8798,-1.8891,-1.8907,-1.8907,-1.8955,-1.8567,-1.7961,-1.7665,-1.6928,-1.5639,-1.4734,-1.4364,-1.4401,-1.4377,-1.4618,-1.5065,-1.5113,-1.5354,-1.5777,-1.5837,-1.5849,-1.5885,-1.5885,-1.5885,-1.5897,-1.6163,-1.6441,-1.6694,-1.696,-1.7201,-1.7418,-1.8389,-1.9319,-2.02,-2.1145,-2.1972,-2.278,-2.278,-2.278,-2.278,-2.2765,-2.278,-2.3006,-2.3022,-2.3022,-2.3022,-2.3022,-2.3022,-2.3022,-2.3022,-2.2956,-2.2726,-2.2475,-2.0959,-1.8059,-1.9965,-2.2142,-2.3475,-2.3925,-2.4316,-2.5067,-2.6537,-2.728,-2.6675,-2.7039,-2.6866,-2.5368,-2.506,-2.5108,-2.5343,-2.5221,-2.5114,-2.5071,-2.5381,-2.5772,-2.7052,-2.7084,-2.6986,-2.7556,-2.749,-2.7769,-2.8871,-3.0145,-3.0031,-2.9121,-3.099,-3.2258,-3.2811,-3.3486,-3.3605,-3.3539,-3.3381,-3.34,-3.3557,-3.3539,-3.326,-3.3103,-3.2385,-3.1879,-3.2211,-3.2439,-3.2667,-1.8962,-1.9279,-1.9341,-1.9458,-1.959,-1.9383,-1.9225,-1.9082,-1.9082,-1.8986,-1.8843,-1.8827,-1.8827,-1.8827,-1.8827,-1.8827,-1.8827,-1.8827,-1.8643,-1.8257,-1.7885,-1.7311,-1.6655,-1.5549,-1.4994,-1.4867,-1.5236,-1.5243,-1.4896,-1.5028,-1.5294,-1.5668,-1.5825,-1.5813,-1.5692,-1.5825,-1.5767,-1.566,-1.6054,-1.6649,-1.7576,-1.7742,-1.825,-1.8984,-1.991,-2.0587,-2.0945,-2.1858,-2.2554,-2.3006,-2.3022,-2.3022,-2.3022,-2.3022,-2.3022,-2.3022,-2.3022,-2.3022,-2.3022,-2.3022,-2.3022,-2.3022,-2.3022,-2.3038,-2.2988,-2.3001,-2.191,-1.9483,-2.1814,-2.3896,-2.4827,-2.5087,-2.5575,-2.6227,-2.7401,-2.79,-2.7539,-2.7418,-2.7125,-2.6315,-2.6177,-2.6365,-2.7158,-2.5968,-2.54,-2.5928,-2.6215,-2.6918,-2.814,-2.8559,-2.858,-2.8533,-2.8488,-2.8702,-2.9674,-3.071,-3.106,-3.0442,-3.1516,-3.2689,-3.2998,-3.3576,-3.3705,-3.3882,-3.3817,-3.3817,-3.3817,-3.3817,-3.3678,-3.3224,-3.3152,-3.2838,-3.2788,-3.3296,-3.3635,-1.9162,-1.8824,-1.9398,-1.9479,-1.9225,-1.8955,-1.8827,-1.8827,-1.8827,-1.8827,-1.8827,-1.8827,-1.8827,-1.8827,-1.8827,-1.8827,-1.8827,-1.8827,-1.8827,-1.8735,-1.8164,-1.7885,-1.7591,-1.6518,-1.5778,-1.5452,-1.5686,-1.5464,-1.491,-1.5016,-1.5246,-1.5499,-1.5765,-1.5765,-1.5511,-1.5813,-1.5851,-1.5612,-1.6393,-1.7363,-1.8348,-1.8784,-1.9494,-2.0458,-2.1502,-2.207,-2.207,-2.2877,-2.3344,-2.3247,-2.3247,-2.3119,-2.3022,-2.3022,-2.3022,-2.3022,-2.3022,-2.3022,-2.3022,-2.3022,-2.3022,-2.3022,-2.3022,-2.3022,-2.3022,-2.2988,-2.2472,-2.1496,-2.3273,-2.5094,-2.5829,-2.6099,-2.6473,-2.7227,-2.7847,-2.8259,-2.814,-2.7779,-2.7418,-2.7418,-2.7418,-2.7867,-2.8353,-2.7297,-2.6486,-2.7244,-2.7589,-2.7899,-2.8794,-2.9524,-2.9502,-2.9532,-2.9561,-2.996,-3.0455,-3.1009,-3.1358,-3.1335,-3.1465,-3.2016,-3.2998,-3.3587,-3.3811,-3.3863,-3.3817,-3.3817,-3.3817,-3.3817,-3.3678,-3.3242,-3.3363,-3.3521,-3.3085,-3.349,-3.3988,-1.8798,-1.8814,-1.8862,-1.8907,-1.8891,-1.8843,-1.8827,-1.8827,-1.8827,-1.8827,-1.8827,-1.8827,-1.8827,-1.8827,-1.8827,-1.8827,-1.8827,-1.8827,-1.8827,-1.8827,-1.8735,-1.835,-1.7699,-1.6951,-1.6103,-1.5439,-1.4917,-1.4912,-1.5141,-1.5101,-1.5246,-1.5499,-1.5765,-1.5753,-1.5572,-1.5994,-1.6078,-1.5874,-1.7477,-1.8398,-1.8778,-1.9893,-2.0696,-2.1001,-2.2507,-2.3199,-2.3199,-2.4111,-2.4351,-2.3921,-2.3809,-2.3585,-2.3135,-2.3022,-2.3022,-2.3022,-2.3022,-2.3022,-2.3022,-2.3022,-2.3022,-2.3022,-2.3022,-2.3022,-2.3022,-2.3022,-2.2909,-2.2909,-2.3926,-2.5116,-2.632,-2.6664,-2.7097,-2.7993,-2.8555,-2.8856,-2.8856,-2.8856,-2.8856,-2.8856,-2.8618,-2.8911,-2.8919,-2.8523,-2.8546,-2.8569,-2.8272,-2.8552,-3.0302,-3.0229,-3.0319,-3.0828,-3.1212,-3.1083,-3.1249,-3.1377,-3.1414,-3.1358,-3.1366,-3.1896,-3.2716,-3.3403,-3.3762,-3.3863,-3.3817,-3.3817,-3.3817,-3.3817,-3.3817,-3.3678,-3.3678,-3.3817,-3.3714,-3.3933,-3.4207,-1.8827,-1.8827,-1.8827,-1.8827,-1.8827,-1.8827,-1.8827,-1.8827,-1.8827,-1.8827,-1.8827,-1.8827,-1.8827,-1.8827,-1.8827,-1.8827,-1.8827,-1.8827,-1.8827,-1.8827,-1.8827,-1.8643,-1.835,-1.8071,-1.7512,-1.6777,-1.6566,-1.6286,-1.5758,-1.5462,-1.5318,-1.5294,-1.5523,-1.5836,-1.6049,-1.6254,-1.6187,-1.6042,-1.8477,-2.0612,-2.2024,-2.1933,-2.2255,-2.3279,-2.3871,-2.4223,-2.4206,-2.4556,-2.4573,-2.3921,-2.3921,-2.3585,-2.3022,-2.3022,-2.3022,-2.3022,-2.3022,-2.3022,-2.3022,-2.3022,-2.3022,-2.3022,-2.3022,-2.3022,-2.3022,-2.3022,-2.299,-2.3055,-2.3503,-2.3954,-2.4653,-2.6136,-2.7434,-2.8002,-2.8637,-2.8975,-2.8975,-2.8975,-2.8975,-2.8975,-2.8975,-2.8993,-2.9048,-2.8947,-2.9021,-2.9034,-2.9008,-2.9813,-3.1058,-3.0956,-3.0938,-3.1322,-3.1377,-3.1377,-3.1377,-3.1377,-3.1377,-3.1451,-3.1353,-3.1751,-3.2984,-3.3545,-3.3853,-3.378,-3.3817,-3.3817,-3.3817,-3.3817,-3.3817,-3.3817,-3.3817,-3.3817,-3.3817,-3.4128,-3.4526,-1.8827,-1.8827,-1.8827,-1.8827,-1.8827,-1.8827,-1.8827,-1.8827,-1.8827,-1.8827,-1.8827,-1.8827,-1.8827,-1.8827,-1.8827,-1.8827,-1.8827,-1.8827,-1.8827,-1.8827,-1.8827,-1.8875,-1.897,-1.8691,-1.8396,-1.7958,-1.7787,-1.7329,-1.6481,-1.6164,-1.5858,-1.567,-1.5934,-1.6381,-1.6733,-1.6893,-1.6804,-1.6439,-1.943,-2.2479,-2.4699,-2.4003,-2.3871,-2.4889,-2.5221,-2.5348,-2.5331,-2.5348,-2.4906,-2.4239,-2.4128,-2.3809,-2.3022,-2.3022,-2.3022,-2.3022,-2.3022,-2.3022,-2.3022,-2.3022,-2.3022,-2.3022,-2.3022,-2.3022,-2.3006,-2.299,-2.3039,-2.3055,-2.3579,-2.4139,-2.429,-2.5883,-2.7133,-2.7759,-2.8546,-2.8975,-2.8975,-2.8975,-2.8975,-2.8975,-2.8975,-2.8975,-2.8993,-2.8993,-2.8947,-2.9101,-2.9696,-3.0493,-3.1164,-3.1357,-3.1359,-3.1377,-3.1377,-3.1377,-3.1377,-3.1377,-3.1377,-3.1358,-3.1465,-3.1993,-3.346,-3.3718,-3.3779,-3.3798,-3.3817,-3.3817,-3.3817,-3.3817,-3.3817,-3.3817,-3.3817,-3.3817,-3.3817,-3.422,-3.4907,-1.8827,-1.8827,-1.8827,-1.8827,-1.8827,-1.8827,-1.8827,-1.8827,-1.8827,-1.8827,-1.8827,-1.8827,-1.8827,-1.8827,-1.8827,-1.8827,-1.8827,-1.8827,-1.8827,-1.8827,-1.8843,-1.9018,-1.9336,-1.856,-1.8243,-1.8168,-1.7625,-1.7202,-1.6981,-1.7161,-1.7161,-1.6912,-1.7337,-1.759,-1.7608,-1.8476,-1.8373,-1.7533,-2.0477,-2.3713,-2.6074,-2.5803,-2.5459,-2.5679,-2.6245,-2.6464,-2.6482,-2.6482,-2.5916,-2.4778,-2.4778,-2.4239,-2.3119,-2.3022,-2.3022,-2.3022,-2.3022,-2.3022,-2.3022,-2.3022,-2.3022,-2.3022,-2.3022,-2.3022,-2.3119,-2.3055,-2.3071,-2.3037,-2.4965,-2.6152,-2.6113,-2.6388,-2.7025,-2.8063,-2.867,-2.8938,-2.8975,-2.8975,-2.8975,-2.8975,-2.8975,-2.8975,-2.8975,-2.8975,-2.8992,-2.9148,-2.9668,-3.053,-3.1119,-3.1414,-3.1377,-3.1377,-3.1377,-3.1377,-3.1377,-3.1377,-3.1377,-3.1413,-3.1534,-3.1907,-3.3016,-3.3848,-3.389,-3.3798,-3.3817,-3.3817,-3.3817,-3.3817,-3.3817,-3.3817,-3.3817,-3.3817,-3.3769,-3.4532,-3.524,-1.8827,-1.8827,-1.8827,-1.8827,-1.8827,-1.8827,-1.8827,-1.8827,-1.8827,-1.8827,-1.8827,-1.8827,-1.8827,-1.8827,-1.8827,-1.8827,-1.8827,-1.8827,-1.8827,-1.8859,-1.9066,-1.9129,-1.8956,-1.8957,-1.8847,-1.8566,-1.8348,-1.7958,-1.7436,-1.7244,-1.705,-1.6896,-1.7358,-1.7796,-1.8325,-1.8929,-1.9453,-2.0234,-2.2198,-2.4161,-2.6352,-2.6445,-2.6245,-2.6245,-2.6464,-2.6591,-2.6591,-2.6591,-2.6245,-2.5348,-2.5,-2.4317,-2.3151,-2.299,-2.3022,-2.3022,-2.3022,-2.3022,-2.3022,-2.3022,-2.3022,-2.3022,-2.3022,-2.3247,-2.3456,-2.3263,-2.3294,-2.4293,-2.5586,-2.6573,-2.668,-2.6965,-2.7555,-2.848,-2.8923,-2.8975,-2.8975,-2.8975,-2.8975,-2.8975,-2.8975,-2.8975,-2.8975,-2.8975,-2.8947,-2.9083,-2.9715,-3.0475,-3.1113,-3.1357,-3.1377,-3.1377,-3.1377,-3.1377,-3.1377,-3.1377,-3.1451,-3.1465,-3.1565,-3.232,-3.32,-3.3742,-3.378,-3.3817,-3.3817,-3.3817,-3.3817,-3.3817,-3.3817,-3.3817,-3.3817,-3.3824,-3.3793,-3.4536,-3.5281,-1.8827,-1.8827,-1.8827,-1.8827,-1.8827,-1.8827,-1.8827,-1.8827,-1.8827,-1.8827,-1.8827,-1.8827,-1.8827,-1.8827,-1.8827,-1.8827,-1.8827,-1.8827,-1.8827,-1.8843,-1.9082,-1.9129,-1.9066,-1.9256,-1.9241,-1.9018,-1.8875,-1.855,-1.8087,-1.7734,-1.753,-1.7384,-1.8072,-1.8676,-1.9124,-2.0091,-2.1278,-2.2484,-2.3601,-2.4941,-2.639,-2.6646,-2.6591,-2.6591,-2.6591,-2.6591,-2.6591,-2.6591,-2.6354,-2.5789,-2.5348,-2.4539,-2.3487,-2.3087,-2.3022,-2.3022,-2.3022,-2.3022,-2.3022,-2.3022,-2.3022,-2.3006,-2.3247,-2.3472,-2.3809,-2.371,-2.3978,-2.4896,-2.5898,-2.6573,-2.6864,-2.7526,-2.8406,-2.8878,-2.9016,-2.8975,-2.8975,-2.8975,-2.8975,-2.8975,-2.8975,-2.8975,-2.8975,-2.8975,-2.8984,-2.8992,-2.9592,-3.0383,-3.1239,-3.1447,-3.1377,-3.1377,-3.1377,-3.1377,-3.1377,-3.1377,-3.1377,-3.1407,-3.2276,-3.2906,-3.3175,-3.356,-3.3798,-3.3817,-3.3817,-3.3817,-3.3817,-3.3817,-3.3817,-3.3817,-3.3806,-3.3812,-3.4121,-3.4503,-3.5247,-1.8827,-1.892,-1.8827,-1.8827,-1.8827,-1.8827,-1.8827,-1.8827,-1.8827,-1.8827,-1.8827,-1.8827,-1.8827,-1.8827,-1.8827,-1.8827,-1.8827,-1.8827,-1.8827,-1.8843,-1.8891,-1.905,-1.9272,-1.9336,-1.9336,-1.9241,-1.8986,-1.8827,-1.8735,-1.8674,-1.8582,-1.8941,-1.9634,-1.9948,-1.9892,-2.1812,-2.3161,-2.3759,-2.478,-2.5842,-2.65,-2.6646,-2.6591,-2.6591,-2.6591,-2.6591,-2.6591,-2.6591,-2.6354,-2.5898,-2.5679,-2.5128,-2.3904,-2.3344,-2.3022,-2.3022,-2.3022,-2.3022,-2.3022,-2.3022,-2.3022,-2.3135,-2.3585,-2.3809,-2.4016,-2.4361,-2.4734,-2.5116,-2.5863,-2.661,-2.6882,-2.7976,-2.8936,-2.8946,-2.9028,-2.8975,-2.8975,-2.8975,-2.8975,-2.8975,-2.8975,-2.8975,-2.8975,-2.8975,-2.9039,-2.9148,-2.9509,-3.0281,-3.1138,-3.1414,-3.1359,-3.1377,-3.1377,-3.1377,-3.1377,-3.1396,-3.1468,-3.1593,-3.2821,-3.361,-3.3521,-3.3872,-3.378,-3.3817,-3.3817,-3.3817,-3.3787,-3.3787,-3.3751,-3.3787,-3.3793,-3.4012,-3.4678,-3.5045,-3.543,-1.9232,-1.9712,-1.9104,-1.8827,-1.8827,-1.8827,-1.8827,-1.8827,-1.8827,-1.8827,-1.8827,-1.8827,-1.8827,-1.8827,-1.8827,-1.8827,-1.8827,-1.8827,-1.8827,-1.8859,-1.9082,-1.9098,-1.9066,-1.9256,-1.9241,-1.9018,-1.8891,-1.8827,-1.8827,-1.8827,-1.8939,-1.9272,-1.9749,-2.0098,-2.0388,-2.2094,-2.3392,-2.4349,-2.5233,-2.6044,-2.6518,-2.6609,-2.6591,-2.6591,-2.6591,-2.6591,-2.6591,-2.6591,-2.6464,-2.6245,-2.5916,-2.5128,-2.4016,-2.3295,-2.3055,-2.3006,-2.3022,-2.3022,-2.3022,-2.3022,-2.3022,-2.3135,-2.3585,-2.4144,-2.4445,-2.4693,-2.5226,-2.5845,-2.6354,-2.6555,-2.6857,-2.8087,-2.8974,-2.8965,-2.9028,-2.8975,-2.8975,-2.8975,-2.8975,-2.8975,-2.8975,-2.8975,-2.8975,-2.8975,-2.9039,-2.9234,-2.9861,-3.0604,-3.1191,-3.1414,-3.1359,-3.1377,-3.1377,-3.1377,-3.1377,-3.1396,-3.1395,-3.1556,-3.2596,-3.361,-3.3694,-3.3853,-3.3743,-3.3817,-3.3817,-3.3853,-3.3824,-3.3842,-3.3787,-3.3757,-3.378,-3.4372,-3.5185,-3.5591,-3.5833,-2.0889,-2.0799,-2.0167,-1.9637,-1.9363,-1.9363,-1.918,-1.8827,-1.8827,-1.8827,-1.8827,-1.8827,-1.8827,-1.8827,-1.8827,-1.8827,-1.8827,-1.8827,-1.8827,-1.8859,-1.905,-1.9034,-1.8859,-1.905,-1.9066,-1.8875,-1.8827,-1.8827,-1.8827,-1.8843,-1.9018,-1.9368,-1.9828,-2.0341,-2.1059,-2.2557,-2.3922,-2.4827,-2.5612,-2.6245,-2.6482,-2.6591,-2.6591,-2.6591,-2.6591,-2.6591,-2.6591,-2.6591,-2.6591,-2.6591,-2.6172,-2.5511,-2.4351,-2.3487,-2.3023,-2.299,-2.3022,-2.3022,-2.3022,-2.3022,-2.3135,-2.3344,-2.3904,-2.4462,-2.5,-2.5278,-2.5845,-2.6464,-2.6592,-2.6791,-2.7486,-2.8366,-2.8932,-2.9016,-2.8983,-2.8975,-2.8975,-2.8975,-2.8975,-2.8975,-2.8975,-2.8975,-2.8975,-2.8993,-2.937,-2.9831,-3.0501,-3.0928,-3.1336,-3.1377,-3.1469,-3.1377,-3.1377,-3.1377,-3.1377,-3.1414,-3.1469,-3.165,-3.2052,-3.304,-3.3521,-3.3716,-3.3817,-3.3817,-3.3817,-3.3817,-3.3769,-3.3751,-3.3853,-3.3793,-3.3907,-3.4554,-3.5244,-3.5723,-3.5944,-2.3407,-2.1891,-2.1695,-2.1069,-2.0257,-2.0167,-1.9637,-1.892,-1.8827,-1.8827,-1.8827,-1.8827,-1.8827,-1.8827,-1.8827,-1.8827,-1.8827,-1.8827,-1.8827,-1.8827,-1.8875,-1.8843,-1.8843,-1.8875,-1.8875,-1.8827,-1.8827,-1.8843,-1.8923,-1.8923,-1.9082,-1.9606,-2.0162,-2.0925,-2.194,-2.3504,-2.452,-2.5219,-2.6028,-2.6573,-2.6591,-2.6591,-2.6591,-2.6591,-2.6591,-2.6591,-2.6591,-2.6591,-2.6591,-2.6609,-2.6573,-2.6006,-2.4795,-2.3694,-2.3263,-2.3119,-2.3022,-2.3022,-2.3022,-2.3022,-2.3119,-2.3697,-2.4351,-2.5,-2.5459,-2.6008,-2.6464,-2.6609,-2.6627,-2.7288,-2.8445,-2.8991,-2.896,-2.902,-2.8975,-2.8975,-2.8975,-2.8975,-2.8975,-2.8975,-2.8975,-2.8975,-2.8975,-2.8975,-2.9693,-3.0728,-3.1294,-3.1346,-3.1394,-3.1341,-3.1359,-3.1377,-3.1377,-3.1377,-3.1377,-3.1431,-3.1356,-3.1538,-3.192,-3.2582,-3.3465,-3.3679,-3.3817,-3.3817,-3.3817,-3.3817,-3.3853,-3.3872,-3.3824,-3.3762,-3.4212,-3.4719,-3.5302,-3.5779,-3.6553,-2.3799,-2.2668,-2.1961,-2.1159,-2.0348,-2.0257,-1.9712,-1.8827,-1.8827,-1.8827,-1.8827,-1.8827,-1.8827,-1.8827,-1.8827,-1.8827,-1.8827,-1.8827,-1.8827,-1.8827,-1.8827,-1.8827,-1.8827,-1.8827,-1.8827,-1.8827,-1.8859,-1.897,-1.9209,-1.9225,-1.9654,-2.0496,-2.0639,-2.1393,-2.2656,-2.3742,-2.4538,-2.5254,-2.6154,-2.6591,-2.6591,-2.6591,-2.6591,-2.6591,-2.6591,-2.6591,-2.6591,-2.6591,-2.6591,-2.6591,-2.6592,-2.6024,-2.4906,-2.4411,-2.3743,-2.3231,-2.336,-2.3472,-2.3135,-2.3022,-2.3135,-2.336,-2.4239,-2.4906,-2.5017,-2.6026,-2.6482,-2.6646,-2.6645,-2.7212,-2.8615,-2.9047,-2.9016,-2.9039,-2.8975,-2.8975,-2.8975,-2.8975,-2.8975,-2.8975,-2.8975,-2.8975,-2.8975,-2.903,-2.9601,-3.0907,-3.1388,-3.1433,-3.1431,-3.1377,-3.1377,-3.1377,-3.1377,-3.1377,-3.1433,-3.1374,-3.1389,-3.1384,-3.1745,-3.2367,-3.3156,-3.3742,-3.3826,-3.3817,-3.3817,-3.3817,-3.3787,-3.386,-3.3866,-3.3816,-3.416,-3.4504,-3.5467,-3.6238,-3.7255,-2.4201,-2.3647,-2.3125,-2.2138,-2.0979,-2.0889,-2.0076,-1.9012,-1.8827,-1.8827,-1.8827,-1.8827,-1.8827,-1.8827,-1.8827,-1.8827,-1.8827,-1.8827,-1.8827,-1.8827,-1.8827,-1.8827,-1.8827,-1.8827,-1.8827,-1.8859,-1.8986,-1.9177,-1.9368,-1.9495,-2.0083,-2.0718,-2.0925,-2.1771,-2.3426,-2.4002,-2.4876,-2.5685,-2.6372,-2.6591,-2.6591,-2.6591,-2.6591,-2.6591,-2.6591,-2.6591,-2.6591,-2.6591,-2.6591,-2.6609,-2.6537,-2.608,-2.4889,-2.425,-2.3694,-2.299,-2.3344,-2.336,-2.3135,-2.3022,-2.3135,-2.3456,-2.4334,-2.4889,-2.5348,-2.6026,-2.6591,-2.6609,-2.6644,-2.7471,-2.8539,-2.9025,-2.9009,-2.8957,-2.8975,-2.8975,-2.8975,-2.8975,-2.8975,-2.8975,-2.8975,-2.8975,-2.8975,-2.8975,-2.9573,-3.0568,-3.117,-3.1295,-3.1359,-3.1433,-3.1377,-3.1377,-3.1377,-3.1377,-3.134,-3.1411,-3.2093,-3.2089,-3.232,-3.2757,-3.313,-3.3816,-3.3808,-3.3817,-3.3817,-3.3835,-3.3787,-3.3879,-3.3812,-3.3834,-3.4054,-3.4649,-3.5595,-3.6904,-3.8035,-2.455,-2.4464,-2.4358,-2.3299,-2.1784,-2.1516,-2.0348,-1.9012,-1.8827,-1.8827,-1.8827,-1.8827,-1.8827,-1.8827,-1.8827,-1.8827,-1.8827,-1.8827,-1.8827,-1.8827,-1.8827,-1.8859,-1.8955,-1.8955,-1.8955,-1.8986,-1.9256,-1.9447,-1.9638,-1.986,-2.0369,-2.1004,-2.1251,-2.2363,-2.3894,-2.4442,-2.5269,-2.6264,-2.6554,-2.6591,-2.6591,-2.6591,-2.6591,-2.6591,-2.6591,-2.6591,-2.6591,-2.6591,-2.6591,-2.6591,-2.6609,-2.5934,-2.4889,-2.369,-2.315,-2.3087,-2.3119,-2.3247,-2.3022,-2.3022,-2.3231,-2.3697,-2.4351,-2.5,-2.5459,-2.6136,-2.6628,-2.6592,-2.6619,-2.7428,-2.8648,-2.9034,-2.902,-2.8975,-2.8975,-2.8975,-2.8975,-2.8975,-2.8975,-2.8975,-2.8975,-2.8975,-2.8975,-2.9048,-2.9287,-3.034,-3.0903,-3.1276,-3.1394,-3.1469,-3.1377,-3.1377,-3.1377,-3.1377,-3.1395,-3.1447,-3.2335,-3.3007,-3.3182,-3.3413,-3.3404,-3.3863,-3.3762,-3.3817,-3.3817,-3.3817,-3.3835,-3.3787,-3.386,-3.4066,-3.418,-3.5066,-3.6017,-3.7516,-3.8825,-2.455,-2.4444,-2.3734,-2.2755,-2.1695,-2.0872,-1.9894,-1.8827,-1.8827,-1.8827,-1.8827,-1.8827,-1.8827,-1.8827,-1.8827,-1.8827,-1.8827,-1.8827,-1.8827,-1.8827,-1.8827,-1.9018,-1.9193,-1.9256,-1.9256,-1.9336,-1.9606,-1.9892,-2.0162,-2.0496,-2.1036,-2.173,-2.2338,-2.3461,-2.4412,-2.5064,-2.57,-2.6464,-2.6591,-2.6591,-2.6591,-2.6591,-2.6591,-2.6591,-2.6591,-2.6591,-2.6591,-2.6591,-2.6591,-2.6609,-2.6537,-2.6098,-2.4872,-2.3817,-2.3262,-2.3183,-2.3472,-2.3472,-2.3135,-2.3022,-2.3006,-2.336,-2.4239,-2.4889,-2.5,-2.6026,-2.6482,-2.6589,-2.6632,-2.7416,-2.8707,-2.8983,-2.8975,-2.8975,-2.8975,-2.8975,-2.8975,-2.8975,-2.8975,-2.8975,-2.8975,-2.8975,-2.8975,-2.8975,-2.936,-3.0162,-3.0692,-3.1258,-3.1429,-3.1341,-3.1377,-3.1377,-3.1377,-3.1396,-3.1543,-3.1724,-3.2648,-3.336,-3.365,-3.3771,-3.3762,-3.3817,-3.3817,-3.3817,-3.3817,-3.3817,-3.3817,-3.3853,-3.3806,-3.4121,-3.4468,-3.5212,-3.6293,-3.7963,-4.0008,-2.4272,-2.382,-2.328,-2.2296,-2.1069,-2.0529,-1.9712,-1.892,-1.8827,-1.8827,-1.8827,-1.8827,-1.8827,-1.8827,-1.8827,-1.8827,-1.8827,-1.8827,-1.8827,-1.8875,-1.8986,-1.9193,-1.9431,-1.9669,-1.9797,-1.9701,-1.9955,-2.0226,-2.048,-2.0925,-2.1417,-2.2049,-2.2977,-2.3687,-2.4538,-2.5243,-2.5882,-2.6245,-2.6499,-2.6591,-2.6591,-2.6591,-2.6591,-2.6591,-2.6591,-2.6591,-2.6591,-2.6591,-2.6591,-2.6609,-2.6537,-2.6208,-2.5348,-2.4548,-2.4122,-2.3871,-2.3792,-2.3809,-2.3472,-2.3231,-2.3119,-2.3472,-2.4351,-2.4795,-2.5348,-2.6136,-2.6518,-2.6827,-2.7264,-2.821,-2.8865,-2.8975,-2.8975,-2.8975,-2.8975,-2.8975,-2.8975,-2.8975,-2.8975,-2.8975,-2.8975,-2.8975,-2.8975,-2.8975,-2.9397,-3.0039,-3.0847,-3.1433,-3.1394,-3.1377,-3.1377,-3.1377,-3.1377,-3.1433,-3.1561,-3.2038,-3.2998,-3.3558,-3.3771,-3.3882,-3.3798,-3.3817,-3.3817,-3.3817,-3.3817,-3.3817,-3.3817,-3.3853,-3.4231,-3.4857,-3.5355,-3.5686,-3.6588,-3.8432,-4.0949,-2.3993,-2.3105,-2.2931,-2.1854,-2.0439,-2.0076,-1.953,-1.892,-1.8827,-1.8827,-1.8827,-1.8827,-1.8827,-1.8827,-1.8827,-1.8827,-1.8827,-1.8827,-1.8827,-1.8859,-1.9177,-1.9368,-1.959,-1.9971,-2.0241,-2.0067,-2.0337,-2.0496,-2.0686,-2.1147,-2.1762,-2.222,-2.3059,-2.3947,-2.4545,-2.5068,-2.5757,-2.5989,-2.6313,-2.6479,-2.6553,-2.6571,-2.6608,-2.6591,-2.6591,-2.6591,-2.6591,-2.6591,-2.6591,-2.6591,-2.6591,-2.6354,-2.5898,-2.5533,-2.5203,-2.4778,-2.4351,-2.4128,-2.4016,-2.368,-2.3568,-2.4033,-2.4573,-2.5128,-2.5679,-2.6116,-2.6535,-2.7158,-2.7765,-2.8756,-2.9039,-2.8975,-2.8975,-2.8975,-2.8975,-2.8975,-2.8975,-2.8975,-2.8975,-2.8975,-2.8975,-2.8975,-2.8975,-2.9012,-2.9507,-2.9965,-3.0773,-3.1396,-3.1376,-3.1377,-3.1377,-3.1377,-3.1377,-3.1393,-3.1556,-3.258,-3.3415,-3.3605,-3.3817,-3.3817,-3.3817,-3.3817,-3.3817,-3.3817,-3.3817,-3.3817,-3.3817,-3.3835,-3.4379,-3.5545,-3.581,-3.5577,-3.6866,-3.8903,-4.1453,-2.3907,-2.3018,-2.2227,-2.123,-2.0257,-1.9455,-1.8996,-1.8827,-1.8827,-1.8827,-1.8827,-1.8827,-1.8827,-1.8827,-1.8827,-1.8827,-1.8827,-1.8827,-1.8843,-1.8923,-1.9241,-1.9511,-1.986,-2.0226,-2.0496,-2.0718,-2.0813,-2.0829,-2.0988,-2.1497,-2.2076,-2.2732,-2.3475,-2.4216,-2.4994,-2.5377,-2.5541,-2.5876,-2.6051,-2.6088,-2.6148,-2.6384,-2.6569,-2.6536,-2.6591,-2.6591,-2.6591,-2.6591,-2.6591,-2.6591,-2.6591,-2.6591,-2.6354,-2.5753,-2.5313,-2.5,-2.4795,-2.4684,-2.4573,-2.4556,-2.4556,-2.4795,-2.5128,-2.5476,-2.586,-2.626,-2.6641,-2.7128,-2.8089,-2.8965,-2.8957,-2.8975,-2.8975,-2.8975,-2.8975,-2.8975,-2.8975,-2.8975,-2.8975,-2.8975,-2.8975,-2.8975,-2.8975,-2.9067,-2.9331,-2.9892,-3.0773,-3.122,-3.1359,-3.1377,-3.1377,-3.1377,-3.1377,-3.1371,-3.1468,-3.2666,-3.376,-3.3679,-3.3817,-3.3817,-3.3817,-3.3817,-3.3817,-3.3817,-3.3817,-3.3817,-3.3817,-3.3835,-3.4379,-3.529,-3.5373,-3.5267,-3.6938,-3.867,-4.1081,-2.3647,-2.2403,-2.1872,-2.0889,-1.953,-1.9012,-1.8827,-1.8827,-1.8827,-1.8827,-1.8827,-1.8827,-1.8827,-1.8827,-1.8827,-1.8827,-1.8827,-1.8827,-1.8923,-1.9129,-1.9463,-1.9812,-2.013,-2.0496,-2.0718,-2.0941,-2.1084,-2.1179,-2.1242,-2.1687,-2.236,-2.3102,-2.3673,-2.4378,-2.5086,-2.5218,-2.5308,-2.5587,-2.5737,-2.5718,-2.5779,-2.6088,-2.6313,-2.659,-2.6591,-2.6591,-2.6591,-2.6591,-2.6591,-2.6591,-2.6591,-2.6591,-2.6464,-2.6245,-2.5881,-2.5679,-2.5459,-2.5238,-2.5221,-2.5,-2.4906,-2.5238,-2.5586,-2.6024,-2.6277,-2.6587,-2.6911,-2.7755,-2.8228,-2.8975,-2.8975,-2.8975,-2.8975,-2.8975,-2.8975,-2.8975,-2.8975,-2.8975,-2.8975,-2.8975,-2.8975,-2.8975,-2.8975,-2.914,-2.9276,-2.9923,-3.0754,-3.115,-3.1451,-3.1377,-3.1377,-3.1396,-3.1451,-3.1742,-3.1914,-3.2984,-3.3835,-3.3872,-3.3817,-3.3817,-3.3817,-3.3817,-3.3817,-3.3817,-3.3817,-3.3817,-3.3908,-3.3963,-3.4508,-3.4894,-3.5011,-3.5413,-3.6769,-3.8672,-4.117,-2.3086,-2.1695,-2.1516,-2.0439,-1.892,-1.8827,-1.8827,-1.8827,-1.8827,-1.8827,-1.8827,-1.8827,-1.8827,-1.8827,-1.8827,-1.8827,-1.8827,-1.8891,-1.9113,-1.9383,-1.9781,-2.013,-2.04,-2.0718,-2.0956,-2.1115,-2.1274,-2.1449,-2.1497,-2.1894,-2.2505,-2.2994,-2.3591,-2.4226,-2.4949,-2.4685,-2.5038,-2.535,-2.5404,-2.5422,-2.5558,-2.5872,-2.6151,-2.6536,-2.6591,-2.6591,-2.6591,-2.6591,-2.6591,-2.6591,-2.6591,-2.6591,-2.6591,-2.6591,-2.6591,-2.6591,-2.6136,-2.5916,-2.5806,-2.5569,-2.5569,-2.5898,-2.5988,-2.6424,-2.6882,-2.7118,-2.7464,-2.8676,-2.9046,-2.8975,-2.8975,-2.8975,-2.8975,-2.8975,-2.8975,-2.8975,-2.8975,-2.8975,-2.8975,-2.8975,-2.8975,-2.8993,-2.9012,-2.9112,-2.9386,-3.0267,-3.1121,-3.1188,-3.1414,-3.1359,-3.1396,-3.1433,-3.1598,-3.2001,-3.2556,-3.323,-3.3792,-3.3826,-3.3817,-3.3817,-3.3817,-3.3817,-3.3817,-3.3835,-3.3817,-3.3835,-3.3963,-3.4147,-3.4637,-3.5005,-3.4776,-3.5595,-3.7175,-3.9248,-4.171,-2.1864,-2.1606,-2.0799,-1.9803,-1.892,-1.8827,-1.8827,-1.8827,-1.8827,-1.8827,-1.8827,-1.8827,-1.8827,-1.8827,-1.8827,-1.8827,-1.8923,-1.9129,-1.9336,-1.9574,-2.0019,-2.0321,-2.0448,-2.075,-2.1084,-2.1274,-2.1401,-2.1449,-2.1655,-2.2148,-2.2602,-2.302,-2.3031,-2.3519,-2.4968,-2.4192,-2.4034,-2.5076,-2.4785,-2.4905,-2.557,-2.5872,-2.6133,-2.6463,-2.6591,-2.6591,-2.6591,-2.6591,-2.6591,-2.6591,-2.6591,-2.6591,-2.6591,-2.6591,-2.6591,-2.6591,-2.6482,-2.6482,-2.6373,-2.6245,-2.6136,-2.6427,-2.6738,-2.7086,-2.7267,-2.7591,-2.8064,-2.8828,-2.8975,-2.8975,-2.8975,-2.8975,-2.8975,-2.8975,-2.8975,-2.8975,-2.8975,-2.8975,-2.8975,-2.903,-2.9048,-2.9048,-2.9048,-2.9203,-2.9514,-3.0556,-3.1308,-3.1373,-3.1359,-3.1451,-3.1377,-3.1414,-3.1486,-3.2019,-3.2629,-3.3457,-3.3731,-3.3762,-3.3798,-3.3817,-3.3817,-3.3817,-3.3853,-3.3853,-3.3872,-3.3806,-3.3812,-3.4189,-3.4784,-3.5134,-3.5212,-3.6346,-3.7951,-4.0031,-4.2354,-2.0427,-2.0889,-2.0439,-1.9712,-1.8827,-1.8827,-1.8827,-1.8827,-1.8827,-1.8827,-1.8827,-1.8827,-1.8827,-1.8843,-1.8827,-1.8955,-1.9129,-1.932,-1.9622,-1.9892,-2.0257,-2.0496,-2.0686,-2.0861,-2.1099,-2.1401,-2.1513,-2.1767,-2.2005,-2.2291,-2.2779,-2.3239,-2.31,-2.3574,-2.4826,-2.3911,-2.4191,-2.4597,-2.4656,-2.4831,-2.5459,-2.5706,-2.5931,-2.6554,-2.6573,-2.6591,-2.6591,-2.6591,-2.6591,-2.6591,-2.6591,-2.6591,-2.6591,-2.6591,-2.6591,-2.6591,-2.6591,-2.6591,-2.6591,-2.6591,-2.6591,-2.6683,-2.6976,-2.7231,-2.7537,-2.8046,-2.8582,-2.8957,-2.8975,-2.8975,-2.8975,-2.8975,-2.8975,-2.8975,-2.8975,-2.8975,-2.8975,-2.8975,-2.8993,-2.9048,-2.9002,-2.9177,-2.9269,-2.9404,-2.9855,-3.0829,-3.1383,-3.1429,-3.1359,-3.1341,-3.1377,-3.1377,-3.1523,-3.1851,-3.2629,-3.3378,-3.3632,-3.3845,-3.3798,-3.3817,-3.3817,-3.3835,-3.3872,-3.4018,-3.4147,-3.408,-3.387,-3.4445,-3.5078,-3.5373,-3.5668,-3.6821,-3.8273,-4.0823,-4.2714,-1.9422,-2.0046,-1.9928,-1.9455,-1.8827,-1.8827,-1.8827,-1.8827,-1.8827,-1.8827,-1.8827,-1.8827,-1.8875,-1.9063,-1.9018,-1.9177,-1.9495,-1.959,-1.9908,-2.0273,-2.0512,-2.067,-2.0813,-2.0941,-2.1163,-2.1576,-2.1746,-2.2097,-2.2418,-2.2641,-2.2958,-2.355,-2.3067,-2.3552,-2.4132,-2.3966,-2.3891,-2.4491,-2.4317,-2.4711,-2.5478,-2.5503,-2.5876,-2.6334,-2.6591,-2.6591,-2.6591,-2.6591,-2.6591,-2.6591,-2.6591,-2.6591,-2.6591,-2.6591,-2.6591,-2.6591,-2.6591,-2.6591,-2.6591,-2.6591,-2.6591,-2.6738,-2.7123,-2.7673,-2.8119,-2.8692,-2.8975,-2.8975,-2.8975,-2.8975,-2.8975,-2.8975,-2.8975,-2.8975,-2.8975,-2.8975,-2.8975,-2.8975,-2.8993,-2.9048,-2.9177,-2.9452,-2.958,-2.9642,-3.0217,-3.114,-3.1458,-3.1357,-3.1377,-3.1359,-3.1396,-3.1396,-3.1524,-3.1778,-3.2496,-3.3262,-3.3513,-3.3826,-3.378,-3.3817,-3.3817,-3.3835,-3.3872,-3.4073,-3.4293,-3.4335,-3.4248,-3.4737,-3.5373,-3.5612,-3.6088,-3.696,-3.8635,-4.1352,-4.3002,-1.9678,-1.9509,-1.9063,-1.8936,-1.8843,-1.8827,-1.8827,-1.8827,-1.8827,-1.8827,-1.8827,-1.8859,-1.9175,-1.9587,-1.9462,-1.9511,-1.9844,-2.0178,-2.0321,-2.0496,-2.0702,-2.0845,-2.0925,-2.1004,-2.1258,-2.1889,-2.1996,-2.2381,-2.2736,-2.2656,-2.2656,-2.2672,-2.2889,-2.3245,-2.3651,-2.3788,-2.3723,-2.428,-2.4189,-2.4574,-2.5245,-2.5436,-2.5784,-2.6389,-2.6591,-2.6591,-2.6591,-2.6591,-2.6591,-2.6591,-2.6591,-2.6591,-2.6591,-2.6591,-2.6591,-2.6591,-2.6591,-2.6591,-2.6591,-2.6591,-2.6609,-2.6811,-2.727,-2.7985,-2.86,-2.8883,-2.8975,-2.8975,-2.8975,-2.8975,-2.8975,-2.8975,-2.8975,-2.8975,-2.8975,-2.8975,-2.8975,-2.8975,-2.9012,-2.9048,-2.9167,-2.9635,-3.0322,-3.0438,-3.0493,-3.1258,-3.1373,-3.1396,-3.1414,-3.1377,-3.1414,-3.1433,-3.1433,-3.1818,-3.2496,-3.309,-3.3613,-3.3771,-3.3798,-3.3817,-3.3817,-3.3853,-3.3872,-3.4,-3.4202,-3.4353,-3.4664,-3.5155,-3.5594,-3.5924,-3.6619,-3.7451,-3.9169,-4.1714,-4.2851,-1.9406,-1.9706,-1.9349,-1.9161,-1.9145,-1.8923,-1.8827,-1.8827,-1.8827,-1.8827,-1.8843,-1.9066,-1.9461,-1.9749,-1.9846,-1.986,-2.0178,-2.0305,-2.0512,-2.0686,-2.0861,-2.0909,-2.0925,-2.102,-2.1274,-2.1857,-2.216,-2.2393,-2.2879,-2.2545,-2.2593,-2.2608,-2.2933,-2.3261,-2.3528,-2.3781,-2.4026,-2.4053,-2.4225,-2.4556,-2.5039,-2.5399,-2.5766,-2.6499,-2.6591,-2.6591,-2.6591,-2.6591,-2.6591,-2.6591,-2.6591,-2.6591,-2.6591,-2.6591,-2.6591,-2.6591,-2.6591,-2.6591,-2.6591,-2.6628,-2.6774,-2.7288,-2.7636,-2.8113,-2.8865,-2.8975,-2.8975,-2.8975,-2.8975,-2.8975,-2.8975,-2.8975,-2.8975,-2.8975,-2.8975,-2.8975,-2.9012,-2.903,-2.9039,-2.9028,-2.9234,-2.9614,-3.0461,-3.1299,-3.1299,-3.1355,-3.145,-3.1377,-3.1377,-3.1414,-3.1469,-3.1616,-3.1634,-3.2038,-3.2735,-3.3336,-3.3731,-3.3835,-3.3817,-3.3817,-3.3817,-3.3817,-3.3853,-3.3982,-3.4183,-3.4408,-3.4792,-3.5375,-3.5998,-3.7137,-3.7479,-3.7845,-3.9942,-4.2419,-4.2883,-1.9333,-1.9874,-1.9686,-1.9463,-1.9336,-1.9098,-1.8986,-1.897,-1.8875,-1.8798,-1.88,-1.9336,-1.9814,-2.0055,-2.0119,-2.0226,-2.048,-2.0591,-2.0718,-2.0829,-2.0909,-2.0925,-2.0925,-2.102,-2.1258,-2.1916,-2.2299,-2.2608,-2.2942,-2.2148,-2.2291,-2.2766,-2.3283,-2.3459,-2.3685,-2.4003,-2.417,-2.4152,-2.4225,-2.4436,-2.4972,-2.5258,-2.5766,-2.6444,-2.6591,-2.6591,-2.6591,-2.6591,-2.6591,-2.6591,-2.6591,-2.6591,-2.6591,-2.6591,-2.6591,-2.6591,-2.6591,-2.6591,-2.6591,-2.6646,-2.6958,-2.7526,-2.771,-2.8205,-2.8718,-2.8975,-2.8975,-2.8975,-2.8975,-2.8975,-2.8975,-2.8975,-2.8975,-2.8975,-2.8975,-2.8993,-2.9104,-2.9159,-2.9119,-2.9058,-2.94,-2.9956,-3.0644,-3.1447,-3.1413,-3.1394,-3.1377,-3.1377,-3.1377,-3.1451,-3.1579,-3.1744,-3.1928,-3.2459,-3.3046,-3.3484,-3.3805,-3.3771,-3.3817,-3.3817,-3.3817,-3.3817,-3.3835,-3.3927,-3.4202,-3.4481,-3.5097,-3.568,-3.7074,-3.8691,-3.9037,-3.9312,-4.0876,-4.2883,-4.3045,-1.962,-1.9928,-1.9858,-1.9685,-1.9447,-1.9368,-1.9352,-1.932,-1.905,-1.8863,-1.9036,-1.9589,-2.0247,-2.0603,-2.0452,-2.0559,-2.0766,-2.0845,-2.0893,-2.0909,-2.0925,-2.0925,-2.0925,-2.1004,-2.1274,-2.2044,-2.2338,-2.2614,-2.3006,-2.2434,-2.2434,-2.2699,-2.3187,-2.3648,-2.3702,-2.3949,-2.417,-2.4152,-2.417,-2.4564,-2.5039,-2.5295,-2.5913,-2.6389,-2.6591,-2.6591,-2.6591,-2.6591,-2.6591,-2.6591,-2.6591,-2.6591,-2.6591,-2.6591,-2.6591,-2.6591,-2.6591,-2.6591,-2.6591,-2.6591,-2.7031,-2.7655,-2.782,-2.8242,-2.8792,-2.8975,-2.8975,-2.8975,-2.8975,-2.8975,-2.8975,-2.8975,-2.8975,-2.8975,-2.8975,-2.9085,-2.9195,-2.9305,-2.9246,-2.9082,-2.9723,-3.0369,-3.0917,-3.1413,-3.1414,-3.1341,-3.1359,-3.1396,-3.158,-3.1579,-3.1744,-3.2129,-3.2386,-3.2735,-3.3211,-3.3595,-3.3761,-3.3845,-3.3817,-3.3817,-3.3817,-3.3817,-3.3835,-3.389,-3.4055,-3.433,-3.5105,-3.5886,-3.7662,-3.9405,-4.076,-4.1467,-4.2581,-4.3184,-4.3184,-1.9941,-1.9921,-2.0162,-2.0146,-2.0019,-1.9797,-1.9701,-1.9685,-1.9574,-1.9574,-1.9636,-2.0067,-2.0488,-2.078,-2.0772,-2.0798,-2.0893,-2.0925,-2.0925,-2.0925,-2.0925,-2.0925,-2.0925,-2.1004,-2.1306,-2.1841,-2.2231,-2.257,-2.3006,-2.2513,-2.237,-2.2634,-2.3168,-2.3756,-2.4115,-2.4327,-2.4152,-2.4207,-2.4427,-2.4831,-2.5203,-2.5619,-2.6023,-2.6591,-2.6609,-2.6628,-2.6628,-2.6628,-2.6591,-2.6591,-2.6591,-2.6591,-2.6591,-2.6591,-2.6591,-2.6591,-2.6591,-2.6591,-2.6664,-2.6811,-2.7215,-2.7655,-2.804,-2.837,-2.8902,-2.8975,-2.8975,-2.8975,-2.8975,-2.8975,-2.8975,-2.8975,-2.8975,-2.8975,-2.903,-2.9214,-2.9342,-2.9434,-2.9355,-2.9332,-2.9672,-3.0465,-3.1084,-3.134,-3.1469,-3.1377,-3.1377,-3.1782,-3.2041,-3.2022,-3.2056,-3.2454,-3.2819,-3.3038,-3.3395,-3.3642,-3.3853,-3.3743,-3.3817,-3.3817,-3.3817,-3.3817,-3.3817,-3.3853,-3.4066,-3.4316,-3.5755,-3.7339,-3.8766,-4.0167,-4.1467,-4.2278,-4.2883,-4.3184,-4.3184,-2.0133,-2.0241,-2.0337,-2.0464,-2.0512,-2.0194,-1.9987,-1.9908,-1.9987,-2.0035,-2.0,-2.03,-2.0708,-2.0889,-2.0915,-2.0925,-2.0925,-2.0925,-2.0925,-2.0925,-2.0925,-2.0925,-2.0925,-2.0988,-2.1338,-2.1719,-2.2001,-2.2272,-2.2958,-2.2434,-2.265,-2.3053,-2.3207,-2.4088,-2.4621,-2.4794,-2.439,-2.44,-2.4637,-2.533,-2.5737,-2.6125,-2.6371,-2.6701,-2.6811,-2.6811,-2.6774,-2.6683,-2.6591,-2.6591,-2.6591,-2.6591,-2.6591,-2.6591,-2.6591,-2.6591,-2.6591,-2.6591,-2.6664,-2.694,-2.7306,-2.771,-2.815,-2.8553,-2.8883,-2.8975,-2.8975,-2.8975,-2.8975,-2.8975,-2.8975,-2.8975,-2.8993,-2.8993,-2.9067,-2.925,-2.9654,-2.9745,-2.9965,-2.978,-2.9887,-3.0592,-3.1267,-3.1304,-3.1377,-3.1377,-3.1377,-3.2004,-3.2468,-3.2261,-3.2349,-3.2746,-3.3093,-3.3203,-3.3386,-3.3707,-3.3762,-3.3817,-3.3817,-3.3817,-3.3817,-3.3817,-3.3817,-3.3817,-3.4029,-3.4826,-3.7109,-3.8849,-4.0124,-4.1221,-4.2214,-4.2861,-4.3184,-4.3184,-4.3184,-2.0289,-2.0813,-2.0559,-2.0607,-2.0813,-2.0543,-2.0226,-1.9955,-2.0273,-2.0285,-2.0069,-2.0632,-2.0861,-2.0893,-2.0925,-2.0925,-2.0925,-2.0925,-2.0925,-2.0925,-2.0925,-2.0925,-2.0941,-2.1004,-2.1417,-2.1889,-2.2161,-2.2448,-2.2927,-2.2593,-2.2982,-2.3854,-2.3713,-2.4598,-2.5195,-2.5289,-2.4802,-2.4772,-2.5185,-2.5866,-2.6574,-2.6732,-2.6958,-2.7105,-2.7196,-2.7141,-2.7031,-2.6866,-2.6683,-2.6609,-2.6591,-2.6591,-2.6591,-2.6591,-2.6591,-2.6609,-2.6646,-2.6591,-2.6738,-2.705,-2.7343,-2.7746,-2.815,-2.8553,-2.8847,-2.8975,-2.8975,-2.8975,-2.8975,-2.8975,-2.8975,-2.8993,-2.9012,-2.9048,-2.9085,-2.9452,-2.9984,-3.0241,-3.0442,-3.041,-3.0411,-3.0774,-3.1286,-3.1377,-3.1451,-3.1413,-3.1504,-3.1946,-3.2335,-3.2335,-3.2514,-3.3138,-3.3239,-3.3139,-3.3459,-3.378,-3.3817,-3.3817,-3.3817,-3.3817,-3.3817,-3.3817,-3.3817,-3.3835,-3.3992,-3.5458,-3.7987,-4.0034,-4.1461,-4.2355,-4.284,-4.3001,-4.3184,-4.3184,-4.3184,-2.0734,-2.0909,-2.0813,-2.0829,-2.0893,-2.0813,-2.0702,-2.0655,-2.075,-2.0648,-2.0648,-2.0759,-2.0925,-2.0925,-2.0925,-2.0925,-2.0925,-2.0925,-2.0925,-2.0925,-2.0925,-2.0925,-2.1004,-2.1163,-2.1544,-2.1894,-2.2336,-2.264,-2.2847,-2.2656,-2.3337,-2.4285,-2.4042,-2.4933,-2.5684,-2.5876,-2.5445,-2.5339,-2.5898,-2.6621,-2.7247,-2.7475,-2.7547,-2.7563,-2.76,-2.749,-2.7215,-2.7068,-2.6885,-2.6628,-2.6591,-2.6591,-2.6591,-2.6609,-2.6646,-2.694,-2.683,-2.6701,-2.6958,-2.7105,-2.7306,-2.7691,-2.8113,-2.8553,-2.8847,-2.8975,-2.8975,-2.8975,-2.8975,-2.8975,-2.8975,-2.8993,-2.926,-2.9407,-2.9481,-2.969,-3.0185,-3.0516,-3.0717,-3.0974,-3.0956,-3.0993,-3.1359,-3.1617,-3.1709,-3.1559,-3.1778,-3.2089,-3.2423,-3.2459,-3.2698,-3.334,-3.356,-3.3459,-3.3513,-3.3817,-3.3817,-3.3817,-3.3817,-3.3817,-3.3817,-3.3817,-3.3817,-3.4426,-3.533,-3.6956,-3.9213,-4.0827,-4.2236,-4.2656,-4.3163,-4.3184,-4.3184,-4.3184,-4.3184,-2.0496,-2.0527,-2.0655,-2.0798,-2.0909,-2.0925,-2.0925,-2.0925,-2.0925,-2.0925,-2.0925,-2.0925,-2.0925,-2.0925,-2.0925,-2.0925,-2.0925,-2.0925,-2.0925,-2.0925,-2.0925,-2.0925,-2.1036,-2.129,-2.1624,-2.1973,-2.2323,-2.2641,-2.2863,-2.2975,-2.3406,-2.4582,-2.4247,-2.5304,-2.6173,-2.6426,-2.6154,-2.6155,-2.6518,-2.7308,-2.7884,-2.8087,-2.8063,-2.8003,-2.8022,-2.7783,-2.7453,-2.7325,-2.6976,-2.6664,-2.6591,-2.6591,-2.6591,-2.6591,-2.6774,-2.6995,-2.683,-2.6848,-2.7031,-2.6958,-2.7196,-2.7526,-2.793,-2.8297,-2.8645,-2.8847,-2.892,-2.8975,-2.8975,-2.8975,-2.8975,-2.903,-2.9425,-2.9823,-2.9886,-2.9929,-3.0314,-3.0699,-3.0992,-3.1267,-3.1341,-3.1341,-3.1433,-3.169,-3.1819,-3.1705,-3.2016,-3.2551,-3.2771,-3.2881,-3.312,-3.3578,-3.3707,-3.3762,-3.3817,-3.3817,-3.3817,-3.3817,-3.3817,-3.3817,-3.3974,-3.4703,-3.531,-3.6074,-3.6992,-3.8548,-3.9983,-4.125,-4.2457,-4.29,-4.3184,-4.3184,-4.3184,-4.3184,-4.3184,-1.9971,-2.0003,-2.0289,-2.0655,-2.0893,-2.0925,-2.0925,-2.0925,-2.0925,-2.0925,-2.0925,-2.0925,-2.0925,-2.0925,-2.0925,-2.0925,-2.0925,-2.0925,-2.0925,-2.0925,-2.0925,-2.0925,-2.1036,-2.1322,-2.1703,-2.2005,-2.237,-2.2768,-2.2942,-2.3071,-2.3487,-2.4795,-2.4727,-2.5511,-2.6683,-2.6646,-2.6409,-2.6553,-2.692,-2.766,-2.8407,-2.8653,-2.8425,-2.8443,-2.8388,-2.8242,-2.7838,-2.7453,-2.7031,-2.6793,-2.6591,-2.6591,-2.6683,-2.6829,-2.705,-2.7013,-2.6921,-2.694,-2.6976,-2.6866,-2.6921,-2.7196,-2.7545,-2.8022,-2.8425,-2.881,-2.8957,-2.8975,-2.8975,-2.8975,-2.8975,-2.9315,-2.9712,-3.0026,-3.0144,-3.0332,-3.0736,-3.0992,-3.1121,-3.1322,-3.1377,-3.1377,-3.158,-3.1727,-3.2413,-3.1961,-3.212,-3.2863,-3.3255,-3.3266,-3.345,-3.3762,-3.378,-3.3817,-3.3817,-3.3817,-3.3817,-3.3817,-3.3817,-3.4714,-3.5439,-3.623,-3.6972,-3.7556,-3.8159,-3.9135,-4.0435,-4.164,-4.2464,-4.2988,-4.3184,-4.3184,-4.3184,-4.3184,-4.3184,-2.0319,-1.9953,-2.0515,-2.0845,-2.0925,-2.0925,-2.0925,-2.0925,-2.0925,-2.0925,-2.0925,-2.0925,-2.0925,-2.0925,-2.0925,-2.0925,-2.0925,-2.0925,-2.0925,-2.0925,-2.0925,-2.0925,-2.1068,-2.1497,-2.1814,-2.2132,-2.2498,-2.2895,-2.299,-2.3119,-2.3568,-2.4684,-2.4795,-2.5564,-2.6701,-2.6646,-2.6628,-2.6791,-2.6975,-2.7697,-2.8576,-2.8648,-2.848,-2.87,-2.8773,-2.859,-2.8205,-2.7838,-2.7453,-2.7105,-2.6738,-2.6774,-2.7013,-2.729,-2.7512,-2.7584,-2.7178,-2.7068,-2.7013,-2.6848,-2.6811,-2.7123,-2.7526,-2.7948,-2.837,-2.8755,-2.8975,-2.8975,-2.8993,-2.9012,-2.9085,-2.9481,-2.9915,-3.0107,-3.0401,-3.0717,-3.1157,-3.1212,-3.1267,-3.1304,-3.1359,-3.1414,-3.1617,-3.206,-3.2617,-3.297,-3.2863,-3.3211,-3.345,-3.3615,-3.3578,-3.3798,-3.3798,-3.3817,-3.3817,-3.3817,-3.3817,-3.3817,-3.3817,-3.5105,-3.6916,-3.7351,-3.7895,-3.845,-3.9051,-4.0053,-4.0801,-4.1537,-4.2267,-4.2922,-4.3184,-4.3184,-4.3184,-4.3184,-4.3184,-2.0448,-2.0348,-2.0623,-2.0782,-2.0909,-2.0925,-2.0925,-2.0925,-2.0925,-2.0925,-2.0925,-2.0925,-2.0925,-2.0925,-2.0925,-2.0925,-2.0925,-2.0925,-2.0925,-2.0925,-2.0925,-2.0925,-2.1211,-2.1608,-2.183,-2.2132,-2.2672,-2.3006,-2.3022,-2.3135,-2.3568,-2.4573,-2.4906,-2.5418,-2.6518,-2.6719,-2.6811,-2.7142,-2.7068,-2.7529,-2.8514,-2.8449,-2.8572,-2.8865,-2.892,-2.8755,-2.848,-2.8113,-2.7728,-2.7251,-2.6793,-2.6683,-2.6958,-2.7399,-2.7642,-2.7381,-2.7141,-2.6995,-2.6995,-2.6903,-2.6719,-2.7031,-2.7526,-2.7948,-2.8113,-2.8498,-2.8957,-2.9012,-2.8955,-2.8992,-2.9258,-2.9599,-3.0322,-3.071,-3.0714,-3.0846,-3.1157,-3.1304,-3.1322,-3.1341,-3.1377,-3.1377,-3.1579,-3.2038,-3.2707,-3.3442,-3.3527,-3.3431,-3.3688,-3.3817,-3.3817,-3.3817,-3.3817,-3.3817,-3.3817,-3.3817,-3.3817,-3.3817,-3.3817,-3.6621,-3.8641,-3.8438,-3.8664,-3.9416,-4.0131,-4.0678,-4.1386,-4.1918,-4.2354,-4.301,-4.3163,-4.3184,-4.3184,-4.3184,-4.3324,-2.0345,-2.0851,-2.0584,-2.0639,-2.0893,-2.0925,-2.0925,-2.0925,-2.0925,-2.0925,-2.0925,-2.0925,-2.0925,-2.0925,-2.0925,-2.0925,-2.0925,-2.0925,-2.0925,-2.0925,-2.0925,-2.0925,-2.1179,-2.1592,-2.1941,-2.2307,-2.2768,-2.2942,-2.3022,-2.3119,-2.3568,-2.4556,-2.5069,-2.5506,-2.6553,-2.6848,-2.6719,-2.6976,-2.7068,-2.7234,-2.7618,-2.8132,-2.8517,-2.8792,-2.8957,-2.8792,-2.8572,-2.8297,-2.7948,-2.7508,-2.7013,-2.683,-2.6793,-2.7271,-2.7253,-2.7234,-2.7031,-2.6958,-2.6958,-2.6866,-2.6756,-2.6903,-2.7471,-2.7856,-2.804,-2.8388,-2.8847,-2.8966,-2.9046,-2.9265,-2.9532,-2.9879,-3.0729,-3.1169,-3.1009,-3.0974,-3.1194,-3.1377,-3.1377,-3.1377,-3.1377,-3.1377,-3.1744,-3.2203,-3.274,-3.3476,-3.383,-3.3872,-3.3817,-3.3817,-3.3817,-3.3817,-3.3817,-3.3817,-3.3817,-3.3817,-3.3817,-3.3882,-3.437,-3.7806,-4.0372,-4.0446,-4.0571,-4.0743,-4.139,-4.1564,-4.1804,-4.2223,-4.2704,-4.3097,-4.3141,-4.3184,-4.3184,-4.3324,-4.3485,-2.058,-2.0852,-2.0798,-2.0861,-2.0925,-2.0925,-2.0925,-2.0925,-2.0925,-2.0925,-2.0925,-2.0925,-2.0925,-2.0925,-2.0925,-2.0925,-2.0925,-2.0925,-2.0925,-2.0925,-2.0925,-2.0925,-2.1131,-2.164,-2.2243,-2.2641,-2.2911,-2.2974,-2.3022,-2.3006,-2.3568,-2.4684,-2.4239,-2.4958,-2.6318,-2.6391,-2.6299,-2.6628,-2.6958,-2.7105,-2.7789,-2.8136,-2.8333,-2.8663,-2.8975,-2.8938,-2.881,-2.8553,-2.8352,-2.7985,-2.7173,-2.6939,-2.6921,-2.6921,-2.6995,-2.7124,-2.6921,-2.6848,-2.6811,-2.6866,-2.683,-2.705,-2.7618,-2.8132,-2.8352,-2.8608,-2.8938,-2.903,-2.9167,-2.9878,-3.0137,-3.0692,-3.1299,-3.1246,-3.132,-3.1304,-3.1341,-3.1377,-3.1377,-3.1396,-3.1414,-3.1413,-3.1389,-3.1993,-3.26,-3.3219,-3.3761,-3.3762,-3.3817,-3.3817,-3.3817,-3.3817,-3.3817,-3.3817,-3.3817,-3.3817,-3.3798,-3.3845,-3.5016,-3.856,-4.1198,-4.2464,-4.2584,-4.2075,-4.1896,-4.2027,-4.2289,-4.2485,-4.2748,-4.3075,-4.3141,-4.3184,-4.3184,-4.3485,-4.3786]}]]